[[{"header":{"parameterUnit":"m.s-1","parameterCategory":1,"la1":30.6,"la2":29.2853,"lo1":-89.7004,"lo2":-87.6739,"dy":0.0162,"dx":0.0183,"nx":112,"ny":82,"refTime":"2025-08-15T12:00:00:Z","depth":0,"parameterNumber":2,"parameterNumberName":"U-component_of_WINDS"},"data":[0.0,0.0,0.0,0.0,0.0,0.0,0.0,0.0,0.0,0.0,0.0,0.0,0.0,0.0,0.0,0.0,0.0,0.0,0.0,0.0,0.0,0.0,0.0,0.0,0.0,0.0,0.0,0.0,0.0,0.0,0.0,0.0,0.0,0.0,0.0,0.0,0.0,0.0,0.0,0.0,0.0,0.0,0.0,0.0,0.0,0.0,0.0,0.0,0.0,0.0,0.0,0.0,0.0,0.0,0.0,0.0,0.0,0.0,0.0,0.0,0.0,0.0,0.0,0.0,0.0,0.0,0.0,0.0,0.0,0.0,0.0,0.0,0.0,0.0,0.0,0.0,0.0,0.0,0.0,0.0,0.0,0.0,0.0,0.0,0.0,0.0,0.0,0.0,0.0,0.0,1.6616,1.7921,2.0704,2.3,2.4381,2.4375,2.2909,1.9645,0.0,0.0,0.0,0.0,0.0,0.0,0.0,0.0,0.0,0.0,0.0,0.0,0.0,0.0,0.0,0.0,0.0,0.0,0.0,0.0,0.0,0.0,0.0,0.0,0.0,0.0,0.0,0.0,0.0,0.0,0.0,0.0,0.0,0.0,0.0,0.0,0.0,0.0,0.0,0.0,0.0,0.0,0.0,0.0,0.0,0.0,0.0,0.0,0.0,0.0,0.0,0.0,0.0,0.0,0.0,0.0,0.0,0.0,0.0,0.0,0.0,0.0,0.0,0.0,0.0,0.0,0.0,0.0,0.0,0.0,0.0,0.0,0.0,0.0,0.0,0.0,0.0,0.0,0.0,0.0,0.0,0.0,0.0,0.0,0.0,0.0,0.0,0.0,0.0,0.0,0.0,0.0,0.0,0.0,0.0,0.0,0.0,0.0,0.0,0.0,0.0,0.0,0.0,0.0,1.7501,2.1156,2.2503,2.352,2.4429,2.4325,2.2882,1.9772,0.0,0.0,0.0,0.0,0.0,0.0,0.0,0.0,0.0,0.0,0.0,0.0,0.0,0.0,0.0,0.0,0.0,0.0,0.0,0.0,0.0,0.0,0.0,0.0,0.0,0.0,0.0,0.0,0.0,0.0,0.0,0.0,0.0,0.0,0.0,0.0,0.0,0.0,0.0,0.0,0.0,0.0,0.0,0.0,0.0,0.0,0.0,0.0,0.0,0.0,0.0,0.0,0.0,0.0,0.0,0.0,0.0,0.0,0.0,0.0,0.0,0.0,0.0,0.0,0.0,0.0,0.0,0.0,0.0,0.0,0.0,0.0,0.0,0.0,0.0,0.0,0.0,0.0,0.0,0.0,0.0,0.0,0.0,0.0,0.0,0.0,0.0,0.0,0.0,0.0,0.0,0.0,0.0,0.0,0.0,0.0,0.0,0.0,0.0,0.0,0.0,0.0,0.0,1.6696,1.862,2.1796,2.2838,2.3568,2.4229,2.413,2.2694,1.9532,1.7646,0.0,0.0,0.0,0.0,0.0,0.0,0.0,0.0,0.0,0.0,0.0,0.0,0.0,0.0,0.0,0.0,0.0,0.0,0.0,0.0,0.0,0.0,0.0,0.0,0.0,0.0,0.0,0.0,0.0,0.0,0.0,0.0,0.0,0.0,0.0,0.0,0.0,0.0,0.0,0.0,0.0,0.0,0.0,0.0,0.0,0.0,0.0,0.0,0.0,0.0,0.0,0.0,0.0,0.0,0.0,0.0,0.0,0.0,0.0,0.0,0.0,0.0,0.0,0.0,0.0,0.0,0.0,0.0,0.0,0.0,0.0,0.0,0.0,0.0,0.0,0.0,0.0,0.0,0.0,0.0,0.0,0.0,0.0,0.0,0.0,0.0,0.0,0.0,0.0,0.0,0.0,0.0,0.0,0.0,0.0,0.0,0.0,0.0,0.0,0.0,0.0,0.0,1.8493,1.9546,2.1748,2.2705,2.3447,2.4059,2.3631,2.2139,1.9322,1.7166,0.0,0.0,0.0,0.0,0.0,0.0,0.0,0.0,0.0,0.0,0.0,0.0,0.0,0.0,0.0,0.0,0.0,0.0,0.0,0.0,0.0,0.0,0.0,0.0,0.0,0.0,0.0,0.0,0.0,0.0,0.0,0.0,0.0,0.0,0.0,0.0,0.0,0.0,0.0,0.0,0.0,0.0,0.0,0.0,0.0,0.0,0.0,0.0,0.0,0.0,0.0,0.0,0.0,0.0,0.0,0.0,0.0,0.0,0.0,0.0,0.0,0.0,0.0,0.0,0.0,0.0,0.0,0.0,0.0,0.0,0.0,0.0,0.0,0.0,0.0,0.0,0.0,0.0,0.0,0.0,0.0,0.0,0.0,0.0,0.0,0.0,0.0,0.0,0.0,0.0,0.0,0.0,0.0,0.0,0.0,0.0,0.0,0.0,0.0,0.0,0.0,0.0,1.8458,2.0,2.1723,2.2511,2.3258,2.4033,2.2616,2.099,1.9386,1.6244,0.0,0.0,0.0,0.0,0.0,0.0,0.0,0.0,0.0,0.0,0.0,0.0,0.0,0.0,0.0,0.0,0.0,0.0,0.0,0.0,0.0,0.0,0.0,0.0,0.0,0.0,0.0,0.0,0.0,0.0,0.0,0.0,0.0,0.0,0.0,0.0,0.0,0.0,0.0,0.0,0.0,0.0,0.0,0.0,0.0,0.0,0.0,0.0,0.0,0.0,0.0,0.0,0.0,0.0,0.0,0.0,0.0,0.0,0.0,0.0,0.0,0.0,0.0,0.0,0.0,0.0,0.0,0.0,0.0,0.0,0.0,0.0,0.0,0.0,0.0,0.0,0.0,0.0,0.0,0.0,0.0,0.0,0.0,0.0,0.0,0.0,0.0,0.0,0.0,0.0,0.0,0.0,0.0,0.0,0.0,0.0,0.0,0.0,0.0,0.0,0.0,0.0,1.8463,1.9953,2.1541,2.2278,2.2938,2.3656,2.3042,2.1557,1.9074,0.0,0.0,0.0,0.0,0.0,0.0,0.0,0.0,0.0,0.0,0.0,0.0,0.0,0.0,0.0,0.0,0.0,0.0,0.0,0.0,0.0,0.0,0.0,0.0,0.0,0.0,0.0,0.0,0.0,0.0,0.0,0.0,0.0,0.0,0.0,0.0,0.0,0.0,0.0,0.0,0.0,0.0,0.0,0.0,0.0,0.0,0.0,0.0,0.0,0.0,0.0,0.0,0.0,0.0,0.0,0.0,0.0,0.0,0.0,0.0,0.0,0.0,0.0,0.0,0.0,0.0,0.0,0.0,0.0,0.0,0.0,0.0,0.0,0.0,0.0,0.0,0.0,0.0,0.0,0.0,0.0,0.0,0.0,0.0,0.0,0.0,0.0,0.0,0.0,0.0,0.0,0.0,0.0,0.0,0.0,0.0,0.0,0.0,0.0,0.0,0.0,0.0,1.6843,1.832,1.9734,2.1279,2.1796,2.2414,2.337,2.2858,2.1414,1.8851,0.0,0.0,0.0,0.0,0.0,0.0,0.0,0.0,0.0,0.0,0.0,0.0,0.0,0.0,0.0,0.0,0.0,0.0,0.0,0.0,0.0,0.0,0.0,0.0,0.0,0.0,0.0,0.0,0.0,0.0,0.0,0.0,0.0,0.0,0.0,0.0,0.0,0.0,0.0,0.0,0.0,0.0,0.0,0.0,0.0,0.0,0.0,0.0,0.0,0.0,0.0,0.0,0.0,0.0,0.0,0.0,0.0,0.0,0.0,0.0,0.0,0.0,0.0,0.0,0.0,0.0,0.0,0.0,0.0,0.0,0.0,0.0,0.0,0.0,0.0,0.0,0.0,0.0,0.0,0.0,0.0,0.0,0.0,0.0,0.0,0.0,0.0,0.0,0.0,0.0,0.0,0.0,0.0,0.0,0.0,0.0,0.0,0.0,0.0,0.0,0.0,0.0,1.6579,1.7976,1.9386,2.0947,2.104,2.1625,2.3177,2.1778,2.0215,0.0,0.0,0.0,0.0,0.0,0.0,0.0,0.0,0.0,0.0,0.0,0.0,0.0,0.0,0.0,0.0,0.0,0.0,0.0,0.0,0.0,0.0,0.0,0.0,0.0,0.0,0.0,0.0,0.0,0.0,0.0,0.0,0.0,0.0,0.0,0.0,0.0,0.0,0.0,0.0,0.0,0.0,0.0,0.0,0.0,0.0,0.0,0.0,0.0,0.0,0.0,0.0,0.0,0.0,0.0,0.0,0.0,0.0,0.0,0.0,0.0,0.0,0.0,0.0,0.0,0.0,0.0,0.0,0.0,0.0,0.0,0.0,0.0,0.0,0.0,0.0,0.0,0.0,0.0,0.0,0.0,0.0,0.0,0.0,0.0,0.0,0.0,0.0,0.0,0.0,0.0,0.0,0.0,0.0,0.0,0.0,0.0,0.0,0.0,0.0,0.0,0.0,0.0,1.6516,1.7851,1.9283,2.0927,2.0957,2.1473,2.3022,2.271,2.1311,1.8717,0.0,0.0,0.0,0.0,0.0,0.0,0.0,0.0,0.0,0.0,0.0,0.0,0.0,0.0,0.0,0.0,0.0,0.0,0.0,0.0,0.0,0.0,0.0,0.0,0.0,0.0,0.0,0.0,0.0,0.0,0.0,0.0,0.0,0.0,0.0,0.0,0.0,0.0,0.0,0.0,0.0,0.0,0.0,0.0,0.0,0.0,0.0,0.0,0.0,0.0,0.0,0.0,0.0,0.0,0.0,0.0,0.0,0.0,0.0,0.0,0.0,0.0,0.0,0.0,0.0,0.0,0.0,0.0,0.0,0.0,0.0,0.0,0.0,0.0,0.0,0.0,0.0,0.0,0.0,0.0,0.0,0.0,0.0,0.0,0.0,0.0,0.0,0.0,0.0,0.0,0.0,0.0,0.0,0.0,0.0,0.0,0.0,0.0,0.0,0.0,0.0,0.0,1.6457,1.7766,1.907,2.0408,2.0694,2.1305,2.2558,2.2932,2.1779,1.8683,0.0,0.0,0.0,0.0,0.0,0.0,0.0,0.0,0.0,0.0,0.0,0.0,0.0,0.0,0.0,0.0,0.0,0.0,0.0,0.0,0.0,0.0,0.0,0.0,0.0,0.0,0.0,0.0,0.0,0.0,0.0,0.0,0.0,0.0,0.0,0.0,0.0,0.0,0.0,0.0,0.0,0.0,0.0,0.0,0.0,0.0,0.0,0.0,0.0,0.0,0.0,0.0,0.0,0.0,0.0,0.0,0.0,0.0,0.0,0.0,0.0,0.0,0.0,0.0,0.0,0.0,0.0,0.0,0.0,0.0,0.0,0.0,0.0,0.0,0.0,0.0,0.0,0.0,0.0,0.0,0.0,0.0,0.0,0.0,0.0,0.0,0.0,0.0,0.0,0.0,0.0,0.0,0.0,0.0,0.0,0.0,0.0,0.0,0.0,0.0,0.0,0.0,1.6337,1.7697,1.8811,1.9614,2.0304,2.1012,2.1814,2.2575,2.1744,1.8793,0.0,0.0,0.0,0.0,0.0,0.0,0.0,0.0,0.0,0.0,0.0,0.0,0.0,0.0,0.0,0.0,0.0,0.0,0.0,0.0,0.0,0.0,0.0,0.0,0.0,0.0,0.0,0.0,0.0,0.0,0.0,0.0,0.0,0.0,0.0,0.0,0.0,0.0,0.0,0.0,0.0,0.0,0.0,0.0,0.0,0.0,0.0,0.0,0.0,0.0,0.0,0.0,0.0,0.0,0.0,0.0,0.0,0.0,0.0,0.0,1.7395,1.6405,0.0,0.0,0.0,0.0,0.0,0.0,0.0,0.0,0.0,0.0,0.0,0.0,0.0,0.0,0.0,0.0,0.0,0.0,0.0,0.0,0.0,0.0,0.0,0.0,0.0,0.0,0.0,0.0,0.0,0.0,0.0,0.0,0.0,0.0,0.0,0.0,0.0,0.0,0.0,0.0,1.6092,1.7588,1.8811,1.9614,1.9842,2.0234,2.0994,2.1779,2.144,1.9561,1.81,0.0,0.0,0.0,0.0,0.0,0.0,0.0,0.0,0.0,0.0,0.0,0.0,0.0,0.0,0.0,0.0,0.0,0.0,0.0,0.0,0.0,0.0,0.0,0.0,0.0,0.0,0.0,0.0,0.0,0.0,0.0,0.0,0.0,0.0,0.0,0.0,0.0,0.0,0.0,0.0,0.0,0.0,0.0,0.0,0.0,0.0,0.0,0.0,0.0,0.0,0.0,0.0,0.0,0.0,0.0,0.0,0.0,0.0,0.0,1.9007,1.8395,0.0,0.0,0.0,0.0,0.0,0.0,0.0,0.0,0.0,0.0,0.0,0.0,0.0,0.0,0.0,0.0,0.0,0.0,0.0,0.0,0.0,0.0,0.0,0.0,0.0,0.0,0.0,0.0,0.0,0.0,0.0,0.0,0.0,0.0,0.0,0.0,0.0,0.0,0.0,0.0,1.6141,1.7588,1.8653,1.9087,1.9473,1.9859,2.0234,2.0971,2.0902,1.9679,1.8813,0.0,0.0,0.0,0.0,0.0,0.0,0.0,0.0,0.0,0.0,0.0,0.0,0.0,0.0,0.0,0.0,0.0,0.0,0.0,0.0,0.0,0.0,0.0,0.0,0.0,0.0,0.0,0.0,0.0,0.0,0.0,0.0,0.0,0.0,0.0,0.0,0.0,0.0,0.0,0.0,0.0,0.0,0.0,0.0,0.0,0.0,0.0,0.0,0.0,0.0,0.0,0.0,0.0,2.3257,2.3491,2.3491,2.3491,2.3491,2.336,2.0878,2.1333,2.3573,2.031,0.0,0.0,0.0,0.0,0.0,0.0,0.0,0.0,0.0,0.0,0.0,0.0,0.0,0.0,0.0,0.0,0.0,0.0,0.0,0.0,0.0,0.0,1.9873,2.0646,2.0754,2.0499,1.9883,0.0,0.0,0.0,0.0,0.0,0.0,0.0,0.0,0.0,0.0,0.0,1.6606,1.7902,1.8758,1.8881,1.9385,1.9696,1.9673,2.024,2.0278,1.9545,1.9494,1.8275,0.0,0.0,0.0,0.0,0.0,0.0,0.0,0.0,0.0,0.0,0.0,0.0,0.0,0.0,0.0,0.0,0.0,0.0,0.0,0.0,0.0,0.0,0.0,0.0,0.0,0.0,0.0,0.0,0.0,0.0,0.0,0.0,1.387,1.387,0.0,0.0,0.0,0.0,0.0,0.0,0.0,0.0,0.0,0.0,0.0,0.0,0.0,2.1628,2.1628,2.2034,2.2407,2.2733,2.5412,2.6686,2.6686,2.6686,2.6686,2.6669,2.6264,0.0,2.6507,2.3391,0.0,0.0,0.0,0.0,0.0,0.0,0.0,0.0,0.0,0.0,0.0,0.0,0.0,0.0,0.0,0.0,0.0,0.0,0.0,0.0,0.0,0.0,2.3597,2.3721,2.3726,2.3696,2.3597,2.087,1.7924,1.6253,1.5929,1.5195,0.0,0.0,0.0,0.0,0.0,0.0,1.7944,1.8997,1.9794,2.0432,2.0023,1.9686,1.9619,1.9701,1.9675,1.9512,1.9458,1.8938,1.7895,1.6611,0.0,0.0,0.0,0.0,0.0,0.0,0.0,0.0,0.0,0.0,0.0,0.0,0.0,0.0,0.0,0.0,0.0,0.0,0.0,0.0,0.0,0.0,0.0,0.0,0.0,0.0,0.0,0.0,0.0,1.1913,1.3787,1.6272,1.6961,1.6501,0.0,0.0,0.0,0.0,0.0,0.0,0.0,0.0,0.0,2.1164,2.2182,2.3533,2.5264,2.5298,2.5298,2.5298,2.6651,2.7307,2.7307,2.7307,2.8238,2.973,2.8049,2.7307,2.7203,2.5833,2.3481,2.0539,0.0,0.0,0.0,0.0,1.8404,2.3647,2.4017,2.5716,2.7497,2.6261,0.0,0.0,0.0,0.0,0.0,0.0,0.0,2.2338,2.1396,2.2717,2.4526,2.5391,2.525,2.5039,2.5489,2.3949,2.173,1.926,1.9145,1.8437,1.522,1.5019,0.0,0.0,0.0,1.7475,1.8886,1.9766,2.0373,2.066,2.041,2.0184,2.0167,1.9771,1.9692,2.0032,1.9645,1.9051,1.8284,1.7564,1.6093,0.0,0.0,0.0,0.0,0.0,0.0,0.0,0.0,0.0,0.0,0.0,0.0,0.0,0.0,0.0,0.0,0.0,0.0,0.0,0.0,0.0,0.0,0.0,0.0,0.0,0.0,0.0,0.0,1.2256,1.4054,1.7943,1.9188,1.8675,0.0,0.0,0.0,0.0,0.0,0.0,2.0405,2.2944,2.4187,2.3891,2.3877,2.4988,2.729,2.7307,2.7307,2.7307,2.8083,2.8396,2.827,2.7497,2.8844,3.1662,2.9429,2.8445,2.8394,2.7617,2.5954,2.3757,2.2612,2.0362,1.7779,1.7779,2.048,2.4497,2.6806,2.76,2.7222,2.4999,2.5833,2.7708,2.7708,0.0,0.0,0.0,0.0,2.5576,2.379,2.4093,2.5233,2.6553,2.6416,2.6139,2.6728,2.6363,2.5091,2.2248,2.2189,2.1481,1.7981,1.7816,0.0,1.7158,1.8007,1.9068,1.997,2.0615,2.1022,2.1179,2.1022,2.0895,2.0877,2.0013,1.969,2.0154,1.9681,1.9025,1.8235,1.8375,1.7233,1.4593,0.0,0.0,0.0,0.0,0.0,0.0,0.0,0.0,0.0,0.0,0.0,0.0,0.0,0.0,0.0,0.0,0.0,0.0,0.0,0.0,0.0,0.0,0.0,0.0,0.0,0.0,0.0,0.0,0.0,1.868,2.0118,0.0,0.0,0.0,0.0,1.8078,2.0667,2.2776,2.3895,2.6968,2.8195,2.7104,2.7065,2.7152,2.7307,2.7307,2.7307,2.7341,3.0196,3.1364,3.0898,2.8046,2.8578,3.1783,3.1637,3.1576,3.1351,2.848,2.7203,2.7057,2.6979,2.683,2.6663,2.6663,2.6838,2.7098,2.7261,2.7313,2.7334,2.743,2.7561,2.7708,2.7708,2.748,0.0,0.0,2.7439,2.7568,2.7435,2.6953,2.6676,2.7455,2.7564,2.7497,2.7532,2.747,2.6754,2.4546,2.4157,2.3401,2.0994,0.0,2.0264,1.9451,1.9357,1.9921,2.1475,2.1724,2.2014,2.2715,2.2165,2.1711,2.1644,2.0275,1.9393,1.9361,1.932,1.8976,1.8235,1.8872,1.8488,1.6863,1.5465,0.0,0.0,0.0,0.0,0.0,0.0,0.0,0.0,0.0,0.0,0.0,0.0,0.0,0.0,0.0,0.0,0.0,0.0,0.0,0.0,0.0,0.0,0.0,0.0,0.0,0.0,0.0,0.0,2.037,2.1873,0.0,2.1577,2.0825,2.0856,2.1978,2.4986,2.6593,2.6212,2.7286,2.7729,2.7305,2.7307,2.7307,2.7307,2.7031,2.6899,2.6942,2.8007,2.8448,2.8273,2.719,2.7512,2.8903,2.8903,2.8903,2.8825,2.773,2.7307,2.7497,2.9446,3.0205,3.0205,3.0205,3.0205,3.0205,3.0205,3.0205,2.9894,2.8047,2.7554,2.7708,2.7708,2.7708,2.7708,2.7708,2.7644,2.7569,2.7569,2.7377,2.7248,2.7517,2.7539,2.7534,2.7534,2.7519,2.7275,2.6507,2.5946,2.4856,2.2545,2.2533,2.2566,2.1793,2.2076,2.2735,2.3785,2.3917,2.4001,2.423,2.3549,2.3075,2.3042,2.1195,2.0027,2.0004,1.9125,1.8476,1.8217,1.8459,1.8092,1.7013,1.6472,1.5365,0.0,0.0,0.0,0.0,0.0,0.0,0.0,0.0,0.0,0.0,0.0,0.0,0.0,0.0,0.0,0.0,0.0,0.0,0.0,0.0,0.0,0.0,0.0,0.0,0.0,1.8128,2.0283,2.1572,2.3165,2.3886,2.3277,2.2694,2.3147,2.5105,2.7215,2.8094,2.7337,2.7307,2.7307,2.7307,2.7307,2.7234,2.7105,2.6833,2.67,2.67,2.67,2.67,2.67,2.67,2.685,2.7105,2.7105,2.7161,2.7307,2.7307,2.7307,2.7497,2.9498,3.0282,3.0403,3.142,3.18,3.18,3.18,3.18,3.1481,2.9472,2.8939,2.9074,2.9074,2.9074,2.8873,2.7851,2.7503,2.7558,2.8053,2.8077,2.8021,2.8227,2.823,2.8206,2.8206,2.8007,2.7793,2.7793,2.7214,2.6131,2.4347,2.442,2.45,2.3744,2.4049,2.4507,2.5008,2.507,2.5056,2.5005,2.4515,2.4095,2.3812,2.1951,2.0797,2.0797,1.9165,1.8304,1.8562,1.8338,1.7959,1.7414,1.7134,1.6011,1.4002,0.0,0.0,0.0,0.0,0.0,0.0,0.0,0.0,0.0,0.0,0.0,0.0,0.0,0.0,0.0,0.0,0.0,0.0,0.0,0.0,0.0,0.0,0.0,1.7373,1.9812,2.1954,2.2274,2.3946,2.4844,2.4355,2.4769,2.5717,2.7186,2.7307,2.7307,2.7307,2.7307,2.7307,2.7307,2.7291,2.7097,2.67,2.67,2.67,2.67,2.67,2.67,2.67,2.67,2.67,2.67,2.67,2.6925,2.7291,2.7291,2.7291,2.7291,2.7299,2.7307,2.7652,3.0575,3.1662,3.1662,3.1775,3.18,3.18,3.18,3.18,3.18,3.18,3.18,3.1188,2.8256,2.7445,2.7773,2.9205,2.9263,2.9086,2.9673,2.9693,2.96,2.96,2.897,2.8403,2.8403,2.7918,2.7252,2.6462,2.6288,2.5994,2.5279,2.5118,0.0,2.5067,2.5067,2.5067,2.5067,2.505,2.4705,2.3905,2.2474,2.1619,2.1567,1.9476,1.8557,1.9258,1.8608,1.8235,1.8235,1.7449,1.6322,1.4874,0.0,0.0,0.0,0.0,0.0,0.0,0.0,0.0,0.0,0.0,0.0,0.0,0.0,0.0,0.0,0.0,0.0,0.0,0.0,0.0,0.0,1.7708,2.2746,2.0539,2.1514,2.3091,2.4823,2.5708,2.6237,2.6434,2.6933,2.7263,2.7312,2.7307,2.7307,2.7307,2.7307,2.7307,2.7307,2.7015,2.6817,2.67,2.67,2.67,2.67,2.67,2.67,2.67,2.67,2.67,2.67,2.67,2.6767,2.6858,2.6858,2.6858,2.6883,2.7194,2.7307,2.7393,2.8238,2.8549,2.8851,3.1041,3.18,3.18,3.18,3.18,3.18,3.18,3.18,3.1627,3.0809,3.0558,3.0671,3.1058,3.0541,2.9955,3.011,2.9851,2.9523,2.9523,2.8928,2.8403,2.8403,2.7822,2.7283,2.7059,2.7009,2.6924,2.6726,2.6676,2.6669,2.6669,2.6669,2.6669,2.6669,2.6161,2.5498,2.4739,2.3267,2.191,2.0801,1.9585,1.8989,1.9144,1.9001,1.8943,1.9005,1.8269,1.7385,0.0,0.0,0.0,0.0,0.0,0.0,0.0,0.0,0.0,0.0,0.0,0.0,0.0,0.0,0.0,0.0,0.0,0.0,0.0,0.0,0.0,0.0,2.1201,2.4482,2.3843,2.3946,2.4569,2.5901,2.6554,2.7003,2.7271,2.7577,2.7644,2.7321,2.7307,2.7307,2.7307,2.7137,2.7056,2.7056,2.6825,2.67,2.67,2.67,2.67,2.67,2.67,2.7359,2.8595,2.8595,2.8595,2.8595,2.8595,2.7867,2.67,2.67,2.67,2.6716,0.0,0.0,0.0,0.0,2.7307,2.7548,2.9308,2.9912,2.9912,2.9912,2.9912,3.0153,3.142,3.18,3.18,3.18,3.18,3.18,3.18,3.1369,3.092,3.092,3.0696,3.0455,3.0455,2.9627,2.8868,2.8868,2.8023,0.0,2.7307,2.7307,2.7307,2.7307,2.7307,2.7307,2.7307,2.7307,2.7307,2.7307,2.6885,2.6283,2.5495,2.4018,0.0,0.0,0.0,1.96,1.9559,1.9594,0.0,0.0,0.0,0.0,0.0,1.8398,0.0,0.0,1.6755,1.6799,0.0,0.0,0.0,0.0,0.0,0.0,0.0,0.0,0.0,0.0,0.0,0.0,0.0,0.0,0.0,0.0,2.5696,2.5375,2.6687,2.6425,2.6109,2.6115,2.6805,2.7283,2.7307,2.7307,2.7307,2.7307,2.7258,2.7234,2.7234,2.6883,0.0,0.0,0.0,2.67,2.67,2.67,2.67,2.67,2.67,2.8273,3.1207,3.1529,3.1512,3.12,3.12,2.9677,2.7207,2.7207,2.7004,2.67,2.67,2.67,2.6733,2.7105,2.7234,2.7234,2.7234,0.0,0.0,2.7291,2.7307,2.7807,3.0472,3.1282,3.1351,3.1696,3.18,3.18,3.18,3.1791,3.1772,3.18,3.1791,3.1747,3.1633,3.047,2.9394,2.9274,2.8115,2.7145,2.7145,2.7202,2.7234,2.7234,2.7194,2.7153,2.7145,2.7145,2.7145,2.7129,2.7129,0.0,2.5922,2.4601,2.3704,2.3478,2.1546,2.0461,2.0505,2.0573,2.0647,2.0668,2.0606,2.0603,2.0629,2.0654,2.0699,2.0732,1.9258,1.8976,0.0,0.0,0.0,0.0,0.0,0.0,0.0,0.0,0.0,0.0,0.0,0.0,0.0,0.0,0.0,2.6327,2.6479,2.6411,2.6699,2.6731,2.6761,2.6863,2.6986,2.7122,2.7291,2.7307,2.7307,2.7307,2.6998,2.6817,2.6817,2.6733,2.67,2.67,2.67,2.67,2.67,2.67,2.67,2.67,2.67,0.0,3.1275,3.3666,3.3446,3.12,3.12,3.0879,3.0337,3.0337,2.8899,2.67,2.67,2.67,2.6708,2.6792,2.6817,2.6817,2.6817,2.6817,2.6866,2.7194,2.7307,2.741,2.7997,2.8169,0.0,3.1119,3.18,3.18,3.18,3.1679,3.1612,3.1763,3.1718,3.1408,3.0605,2.9725,2.881,2.7827,2.689,2.6253,2.6253,2.6573,2.6817,2.6817,2.6539,2.6306,2.6262,2.6253,2.621,2.6089,2.6089,2.578,2.5026,2.4678,2.3951,2.263,2.2093,2.1974,2.2371,2.2951,2.3168,2.2975,2.2951,2.2641,2.2009,2.2648,2.2972,2.2952,2.1584,2.1337,0.0,0.0,0.0,0.0,0.0,0.0,0.0,0.0,0.0,0.0,0.0,1.8392,1.8818,0.0,2.4281,2.6352,2.67,2.67,2.67,2.6758,2.685,2.6982,2.6999,2.704,2.7194,2.717,2.7186,2.7282,2.6933,2.67,2.67,2.67,2.67,2.67,2.67,2.67,2.67,2.67,2.67,2.6691,2.5881,2.7008,2.9891,3.2712,3.3177,3.1863,3.2944,3.256,3.12,3.12,3.0311,2.895,2.895,2.8036,2.67,2.67,2.67,2.67,2.67,2.67,2.6725,2.6941,2.6998,2.7031,2.7234,2.7153,2.7631,3.0646,3.1634,3.1542,3.0385,3.0794,3.1349,3.0781,3.0921,3.1002,3.0262,2.9522,2.8712,2.7741,2.6928,2.6299,2.5956,2.5933,2.6024,2.6211,2.6078,2.5944,2.5899,2.5899,2.5881,2.5819,2.581,2.5651,2.5227,2.4796,2.405,2.2877,2.277,2.2855,2.3096,2.3448,2.3703,2.3796,2.3765,2.3679,2.3548,2.392,2.4117,2.4145,2.3913,2.3805,0.0,0.0,0.0,0.0,0.0,0.0,0.0,1.7184,1.7598,1.9901,2.0973,2.1576,2.1841,2.2599,2.3956,2.6318,2.67,2.67,2.67,2.67,2.6742,2.6851,2.6909,2.6975,2.7039,2.6991,2.7007,2.7178,2.6875,2.67,2.67,2.67,2.6632,2.647,2.647,2.6539,2.67,2.6393,2.6236,2.6219,2.5456,2.6261,2.8488,3.1182,3.2398,3.2492,3.4231,3.3627,3.1434,3.1434,3.1133,3.0665,3.0665,2.885,2.6272,2.6573,2.684,2.7022,2.7022,2.6956,2.683,2.6562,2.647,2.6522,2.685,2.6716,2.7041,2.9743,3.0802,3.071,2.8873,2.9739,3.0821,2.9756,3.008,3.0472,2.99,2.9293,2.8648,2.7829,2.7168,2.6523,2.5864,2.5445,2.5326,2.5649,2.5617,2.5561,2.5552,2.5542,2.5533,2.5514,2.5514,2.5493,2.5431,2.4778,2.4127,2.3524,2.3492,2.3528,2.3617,2.3617,2.3821,2.4282,2.4248,2.4414,2.4851,2.4805,2.4805,2.4868,2.5604,2.5644,1.4995,1.6257,1.7645,1.8491,1.8574,1.9178,0.0,2.1366,2.0965,2.3415,2.4333,2.4691,2.4735,2.4837,2.5311,2.6513,2.67,2.67,2.67,2.67,2.6708,2.6725,2.6725,2.6783,2.6916,2.6808,2.6733,2.6775,2.6725,2.67,2.67,2.67,2.6367,2.5661,2.5633,2.598,2.6691,2.5275,2.4574,2.4605,2.6856,2.8092,2.8488,3.1182,3.2398,3.2396,3.2641,3.2578,3.2271,3.2271,3.0868,2.8716,2.8716,2.7019,2.4739,2.6175,2.7339,2.8202,2.8202,2.7903,2.7289,2.6037,2.5633,2.5642,2.5689,2.567,2.5975,2.7552,2.8385,2.8724,2.8468,2.8978,2.9545,2.9513,2.9751,2.974,2.8802,2.8533,2.8137,2.7048,2.6659,2.6329,2.5654,2.5402,2.5285,2.5262,2.4968,2.4705,2.4655,2.4645,2.4599,2.4482,2.4472,2.4462,2.4467,2.4369,2.4271,2.4184,2.4194,2.435,2.472,2.4714,2.4901,2.5325,2.5315,2.5343,2.5407,2.5398,2.5398,2.5424,2.5631,2.5797,1.7552,1.8535,1.9329,2.0669,2.1191,2.1691,2.3042,2.2719,2.2706,2.4676,2.5249,2.5527,2.5981,2.6074,2.6218,2.6632,2.67,2.67,2.67,2.67,2.67,2.67,2.67,2.6716,2.6783,2.6725,2.67,2.67,2.67,2.67,2.67,2.6254,2.5844,2.5512,2.505,2.5348,2.6507,2.7248,2.6501,2.4322,2.7088,2.9027,3.025,3.1726,3.2398,3.2398,3.2398,3.2398,3.2398,3.2398,3.0828,2.8411,2.8411,2.7703,2.6767,2.7433,2.7983,2.8367,2.8135,2.79,2.7539,2.6441,2.6079,2.5979,2.5432,2.5266,2.5493,2.6598,2.7623,2.8411,2.8411,2.885,2.9223,2.8939,2.915,2.9236,2.8555,2.8404,2.8143,2.7287,2.7068,2.6817,2.615,2.594,2.5887,2.5899,2.5383,2.4869,2.4436,2.4719,2.4791,2.4348,2.4292,2.4292,2.4292,2.4292,2.4292,2.4292,2.4292,2.4374,2.4528,2.4553,2.4739,2.5131,2.515,2.5465,2.6079,2.6079,2.6306,2.6716,2.6815,2.692,1.8941,1.9953,2.0709,2.2156,2.3115,2.3733,2.3835,2.3947,2.4368,2.553,2.579,2.5941,2.6531,2.6674,2.67,2.67,2.67,2.67,2.67,2.6624,2.6581,2.6632,2.6632,2.6624,2.664,2.6691,2.6657,2.6539,2.6513,2.6453,2.6358,2.5781,2.5418,2.5304,2.4759,2.4884,2.5755,2.7991,2.7987,2.5776,2.7401,2.9349,3.151,3.1952,3.2148,3.2148,3.2148,3.2148,3.2162,3.2328,3.1259,2.9504,2.9504,2.9008,2.8333,2.8636,2.8611,2.8364,2.8067,2.7962,2.7791,2.6777,2.6467,2.6271,2.5201,2.4873,2.5082,2.6112,2.7088,2.7907,2.8304,2.8724,2.8943,2.8505,2.8653,2.8815,2.8481,2.8411,2.8273,2.7765,2.7673,2.7457,2.6791,2.6641,2.6553,2.6422,2.6103,2.563,2.4938,2.5292,2.5426,2.4933,2.4887,2.4795,2.4584,2.4584,2.4584,2.4584,2.4584,2.4661,2.4872,2.4887,2.5019,2.531,2.531,2.5689,2.6441,2.6441,2.6738,2.7264,2.7327,2.7522,1.8606,2.019,2.2037,2.2866,2.416,2.5238,2.5246,2.5832,2.641,2.646,2.6469,2.6486,2.6496,2.6598,2.67,2.67,2.67,2.67,2.67,2.6417,2.6283,2.6485,2.6451,2.6434,2.6502,2.6615,2.6539,2.6157,2.6059,2.5843,2.5453,2.5415,2.5214,2.4835,2.4859,2.466,2.4175,2.5974,2.774,2.9425,2.821,2.8992,3.1511,3.151,3.1524,3.1524,3.1524,3.1524,3.1568,3.2162,3.235,3.2275,3.2275,3.0532,2.8148,2.925,2.9135,2.8396,2.8393,2.8389,2.8158,2.6772,2.6352,2.6132,2.4749,2.4323,2.4615,2.6006,2.638,2.668,2.8045,2.8408,2.842,2.8396,2.8408,2.8408,2.8411,2.8411,2.8384,2.8369,2.8369,2.8165,2.7488,2.7365,2.7149,2.6499,2.6919,2.7072,2.6327,2.6307,2.636,2.6329,2.6329,2.6052,2.5338,2.5266,2.5266,2.5266,2.5266,2.5584,2.6314,2.6329,2.6341,2.6352,2.6352,2.6352,2.631,2.631,2.6341,2.6451,2.6436,2.7074,2.0867,2.2327,2.3509,2.4354,2.5238,2.591,2.5946,2.6137,2.6319,2.6356,2.6407,2.6451,2.6494,2.5815,2.5549,2.6547,2.6632,2.6572,2.6572,2.6434,2.6355,2.6425,2.6442,2.6338,2.6057,2.6076,2.6041,2.5906,2.5633,2.5402,2.5269,2.5014,2.4813,2.4679,2.4431,2.4648,2.5359,2.6315,2.7654,2.9345,2.9918,3.0658,3.1511,3.1511,3.1511,3.1511,3.1511,3.1511,3.1525,3.1726,3.1796,3.1796,3.1796,3.0918,2.9703,3.0097,2.9616,2.875,2.8391,2.8214,2.7911,2.6646,2.6191,2.5901,2.4617,2.4172,2.4302,2.5321,2.5588,2.5895,2.7369,2.7734,2.7857,2.8292,2.8411,2.8288,2.7827,2.8088,2.8273,2.7827,2.7734,2.7657,2.7442,2.6953,2.6654,2.6787,2.6738,2.6753,2.6999,2.6573,2.6263,2.6263,2.6188,2.6028,2.5799,2.5843,2.5899,2.5899,2.5981,2.6145,2.6391,2.6391,2.6391,2.6391,2.6391,2.6611,2.7042,2.6538,2.6788,2.7703,2.6807,2.6859,2.258,2.3612,2.4257,2.5346,2.59,2.6203,2.6241,2.6178,2.604,2.5806,2.5592,2.5303,2.4905,2.4115,2.404,2.5562,2.6193,2.6468,2.6398,2.6363,2.6241,2.603,2.61,2.5966,2.5519,2.5349,2.5291,2.5377,2.5086,2.4851,2.4702,2.4446,2.4307,2.4307,2.4114,2.4503,2.5565,2.6379,2.7763,2.9678,3.0594,3.1197,3.1511,3.1511,3.1511,3.1511,3.1511,3.1511,3.1511,3.1511,3.1511,3.1511,3.1511,3.113,3.0617,3.0658,3.0055,2.9193,2.8931,2.8474,2.7822,2.6824,2.6264,2.5773,2.4499,2.4071,2.4151,2.4922,2.5131,2.5397,2.6581,2.6895,2.7003,2.7447,2.7539,2.742,2.6987,2.7248,2.7405,2.6987,2.6895,2.6895,2.6895,2.647,2.6253,2.6583,2.6394,2.6535,2.7485,2.7165,2.6844,2.6844,2.6549,2.6354,2.6369,2.6218,2.6253,2.6531,2.6412,2.6454,2.6745,2.653,2.6391,2.6391,2.6391,2.6607,2.7038,2.658,2.6811,2.7657,2.6807,2.6622,2.3637,2.405,2.4414,2.582,2.6168,2.6168,2.6118,2.5966,2.5602,2.4835,2.4055,2.3112,2.1867,2.1656,2.2181,2.3811,2.5363,2.6341,2.623,2.6194,2.5972,2.5387,2.5418,2.5332,2.4912,2.4523,2.4359,2.4532,2.4435,2.4189,2.3803,2.3797,2.3797,2.3797,2.3949,2.4286,2.4833,2.623,2.8138,3.0507,3.0344,3.0703,3.1511,3.1511,3.1511,3.1511,3.1511,3.1421,3.1316,3.1451,3.1466,3.1406,3.1466,3.1206,3.0801,3.0972,3.044,2.9693,2.9979,2.9178,2.7919,2.7221,2.6536,2.5739,2.4448,2.4013,2.4119,2.4767,2.4934,2.5086,2.5766,2.5948,2.5963,2.5978,2.5994,2.5978,2.5959,2.5978,2.5978,2.5959,2.5936,2.5898,2.5819,2.5849,2.5853,2.5853,2.5883,2.6394,2.7734,2.7901,2.7901,2.7901,2.7306,2.6927,2.6921,2.635,2.6313,2.7074,2.6558,2.6554,2.7307,2.673,2.6391,2.6391,2.6391,2.6391,2.6391,2.636,2.636,2.6391,2.6329,2.6314,2.3973,2.4666,2.5279,2.5654,2.5752,2.5614,2.5067,2.4892,2.4516,2.3323,2.1858,2.0526,1.9649,1.957,2.025,2.2106,2.3706,2.508,2.6136,2.6222,2.6008,2.5519,2.5484,2.5218,2.4523,2.4364,2.4156,2.3818,2.3799,2.3767,2.3664,2.3653,2.3653,2.3653,2.4169,2.4743,2.5395,2.7715,2.9425,3.0507,3.0943,3.1272,3.1511,3.1511,3.1511,3.1511,3.1511,3.0388,2.8755,3.0702,3.0942,3.0178,3.1122,3.112,3.0637,3.1176,3.0893,3.0356,3.0922,2.9944,2.8274,2.72,2.6332,2.5554,2.4822,2.4182,2.3762,2.4025,2.4118,2.428,2.506,2.5249,2.5371,2.5872,2.5994,2.5857,2.5355,2.5644,2.5842,2.5355,2.4927,2.4361,2.3418,2.3652,2.3944,2.3849,2.4264,2.5051,2.6332,2.6428,2.6354,2.6354,2.6124,2.5948,2.5963,2.5984,2.6035,2.6151,2.6279,2.64,2.6497,2.6438,2.6391,2.6391,2.6391,2.6391,2.6391,2.5857,2.5857,2.6376,2.5318,2.5102,2.4694,2.5194,2.5593,2.5596,2.5596,2.532,2.4291,2.3769,2.3006,2.1318,1.9634,1.8267,1.7558,1.7844,1.8778,2.0508,2.2283,2.3959,2.5431,2.5713,2.5598,2.515,2.504,2.4704,2.402,2.3946,2.3797,2.3444,2.3523,2.3588,2.3556,2.3573,2.3595,2.3595,2.3958,2.49,2.6465,2.8545,3.0057,3.0942,3.1316,3.1511,3.1496,3.1107,3.0823,3.0702,3.1256,3.0673,2.943,3.0883,3.1091,3.0387,2.9968,3.0254,3.0957,3.1031,3.1017,3.0957,3.1031,3.0164,2.8843,2.757,2.6453,2.5435,2.4545,2.3953,2.3616,2.3696,2.3707,2.3818,2.4271,2.4398,2.4489,2.4866,2.4942,2.4795,2.4194,2.4369,2.4462,2.385,2.3478,2.3048,2.2336,2.2529,2.2755,2.2672,2.2979,2.3579,2.452,2.5086,2.5408,2.5408,2.5264,2.5289,2.5573,2.5472,2.5508,2.5771,2.5739,2.5722,2.5763,2.5553,2.5455,2.5472,2.5472,2.5472,2.5472,2.5061,2.5061,2.5467,2.4671,2.4492,2.5405,2.5517,2.5515,2.5511,2.5456,2.5003,2.3607,2.2559,2.1271,1.9117,1.7522,1.6304,1.5615,1.6384,1.7588,1.9054,2.1068,2.2973,2.4483,2.489,2.4909,2.4567,2.4369,2.4051,2.3553,2.3487,2.3422,2.3275,2.3447,2.3534,2.3509,2.3634,2.3775,2.3885,2.3788,2.4959,2.7541,2.8699,2.9958,3.1351,3.1351,3.1394,3.1466,3.0718,3.0105,2.9702,3.0957,3.1482,3.1453,3.1453,3.132,3.0921,2.887,2.9377,3.1186,3.0779,3.1002,3.1391,3.0619,3.0005,2.937,2.8126,2.6764,2.5379,2.4223,2.3744,2.3595,2.3595,2.3595,2.3595,2.3595,2.3551,2.3508,2.3508,2.3454,2.3286,2.2889,2.2799,2.2637,2.2105,2.2013,2.199,2.1917,2.1905,2.1905,2.1905,2.1905,2.207,2.2561,2.3794,2.466,2.472,2.4573,2.4694,2.53,2.4822,2.4777,2.547,2.5002,2.4785,2.5005,2.4487,2.4229,2.4297,2.4307,2.4307,2.4297,2.4307,2.4307,2.4297,2.4307,2.4307,2.512,2.5103,2.5094,2.5103,2.4649,2.3836,2.2489,2.1162,0.0,1.7463,1.5934,1.4767,1.4023,1.5136,1.6606,1.8024,2.0133,2.2199,2.3905,2.418,2.42,2.4199,2.4063,2.3856,2.3531,2.3396,2.3275,2.3135,2.3264,2.3396,2.3498,2.4045,2.4657,2.5308,2.4694,2.5331,2.7413,2.7551,2.8592,3.0509,3.0509,3.0851,3.1481,3.1346,3.0753,2.9912,3.1021,3.1366,3.1161,3.1161,3.0353,2.9201,3.019,3.0277,2.9973,3.0965,3.1406,3.1319,3.0031,2.9514,2.9308,2.8655,2.7141,2.5558,2.5319,2.4477,2.3595,2.3595,2.3595,2.3595,2.3595,2.3312,2.3024,2.3024,2.2683,2.2337,2.2256,2.2233,2.2107,2.16,2.1518,2.1397,2.1008,2.0946,2.0946,2.0946,2.0946,2.0971,2.107,2.2351,2.3408,2.3774,2.3794,2.3819,2.3939,2.3936,2.3954,2.3983,2.4081,2.4106,2.4053,2.4143,2.4213,2.4208,2.4266,2.4276,2.4208,2.4276,2.4266,2.4218,2.4276,2.4266,2.4842,2.4872,2.4995,2.4995,2.4454,2.3361,2.1276,0.0,0.0,1.5495,1.42,1.3399,1.3047,1.427,1.567,1.6737,1.8619,2.0591,2.2485,2.278,2.3062,2.3752,2.3692,2.3512,2.3301,2.3223,2.3135,2.3015,2.3056,2.3303,2.3791,2.4158,2.4253,2.4033,2.4004,2.4749,2.634,2.6326,2.7431,2.9628,2.9334,2.9606,3.0343,2.9892,2.9661,2.9603,2.9738,3.0029,3.0389,2.9934,2.9187,2.8376,2.8751,2.9049,2.9297,2.969,2.9809,2.9706,2.9094,2.8411,2.7808,2.7533,2.6763,2.5788,2.5076,2.4423,2.3844,2.3525,2.3436,2.3403,2.319,2.2953,2.2728,2.2535,2.2095,2.1744,2.1744,2.1541,2.1299,2.1082,2.1033,2.096,2.0736,2.0699,2.0699,2.0699,2.0699,2.0786,2.102,2.1672,2.2214,2.2432,2.2669,2.2928,2.3212,2.329,2.3399,2.3584,2.3717,2.3674,2.3447,2.3797,2.3882,2.3685,2.3988,2.413,2.4103,2.413,2.413,2.4103,2.413,2.413,2.4563,2.4701,2.4906,2.4976,2.4295,2.294,2.0375,1.8545,1.664,1.4042,1.2973,1.2505,1.2505,1.3606,1.4806,0.0,1.723,1.9045,2.1137,2.1561,2.2113,2.3352,2.333,2.319,2.3105,2.3071,2.3015,2.2914,2.2927,2.3273,2.4063,2.3931,2.3493,2.2762,2.3077,2.3801,2.4965,2.498,2.6128,2.8381,2.8069,2.8267,2.8847,2.841,2.8491,2.898,2.8545,2.8808,2.9462,2.883,2.8363,2.7974,2.7439,2.7872,2.8757,2.8526,2.8421,2.8334,2.8009,2.7305,2.6462,2.6027,2.5959,2.5791,2.4595,2.4148,2.3908,2.3317,2.3059,2.2875,2.2566,2.2406,2.2247,2.186,2.1492,2.1253,2.1253,2.096,2.0699,2.0699,2.0699,2.0699,2.0699,2.0699,2.0699,2.0699,2.0699,2.0823,2.1204,2.1253,2.1253,2.1253,2.1754,2.2267,2.2683,2.2728,2.2886,2.3253,2.3275,2.3154,2.2901,2.3268,2.333,2.3017,2.3454,2.3728,2.383,2.3841,2.3895,2.3975,2.4008,2.4008,2.4338,2.4518,2.462,2.4916,2.3798,2.2131,2.0224,0.0,1.5794,1.3892,1.2973,1.2505,1.2505,1.3109,1.4065,0.0,0.0,1.8223,2.0549,2.125,2.1928,2.301,2.3012,2.2978,2.3082,2.2992,2.2914,2.2888,2.3013,2.3378,2.4054,2.3184,2.2921,2.3484,2.2851,2.2857,2.3586,2.341,2.4356,2.6368,2.6815,2.7184,2.7508,2.8483,2.8581,2.8061,2.8669,2.8807,2.8636,2.8728,2.8401,2.7878,2.8403,2.8403,2.8152,2.8741,2.8935,2.8689,2.6927,2.659,2.665,2.4892,2.4792,2.5261,2.4598,2.4005,2.3433,2.2827,2.2273,2.184,2.1805,2.1488,2.1066,2.0736,2.0699,2.0761,2.0761,2.0724,2.0699,2.0699,2.0699,2.0699,2.0699,2.0699,2.0699,2.0699,2.0699,2.0711,2.0761,2.0761,2.0761,2.0761,2.1563,2.2116,2.2163,2.2163,2.2186,2.2233,2.2244,2.2221,2.2186,2.2348,2.2417,2.2383,2.2558,2.2853,2.3269,2.3324,2.355,2.3908,2.4027,2.4027,2.3162,2.3741,2.4276,2.462,2.3563,2.1863,1.9641,1.7731,1.5778,1.3388,1.2683,1.2459,1.2343,1.2633,1.332,0.0,0.0,0.0,1.8699,1.9319,2.0099,2.1657,2.2156,2.2527,2.2938,2.2936,2.2775,2.2497,2.2231,2.2329,2.292,2.2587,2.2199,2.1813,2.1471,2.1616,2.2248,2.2487,2.3353,2.4841,2.5374,2.5922,2.6472,2.6791,2.7046,2.719,2.7396,2.7417,2.73,2.738,2.7259,2.7036,2.731,2.7293,2.7145,2.7501,2.7121,2.637,2.5721,2.5127,2.4513,2.3759,2.3991,2.453,2.4245,2.3775,2.3186,2.2535,2.1952,2.1464,2.1222,2.0931,2.0661,2.0537,2.0599,2.0699,2.0699,2.0699,2.0699,2.0699,2.0699,2.0699,2.0699,2.0699,2.0699,2.0699,2.0699,2.0699,2.0699,2.0699,2.0699,2.0699,2.1019,2.136,2.1648,2.1684,2.1801,2.2081,2.2105,2.2146,2.2219,2.2546,2.2738,2.2782,2.3156,2.3428,2.3631,2.3655,2.3741,2.3903,2.3953,2.3953,2.1779,2.2589,2.3354,2.3803,2.273,2.1015,1.8895,1.7194,1.5386,1.2994,1.2505,1.2439,1.2241,1.2323,1.2827,0.0,0.0,1.506,1.7776,1.8331,1.9101,2.0799,2.1583,2.2178,2.2591,2.2798,2.2635,2.2004,2.16,2.1494,2.1742,2.1622,2.1334,2.0846,2.0689,2.0888,2.1495,2.187,2.2636,2.3738,2.429,2.4847,2.5342,2.5526,2.5879,2.6371,2.6269,2.6336,2.6461,2.6147,2.6097,2.6223,2.6055,2.608,2.624,2.616,2.5673,2.5008,2.4842,2.4164,2.3349,2.3158,2.3424,2.3805,2.3748,2.3484,2.3031,2.222,2.1477,2.0869,2.0635,2.0485,2.0436,2.0486,2.0599,2.0699,2.0699,2.0699,2.0699,2.0699,2.0699,2.0699,2.0699,2.0699,2.0699,2.0699,2.0699,2.0699,2.0699,2.0699,2.0699,2.0699,2.0844,2.1061,2.1398,2.1597,2.184,2.217,2.2194,2.2226,2.2319,2.2651,2.2842,2.2897,2.3265,2.353,2.3695,2.3695,2.3774,2.393,2.393,2.402,2.0299,2.1059,2.1694,2.2345,2.1066,1.9295,1.7998,1.621,1.4385,1.2817,1.2505,1.2439,1.2241,1.2195,1.2654,1.4068,1.4455,0.0,1.8383,1.8965,1.9566,2.0853,2.1583,2.1989,2.2004,2.2548,2.2497,2.1477,2.1393,2.1196,2.0747,2.0151,2.0309,2.1355,2.0885,2.0888,2.1495,2.1507,2.2046,2.312,2.3712,2.4004,2.4054,2.5125,2.5598,2.5598,2.5598,2.5954,2.6411,2.5285,2.513,2.5548,2.5017,2.513,2.5548,2.5005,2.5143,2.5435,2.4381,2.4004,2.3891,2.3296,2.3108,2.3108,2.311,2.3151,2.2957,2.1829,2.0691,1.9849,1.9965,2.0118,2.0245,2.0448,2.0599,2.0699,2.0699,2.0699,2.0699,2.0699,2.0699,2.0699,2.0699,2.0699,2.0699,2.0699,2.0699,2.0699,2.0699,2.0699,2.0699,2.0699,2.1171,2.1485,2.1498,2.2047,2.2388,2.2402,2.2402,2.2402,2.2402,2.2402,2.2415,2.2415,2.2415,2.2676,2.321,2.321,2.3477,2.4001,2.4001,2.4312,1.7856,1.8673,1.9394,1.9421,1.8928,1.8021,1.6475,1.5615,1.4634,1.2874,1.2505,1.2409,1.2122,1.2138,1.2855,1.4853,1.5193,1.6017,1.828,1.9277,1.9928,2.0335,2.1703,2.262,2.262,2.25,2.2147,2.1453,2.1066,2.0807,2.072,2.0125,2.014,2.0894,2.0754,2.0764,2.0943,2.2046,2.2583,2.2571,2.354,2.4004,2.4004,2.4356,2.4908,2.5598,2.5598,2.5716,2.5891,2.5942,2.5598,2.5067,2.5272,2.5234,2.503,2.4867,2.4678,2.4456,2.4117,2.3725,2.3346,2.3158,2.3108,2.3108,2.3108,2.2854,2.2353,2.1262,2.0402,1.9811,1.9849,1.9965,2.008,2.0144,2.0258,2.0398,2.0537,2.0562,2.0587,2.0687,2.0699,2.0699,2.0699,2.0699,2.0699,2.0699,2.0699,2.0699,2.0699,2.0699,2.0699,2.0699,2.1551,2.1943,2.1538,2.2048,2.2401,2.2402,2.2402,2.2571,2.2923,2.2949,2.3145,2.355,2.3563,2.3655,2.3823,2.3823,2.3897,2.4069,2.4069,2.417,1.5903,1.6649,1.7314,1.7319,1.6985,1.6359,1.524,1.4686,1.4006,1.2666,1.2449,1.2394,1.206,1.2075,1.2734,1.458,1.4984,1.5852,1.817,1.9201,1.9986,2.0727,2.1672,2.2351,2.2609,2.2194,2.1684,2.1138,2.0783,2.063,2.0706,2.0125,2.0088,2.0679,2.0478,2.0578,2.0993,2.1995,2.2533,2.2621,2.3323,2.3775,2.4004,2.4217,2.4782,2.5598,2.5598,2.5741,0.0,2.5653,2.5247,2.4791,2.4691,2.4591,2.4465,2.4236,2.4089,2.3966,2.3738,2.3409,2.3108,2.3108,2.3108,2.3108,2.3108,2.2734,2.2157,2.1495,2.0741,2.0151,2.0203,2.0103,2.0016,2.0067,2.0144,2.0233,2.036,2.0398,2.041,2.0498,2.0511,2.0511,2.0511,2.0561,2.0624,2.0624,2.0674,2.0699,2.0699,2.0699,2.0778,2.0975,2.1838,2.2336,2.2151,2.2688,2.3028,2.3028,2.3028,2.3198,2.3523,2.3549,2.3719,2.4098,2.4098,2.4098,2.4098,2.4098,2.4098,2.4098,2.4098,2.4098,0.0,1.4966,1.543,1.581,1.5187,1.442,1.4181,1.3499,0.0,1.2303,1.2348,1.241,1.2176,1.2092,1.2475,1.3812,1.4334,1.5534,1.8283,1.9046,1.9986,2.1844,2.1592,2.1524,2.214,2.167,2.1138,2.0647,2.056,2.0579,2.063,2.01,2.0062,2.0616,2.0138,2.0388,2.1495,2.1583,2.2106,2.3108,2.3108,2.3424,2.4017,2.4515,2.503,2.5536,2.5536,2.5841,2.6197,2.4648,2.4264,2.4578,2.3509,2.3449,2.3866,2.3308,2.3461,2.3866,2.3296,2.3108,2.3108,2.3108,2.3108,2.3108,2.3108,2.2734,2.2282,2.2245,2.1493,2.0717,2.08,2.0408,2.0016,2.0144,2.0169,2.0169,2.0182,2.0195,2.0195,2.0207,2.0207,2.0207,2.0207,2.036,2.0499,2.0499,2.0612,2.0699,2.0699,2.0699,2.0909,2.1433,2.2034,2.2624,2.3144,2.3758,2.4098,2.4098,2.4098,2.4098,2.4098,2.4098,2.4098,2.4098,2.4098,2.4098,2.4098,2.4098,2.4098,2.4098,2.4098,2.4098,1.2743,0.0,1.3626,1.3107,1.3143,1.3175,0.0,1.2725,1.2763,1.2303,0.0,1.2514,1.3306,1.2947,1.3558,1.6645,1.7219,1.8016,2.0123,2.0942,2.167,2.2577,2.2258,2.2027,2.2182,2.1348,2.0747,2.061,2.022,1.999,2.0012,1.9874,1.9861,2.0012,2.0314,2.0804,2.1495,2.2307,2.2844,2.3108,2.3108,2.3424,2.4004,2.413,2.4494,2.4992,2.4992,2.4845,2.4572,2.4155,2.38,2.3471,2.3208,2.3195,2.3296,2.3158,2.3195,2.3283,2.3145,2.3108,2.3108,2.3108,2.3108,2.3108,2.3108,2.2734,2.2207,2.1794,2.1212,2.0595,2.0163,1.995,1.9849,1.9888,1.9888,1.9914,2.0016,2.0054,2.008,2.0182,2.0207,2.0207,2.0207,2.036,2.0499,2.0499,2.0612,2.0699,2.0699,2.0699,2.0909,2.1433,2.2034,2.2624,2.3144,2.3758,2.4098,2.4098,2.4098,2.4098,2.4098,2.4098,2.4098,2.4098,2.4098,2.4098,2.4098,2.4098,2.4098,2.4098,2.4098,2.4098,1.2143,1.2806,1.3447,1.3125,1.32,1.3289,1.3022,0.0,0.0,0.0,0.0,1.2446,1.3291,1.3253,1.3993,1.6715,1.7739,1.897,2.1148,2.2008,2.2533,2.287,2.2275,2.1839,2.1839,2.0857,2.0232,2.0232,1.9965,1.9798,1.9798,1.9798,1.9798,1.9798,2.0628,2.1219,2.1507,2.232,2.2857,2.3108,2.3108,2.3424,2.4004,2.4004,2.429,2.4804,2.4804,2.4641,2.4356,2.4104,2.3816,2.3487,2.3208,2.3108,2.3108,2.3108,2.3108,2.3108,2.3108,2.3108,2.3108,2.3108,2.3108,2.3108,2.3108,2.2895,2.2566,2.2021,2.1489,2.0945,2.0364,2.0007,1.9798,1.9798,1.9798,1.9824,1.9888,1.9913,1.9927,2.0003,2.0016,2.0016,2.0016,2.0156,2.0361,2.0643,2.0798,2.0901,2.0965,2.0926,2.1108,2.1719,2.2016,2.2508,2.3321,2.3683,2.3936,2.4083,2.4098,2.4098,2.4098,2.4098,2.4098,2.4098,2.4098,2.4098,2.4098,2.4098,2.4098,2.4098,2.4098,2.4098,1.2335,1.3201,1.4144,1.4116,1.409,1.4063,1.4041,0.0,0.0,0.0,0.0,0.0,1.3364,1.3757,1.452,1.6266,1.7793,1.958,2.1815,2.2577,2.2865,2.2797,2.1966,2.1369,2.1284,2.0384,1.9785,1.976,1.976,1.976,1.976,1.976,1.9823,1.9924,2.0954,2.1545,2.162,2.2144,2.2644,2.3108,2.3108,2.3424,2.4004,2.4004,2.4255,2.4678,2.4678,2.4628,2.4503,2.3966,2.374,2.369,2.3098,2.2907,2.2982,2.2982,2.3032,2.3108,2.3108,2.3108,2.3108,2.3108,2.3108,2.3108,2.3108,2.3108,2.2982,2.2455,2.1981,2.1469,2.0748,2.0241,1.9913,1.9824,1.9798,1.9798,1.9798,1.9798,1.9798,1.9798,1.9798,1.9798,1.9798,1.9989,2.0307,2.0827,2.1087,2.1259,2.1378,2.1285,2.1477,2.2138,2.2108,2.2462,2.3496,2.3599,2.3732,2.4052,2.4068,2.4068,2.4098,2.4098,2.4098,2.4098,2.4098,2.4098,2.4098,2.4098,2.4098,2.4098,2.4098,2.4083,1.3414,1.4412,1.4919,1.3537,1.4016,1.4637,1.3916,0.0,0.0,0.0,0.0,0.0,0.0,1.5835,1.6399,1.9026,2.0561,2.1732,2.2624,2.2841,2.2752,2.2347,2.1766,2.1211,2.0758,2.0169,1.9759,1.963,1.963,1.963,1.963,1.963,1.9919,2.0541,2.1168,2.1721,2.2169,2.2706,2.302,2.3108,2.3108,2.3424,2.4004,2.4004,2.4042,2.4117,2.4117,2.3825,2.3321,2.2784,2.2558,2.2523,2.1958,2.202,2.242,2.242,2.2706,2.3108,2.3108,2.3108,2.3108,2.3108,2.3108,2.3108,2.3108,2.3108,2.2982,2.2455,2.2235,2.1831,2.033,2.0244,2.0425,1.9913,1.9798,1.9798,1.9798,1.9798,1.9798,1.9798,1.9798,1.9798,1.9798,2.033,2.0789,2.0891,2.1405,2.178,2.1808,2.1794,2.2012,2.2632,2.2669,2.2911,2.3549,2.3599,2.3688,2.392,2.3935,2.3979,2.4098,2.4098,2.4098,2.4098,2.4098,2.4098,2.4098,2.4098,2.4098,2.4098,2.4098,2.4052,1.2802,1.3916,1.4873,1.4282,1.5131,1.6083,1.5861,1.5351,0.0,0.0,0.0,0.0,0.0,1.6915,1.8018,2.0702,2.1805,2.2454,2.2848,2.2888,2.2729,2.2266,2.173,2.1187,2.0647,2.0118,1.9746,1.9617,1.9669,1.9682,1.9604,1.9669,1.9859,2.0201,2.0779,2.1319,2.1857,2.2395,2.2807,2.3108,2.3108,2.3424,2.3991,2.365,2.3687,2.3979,2.365,2.3361,2.3083,2.2832,2.2732,2.2684,2.2146,2.2069,2.2295,2.2295,2.2646,2.3108,2.3108,2.3108,2.3108,2.3108,2.3108,2.3053,2.276,2.2872,2.2927,2.2097,2.2081,2.2061,2.0981,2.0715,2.063,2.0361,2.0041,1.9798,1.9798,1.9798,1.9798,1.9798,1.9798,1.9798,1.9798,2.0346,2.0894,2.1188,2.1731,2.2151,2.2204,2.2173,2.2247,2.2601,2.2569,2.2752,2.3282,2.3333,2.3495,2.3876,2.3964,2.4052,2.4098,2.4098,2.4098,2.4098,2.4098,2.4067,2.3993,2.3993,2.3949,2.3833,2.3833,2.3804,1.2452,1.3401,1.4518,1.4985,0.0,1.6954,1.7695,1.6956,0.0,0.0,0.0,0.0,1.7129,1.821,1.9662,2.1708,2.2401,2.2718,2.2877,2.2809,2.2555,2.2077,2.1539,2.0979,2.0422,1.9991,1.9682,1.9512,1.9604,1.963,1.9565,1.9643,1.9809,1.9999,2.0465,2.1018,2.1681,2.2096,2.2571,2.3108,2.3108,2.3333,2.3763,2.3308,2.3346,2.375,2.3296,2.3108,2.3108,2.3108,2.3032,2.2857,2.232,2.2106,2.2146,2.2395,2.2744,2.3108,2.3108,2.3108,2.3108,2.3108,2.3108,2.2997,2.2455,2.2593,2.2732,2.1854,2.192,2.2117,2.1628,2.129,2.1037,2.0914,2.045,2.0002,2.0002,1.99,1.9798,1.9798,1.9798,1.9798,1.9798,2.0399,2.1027,2.1437,2.2051,2.2511,2.2631,2.2556,2.2527,2.2629,2.2556,2.2644,2.307,2.3138,2.3345,2.3758,2.3907,2.3995,2.4052,2.401,2.398,2.398,2.398,2.3936,2.3832,2.3832,2.3745,2.3599,2.3599,2.3584,1.3529,1.3808,1.4051,1.4884,1.5448,0.0,1.8192,1.783,0.0,1.8361,0.0,1.8902,1.9376,2.0508,2.1546,2.2106,2.2586,2.2877,2.2888,2.252,2.2053,2.1513,2.098,2.0397,1.9734,1.9642,1.9512,1.9249,1.9236,1.9288,1.9407,1.942,1.9799,2.0616,2.068,2.1207,2.2232,2.2282,2.2571,2.3108,2.3108,2.3118,2.3158,2.312,2.3118,2.3158,2.312,2.3108,2.3108,2.3108,2.2807,2.2307,2.1771,2.1557,2.1683,2.2684,2.307,2.3108,2.3108,2.3108,2.3108,2.3108,2.3108,2.2997,2.2455,2.2327,2.2299,2.2053,2.1987,2.1941,2.1593,2.1837,2.2058,2.1563,2.103,2.0643,2.0643,2.0194,1.9798,1.9798,1.9798,1.9798,1.9798,2.072,2.1459,2.1489,2.2383,2.306,2.306,2.3045,2.3045,2.306,2.3045,2.3058,2.3108,2.3271,2.3403,2.3433,2.3554,2.373,2.3905,2.3745,2.3643,2.3643,2.3643,2.3628,2.3613,2.3613,2.3613,2.3599,2.3599,2.3524,1.2538,1.3208,1.4066,1.4943,1.5674,0.0,0.0,1.8542,1.9047,1.9824,2.002,2.018,2.056,2.1167,2.1796,2.2352,2.2394,2.2463,2.2843,2.2147,2.1539,2.1405,2.0845,2.0258,1.9668,1.9512,1.9394,1.9221,1.9275,1.9315,1.9275,1.9433,1.9677,2.0006,2.0111,2.0515,2.1294,2.1645,2.2071,2.2608,2.2945,2.3108,2.3108,2.3108,2.3108,2.3108,2.3108,2.3047,2.2984,2.3078,2.2922,2.2625,2.2178,2.1995,2.2046,2.2458,2.2807,2.3108,2.3108,2.3108,2.3108,2.3108,2.3108,2.2982,2.2303,2.244,2.2494,2.1038,2.1623,2.265,2.2525,2.265,2.2742,2.2544,2.199,2.1266,2.0344,2.0258,2.0361,2.0361,2.0361,2.0361,2.0361,2.1276,2.189,2.1553,2.2417,2.3108,2.3108,2.3108,2.3108,2.3108,2.3108,2.3108,2.3108,2.3168,2.3213,2.3213,2.3465,2.3628,2.3715,2.3643,2.3599,2.3599,2.3599,2.3554,2.348,2.348,2.3405,2.3288,2.3288,2.3258,1.1764,1.2654,1.3871,0.0,0.0,0.0,1.7828,1.8955,2.001,2.0864,2.0989,2.1027,2.1332,2.1609,2.1931,2.2406,2.2208,2.2114,2.244,2.1599,2.098,2.1079,2.0535,1.9991,1.9578,1.942,1.9288,1.9157,1.921,1.9263,1.9262,1.9447,1.9578,1.9656,1.9759,2.0088,2.0679,2.1055,2.152,2.2058,2.242,2.2769,2.3108,2.3108,2.3108,2.3108,2.3063,2.2984,2.2894,2.2954,2.2809,2.2548,2.2513,2.2385,2.2262,2.2481,2.2684,2.2844,2.2844,2.2735,2.2595,2.2595,2.2677,2.2622,2.1877,2.2091,2.2201,2.0335,2.0886,2.2221,2.2927,2.3108,2.3108,2.3108,2.2705,2.2009,2.0755,2.0598,2.0643,2.045,2.0415,2.0421,2.0421,2.1328,2.1928,2.1561,2.24,2.3108,2.3108,2.3108,2.3108,2.3108,2.3108,2.3108,2.3108,2.3108,2.3108,2.3108,2.3318,2.348,2.3539,2.348,2.3437,2.3437,2.3437,2.3405,2.33,2.33,2.3241,2.3108,2.3108,2.3108,1.1563,1.2285,1.3365,0.0,0.0,0.0,1.7947,1.8997,2.0114,2.1514,2.1592,2.1484,2.1746,2.2032,2.2208,2.2196,2.2091,2.1888,2.164,2.0908,2.0397,2.0397,1.9914,1.9539,1.9407,1.9275,1.9143,1.9012,1.9,1.9131,1.9381,1.9394,1.9512,1.9785,1.9798,2.0088,2.0692,2.0705,2.0968,2.1495,2.1507,2.2071,2.3095,2.3095,2.3095,2.3093,2.2969,2.2894,2.2878,2.2754,2.2358,2.1888,2.261,2.2573,2.2193,2.2847,2.2757,2.2295,2.2295,2.196,2.1494,2.1494,2.1729,2.1852,2.1125,2.1194,2.1276,2.0155,1.9829,2.0329,2.2525,2.3108,2.3108,2.3108,2.3108,2.29,2.2179,2.1313,2.054,1.9913,1.9815,1.9817,1.9817,2.0764,2.1519,2.1492,2.24,2.3108,2.3108,2.3108,2.3108,2.3108,2.3108,2.3108,2.3108,2.3108,2.3108,2.3108,2.3108,2.3183,2.3388,2.321,2.3108,2.3108,2.3108,2.3108,2.3108,2.3108,2.3108,2.3108,2.3108,2.3108,1.1958,1.3083,0.0,1.519,0.0,0.0,0.0,2.0186,0.0,0.0,2.1734,2.1712,2.1781,2.2032,2.2114,2.1817,2.1348,2.1055,2.1165,2.0245,1.9733,2.0194,1.9695,1.9302,1.9262,1.9143,1.9039,1.9,1.9,1.9078,1.9249,1.9342,1.9473,1.9643,1.9759,1.9886,2.0075,2.049,2.0779,2.0943,2.1222,2.177,2.2546,2.2546,2.2685,2.2969,2.2924,2.2772,2.2558,2.2512,2.2473,2.2459,2.2786,2.2794,2.27,2.2985,2.2757,2.2295,2.2295,2.1954,2.1497,2.1497,2.1736,2.191,2.146,2.193,2.255,2.2218,2.2127,2.2276,2.2927,2.3108,2.3108,2.3108,2.3108,2.3037,2.283,2.1981,2.0965,2.0002,2.0222,2.0659,2.0947,2.1891,2.2365,2.1615,2.24,2.3108,2.3108,2.3108,2.3108,2.3108,2.3108,2.3108,2.3108,2.3108,2.3108,2.3108,2.3108,2.3138,2.3183,2.3138,2.3108,2.3108,2.3108,2.3108,2.3108,2.3108,2.3108,2.3108,2.3108,2.3108,1.2516,1.3767,0.0,1.6504,1.8096,1.9618,2.0624,2.0975,2.1201,2.157,2.1722,2.1793,2.1793,2.2032,2.203,2.1516,2.0969,2.056,2.0459,1.9733,1.9342,1.9759,1.946,1.9208,1.9208,1.9078,1.9,1.9,1.9052,1.9143,1.9275,1.9407,1.9512,1.9604,1.9734,1.9759,1.963,2.0057,2.0245,2.0192,2.0434,2.0867,2.1485,2.1933,2.2275,2.2521,2.2628,2.2558,2.2325,2.2325,2.2386,2.2509,2.265,2.2696,2.2726,2.2942,2.2557,2.1911,2.1954,2.1439,2.0745,2.0814,2.0948,2.1095,2.0888,2.189,2.3096,2.3105,2.3108,2.3108,2.3108,2.3108,2.3108,2.3108,2.3108,2.3108,2.3108,2.2262,2.1159,2.0028,2.0156,2.068,2.1387,2.2045,2.2237,2.1599,2.24,2.3108,2.3108,2.3108,2.3108,2.3108,2.3108,2.3108,2.3108,2.3108,2.3108,2.3108,2.3108,2.3108,2.3108,2.3108,2.3108,2.3108,2.3108,2.3108,2.3108,2.3108,2.3108,2.3108,2.3108,2.3108,1.3109,1.4289,1.5665,1.7522,1.8513,1.9451,2.1045,2.1399,2.1399,2.1399,2.1616,2.1793,2.1793,2.1973,2.1898,2.1249,2.0783,2.0283,1.963,1.9341,1.917,1.917,1.917,1.917,1.917,1.9065,1.9,1.9,1.9105,1.9236,1.9368,1.9499,1.9578,1.9578,1.9695,1.9643,1.9394,1.9512,1.9512,1.9394,1.9394,1.9639,2.0154,2.124,2.1795,2.1888,2.222,2.2309,2.2197,2.2197,2.2197,2.2213,2.2343,2.2405,2.2436,2.2757,2.2236,2.1357,2.1422,2.0682,1.9705,1.9759,1.9798,1.981,1.981,2.1352,2.3108,2.3108,2.3108,2.3108,2.3108,2.3108,2.3108,2.3108,2.3108,2.3108,2.3108,2.2181,2.1043,2.0002,1.9798,2.019,2.1429,2.1656,2.1656,2.1656,2.2483,2.3108,2.3108,2.3108,2.3108,2.3108,2.3108,2.3108,2.3108,2.3108,2.3108,2.3108,2.3108,2.3108,2.3108,2.3108,2.3108,2.3108,2.3108,2.3108,2.3108,2.3108,2.3108,2.3108,2.3108,2.3108,1.3122,1.4361,0.0,1.8055,1.9725,2.0936,2.1304,2.1399,2.1399,2.1399,2.1616,2.1793,2.1793,2.1589,2.1261,2.0795,2.0207,1.9656,1.9185,1.908,1.9039,1.9039,1.9039,1.9039,1.9039,1.9025,1.9,1.9,1.9025,1.9105,1.9236,1.9275,1.9341,1.9447,1.9473,1.946,1.9394,1.9433,1.9433,1.9394,1.9288,1.9297,1.943,2.0212,2.097,2.1684,2.2079,2.2232,2.2197,2.2197,2.2197,2.2213,2.2343,2.2405,2.2436,2.2662,2.2292,2.1637,2.1235,2.0784,2.0296,1.9794,1.9713,1.9799,1.9799,2.1352,2.3108,2.3108,2.3108,2.3108,2.3108,2.3108,2.3108,2.3108,2.3108,2.3108,2.3108,2.1553,2.0092,1.9849,1.9798,2.0423,2.2417,2.276,2.276,2.276,2.2955,2.3108,2.3108,2.3108,2.3108,2.3108,2.3108,2.3108,2.3108,2.3108,2.3108,2.3108,2.3108,2.3108,2.3108,2.3108,2.3108,2.3108,2.3108,2.3108,2.3108,2.3108,2.3108,2.3108,2.3108,2.3108,1.2937,0.0,0.0,1.8565,0.0,2.1399,2.1399,2.1399,2.135,2.1154,2.1482,2.1638,2.113,2.1115,2.0968,2.0232,1.9837,1.946,1.9053,1.9,1.9,1.9,1.9,1.9,1.9,1.9,1.9,1.9,1.9065,1.913,1.9208,1.9262,1.9302,1.9302,1.9368,1.9342,1.921,1.9263,1.9263,1.921,1.9144,1.9092,1.9116,1.973,2.0421,2.1146,2.1614,2.1813,2.1837,2.2089,2.2197,2.2213,2.2278,2.2309,2.2325,2.2494,2.2186,2.1672,2.1464,2.0975,2.0346,1.9711,1.9466,1.9617,2.0639,2.1751,2.2726,2.3017,2.3108,2.3108,2.3108,2.3108,2.3108,2.3108,2.3108,2.3108,2.3108,2.2192,2.1065,2.0012,1.9798,2.0501,2.2719,2.3108,2.3108,2.3108,2.3108,2.3108,2.3108,2.3108,2.3108,2.3108,2.3108,2.3108,2.3108,2.3108,2.3108,2.3108,2.3108,2.3108,2.3108,2.3108,2.3108,2.3108,2.3108,2.3108,2.3108,2.3108,2.3108,2.3108,2.3108,2.3108,1.2367,0.0,1.6046,1.8967,2.0475,2.1239,2.1299,2.1302,2.1166,2.0697,2.1141,2.1323,2.0372,2.061,2.0621,1.9746,1.9539,1.9382,1.904,1.9,1.9,1.9,1.9,1.9,1.9,1.9,1.9,1.9,1.9092,1.917,1.917,1.9263,1.9276,1.917,1.9263,1.9211,1.9,1.9105,1.9117,1.9,1.9,1.9,1.9024,1.9457,1.9951,2.0488,2.1031,2.132,2.144,2.1873,2.2113,2.2197,2.2197,2.2197,2.2213,2.2325,2.208,2.1695,2.1667,2.1216,2.0477,1.9608,1.9172,1.9409,2.1548,2.2197,2.2294,2.279,2.2942,2.2972,2.3078,2.3108,2.3108,2.3108,2.3108,2.3108,2.3108,2.3108,2.2556,2.0726,2.0363,2.0952,2.2782,2.3108,2.3108,2.3108,2.3108,2.3108,2.3108,2.3108,2.3108,2.3108,2.3108,2.3108,2.3108,2.3108,2.3108,2.3108,2.3108,2.3108,2.3108,2.3108,2.3108,2.3108,2.3108,2.3108,2.3108,2.3078,2.3078,2.3063,2.3032,2.3032,1.0877,0.0,1.657,0.0,2.0163,2.0668,2.0837,2.0883,2.0672,1.9927,2.0397,2.0784,2.0283,1.9991,1.9772,1.9617,1.9316,1.9053,1.9013,1.9,1.9,1.9,1.9,1.9,1.9,1.9,1.9,1.9,1.9025,1.9025,1.9025,1.904,1.9052,1.9025,1.904,1.904,1.9,1.9025,1.9025,1.9,1.9,1.9,1.9,1.9072,1.9397,1.9939,2.0464,2.0968,2.1416,2.1488,2.1777,2.2197,2.2197,2.2197,2.2197,2.2216,2.218,2.2024,2.1415,2.1509,2.1629,1.9679,1.9027,1.9409,2.1548,2.2197,2.2228,2.2294,2.2325,2.2448,2.2957,2.3108,2.3108,2.3108,2.3108,2.3108,2.3108,2.3108,2.3007,2.2719,2.2656,2.2757,2.3058,2.3108,2.3108,2.3108,2.3108,2.3108,2.3108,2.3108,2.3108,2.3108,2.3108,2.3108,2.3108,2.3108,2.3108,2.3108,2.3108,2.3108,2.3108,2.3108,2.3108,2.3108,2.3108,2.3108,2.3108,2.2984,2.2924,2.2924,2.2815,2.2754,1.1613,1.4116,1.655,0.0,1.9533,2.0136,2.0049,2.0251,2.0309,1.9721,1.9888,1.9991,1.9591,1.9578,1.9539,1.9303,1.9119,1.9,1.9,1.9,1.9,1.9,1.9,1.9,1.9,1.9,1.9,1.9,1.9,1.9,1.9,1.9,1.9,1.9,1.9,1.8841,1.8496,1.8829,1.9,1.9,1.9,1.9,1.9,1.9,1.9132,1.9385,1.9927,2.03,2.0552,2.1151,2.1536,2.1777,2.2077,2.2197,2.2197,2.2197,2.2197,2.2149,2.1825,2.1936,2.2041,2.1106,2.0791,2.0974,2.1909,2.2197,2.1945,2.0757,2.126,2.2247,2.2528,2.2848,2.3108,2.3108,2.2142,2.1253,2.1253,2.2217,2.3108,2.3108,2.3108,2.3108,2.3108,2.3108,2.3108,2.3108,2.3108,2.3108,2.3108,2.3108,2.3108,2.3108,2.3108,2.3108,2.3108,2.3108,2.3108,2.3108,2.3108,2.3108,2.3108,2.2969,2.2881,2.2929,2.3035,2.3108,2.3108,2.3032,2.2969,2.2894,2.2845,2.2769,0.0,0.0,1.5231,1.7325,1.8447,1.9048,1.9041,1.9456,1.9724,1.9328,1.9349,1.9369,1.9053,1.9251,1.9356,1.904,1.9,1.9,1.9,1.9,1.9,1.9,1.9,1.9,1.9,1.9,1.9,1.9,1.9,1.9,1.9,1.9,1.9,1.9,1.9,1.8776,1.8323,1.8776,1.9,1.9,1.9,1.9,1.9,1.9,1.9,1.9024,1.9421,1.9662,1.9854,2.0658,2.1151,2.144,2.1837,2.2077,2.2197,2.2197,2.2197,2.2197,2.2197,2.2197,2.2117,2.156,2.1395,2.1395,2.1395,2.1765,2.1876,2.0249,2.0974,2.2197,2.2197,2.2528,2.2771,2.2355,2.1425,2.0639,2.0639,2.1943,2.3108,2.3108,2.3108,2.3108,2.3108,2.3108,2.3108,2.3108,2.3108,2.3108,2.3108,2.3108,2.3108,2.3108,2.3108,2.3108,2.3108,2.3108,2.3108,2.3108,2.3108,2.3032,2.2881,2.2769,2.2711,2.272,2.2911,2.3017,2.3047,2.3002,2.2954,2.2848,2.2757,2.2678,0.0,1.1336,0.0,1.5643,1.6639,1.6917,1.7864,1.8497,1.8759,1.8356,1.8677,1.9013,1.9,1.9025,1.9013,1.9,1.9,1.9,1.9,1.9,1.9,1.9,1.9,1.9,1.9,1.9,1.9,1.9,1.9,1.9,1.9,1.9,1.9,1.9,1.9,1.8974,1.8947,1.8974,1.9,1.9,1.9,1.9,1.9,1.9,1.9,1.9,1.9036,1.9325,1.9794,1.9854,2.0478,2.1404,2.144,2.1753,2.2197,2.2197,2.2197,2.2197,2.2197,2.2197,2.1861,1.983,1.9169,1.9169,1.9169,2.0588,2.2189,2.2053,2.2101,2.2197,2.2197,2.2216,2.1858,2.0326,2.1503,2.2932,2.2932,2.302,2.3108,2.3108,2.3108,2.3108,2.3108,2.3108,2.3108,2.3108,2.3108,2.3108,2.3108,2.3108,2.3108,2.3108,2.3108,2.3108,2.3108,2.3108,2.3108,2.3108,2.3108,2.2836,2.2263,2.2552,2.2647,2.2515,2.2647,2.2784,2.2909,2.2784,2.2708,2.2705,2.2371,2.2232,0.0,0.0,0.0,1.3617,1.4972,1.5949,1.606,1.7021,1.797,1.8158,1.8221,1.8395,1.89,1.9,1.9,1.9,1.9,1.9,1.9,1.9,1.9,1.9,1.9,1.9,1.9,1.9,1.9,1.9,1.9,1.9,1.9,1.9,1.9,1.9,1.9,1.9,1.9,1.8615,1.8615,1.9,1.9,1.9,1.9,1.9,1.9,1.9,1.9,1.8883,1.8774,1.9499,1.9801,1.9868,2.06,2.1142,2.1488,2.1488,2.1789,2.2197,2.2197,2.1298,2.0023,1.9253,1.9939,2.1043,2.1043,2.1584,2.2197,2.2197,2.2197,2.2197,2.2197,2.2197,2.1795,2.0183,2.1486,2.2982,2.2607,2.283,2.3108,2.3108,2.3108,2.3108,2.3108,2.3108,2.3108,2.3108,2.3108,2.3108,2.3108,2.3108,2.3108,2.3108,2.3108,2.3108,2.3108,2.3108,2.3108,2.3108,2.2742,2.2432,2.2213,2.2321,2.2402,2.2436,2.2482,2.2589,2.2769,2.2708,2.2632,2.2497,2.2374,2.2278,0.9083,0.0,0.0,1.2342,1.3423,1.4421,1.489,1.5827,1.6751,1.7279,1.754,1.7834,1.8359,1.8458,1.8578,1.8939,1.9,1.9,1.9,1.9,1.9,1.9,1.9,1.9,1.9,1.9,1.9,1.9,1.9,1.9,1.9,1.9,1.8907,1.8695,1.8894,1.8907,1.8695,1.8496,1.859,1.9,1.9,1.9,1.9,1.9,1.9,1.9,1.9,1.8762,1.8452,1.8994,1.9104,1.8984,1.9731,2.0392,2.0923,2.0817,2.0925,2.113,2.113,2.0189,1.9,1.9,1.9961,2.113,2.113,2.113,2.1286,2.2008,2.2197,2.2197,2.2197,2.2197,2.175,1.9952,2.0783,2.2095,2.2427,2.2816,2.3108,2.3108,2.3108,2.3108,2.3108,2.3108,2.3108,2.3108,2.3108,2.3108,2.3108,2.3108,2.3108,2.3108,2.3108,2.3017,2.282,2.2802,2.2802,2.2802,2.2432,2.2197,2.2197,2.2197,2.2232,2.2328,2.2328,2.2402,2.2525,2.2571,2.2528,2.2405,2.2343,2.2294,0.0,0.0,0.0,1.1883,1.1998,1.2238,1.4395,1.4906,1.5086,1.5648,1.6595,1.7339,1.7387,1.7387,1.7736,1.877,1.8976,1.8975,1.9,1.9,1.9,1.9,1.9,1.9,1.9,1.9,1.9,1.9,1.9,1.9,1.9,1.9,1.8722,1.8147,1.8682,1.8682,1.8106,1.8682,1.8974,1.8974,1.8987,1.9,1.9,1.9,1.9,1.9,1.9,1.8987,1.8934,1.8361,1.8421,1.8884,1.8898,1.9589,2.0512,2.0189,1.9614,1.9,1.9,1.9,1.9,1.9,1.9,1.9,1.9,1.9,1.942,2.1512,2.2149,2.2197,2.2197,2.2197,2.1683,1.9588,1.9495,2.0464,2.2618,2.307,2.3078,2.3078,2.308,2.3093,2.3078,2.3078,2.3078,2.3078,2.3078,2.3078,2.3078,2.3093,2.3093,2.3078,2.3078,2.2836,2.2259,2.2197,2.2197,2.2197,2.2197,2.2197,2.2197,2.2197,2.2197,2.2197,2.2197,2.2197,2.2197,2.2328,2.2389,2.2389,2.2263,2.2197,0.8332,0.0,0.0,0.0,0.0,0.0,1.192,1.263,1.3545,1.4815,1.516,1.5668,1.7123,1.7241,1.7275,1.7771,1.8169,1.8554,1.8952,1.9,1.9,1.9,1.9,1.9,1.9,1.9,1.9,1.9,1.9,1.9,1.9,1.9,1.8921,1.8762,1.8483,1.8267,1.8093,1.8267,1.8348,1.8348,1.8789,1.9,1.9,1.9,1.9,1.9,1.9,1.8749,1.8375,1.8642,1.859,1.8354,1.88,1.9178,1.9432,1.9349,1.9181,1.9,1.9,1.9,1.9,1.9,1.9,1.9,1.9,1.9,1.9119,1.9722,2.0995,2.2197,2.2197,2.2197,2.2041,2.1467,2.142,2.1696,2.2311,2.245,2.2448,2.2448,2.2637,2.2721,2.2485,2.2448,2.2448,2.2448,2.2448,2.2448,2.2448,2.282,2.2927,2.2509,2.2448,2.2386,2.2213,2.2197,2.2197,2.2197,2.2197,2.2197,2.2197,2.2197,2.2197,2.2197,2.2197,2.2197,2.2197,2.2232,2.2263,2.2247,2.2216,2.2197,0.0,0.0,0.0,0.9958,0.0,0.0,1.1244,1.1763,1.2499,1.3681,1.4161,1.472,1.5887,1.6145,1.629,1.6667,1.7171,1.7796,1.8554,1.8675,1.8746,1.8963,1.9,1.9,1.9,1.9,1.9,1.9,1.9,1.9,1.9,1.9,1.8762,1.8255,1.8402,1.8228,1.7727,1.8215,1.8469,1.8469,1.8829,1.9,1.9,1.9,1.9,1.9,1.9,1.8802,1.8496,1.8854,1.8508,1.7781,1.8388,1.8563,1.8548,1.8881,1.9,1.9,1.9,1.9,1.9,1.9,1.9,1.9,1.9,1.9,1.9,1.9,1.9903,2.0851,2.0851,2.0851,2.0851,2.0851,2.1548,2.2197,2.2197,2.2197,2.2197,2.2197,2.2368,2.2424,2.2232,2.2197,2.2197,2.2197,2.2197,2.2197,2.2197,2.2509,2.2589,2.2244,2.2197,2.2197,2.2197,2.2197,2.2197,2.2197,2.2197,2.2197,2.2197,2.2197,2.2197,2.2197,2.2197,2.2197,2.2197,2.2197,2.2197,2.2197,2.2197,2.2197,0.0,0.0,0.0,1.121,1.0935,0.0,1.1483,1.1587,1.1726,1.2311,1.3202,1.3917,1.4035,1.4463,1.4936,1.5413,1.5975,1.6776,1.794,1.8109,1.8289,1.8771,1.8819,1.8856,1.8916,1.8916,1.894,1.9,1.9,1.8974,1.8907,1.8894,1.8388,1.7243,1.8174,1.8215,1.7216,1.8255,1.8829,1.8894,1.8974,1.9,1.9,1.9,1.9,1.9,1.9,1.896,1.8907,1.8974,1.8375,1.7451,1.7998,1.8093,1.8025,1.8735,1.9,1.9,1.9,1.9,1.9,1.9,1.9,1.9024,1.9131,1.9181,1.9205,1.9325,1.9179,1.9,1.9,1.9181,1.9361,1.9361,2.0817,2.2197,2.2197,2.2197,2.2197,2.2197,2.2197,2.2197,2.2197,2.2197,2.2197,2.2197,2.2197,2.2197,2.2197,2.2197,2.2197,2.2197,2.2197,2.2197,2.2197,2.2197,2.2197,2.2197,2.2197,2.2197,2.2197,2.2197,2.2197,2.2197,2.2197,2.2197,2.2197,2.2197,2.2197,2.2197,2.2197,2.2197,1.0931,1.1202,1.1571,1.1034,1.1423,0.0,1.034,1.0321,1.0622,1.0811,1.1016,1.1454,1.2434,1.3049,1.3416,1.3521,1.4262,1.547,1.7291,1.7556,1.7592,1.77,1.7712,1.788,1.8313,1.8362,1.853,1.8976,1.9,1.8789,1.8307,1.828,1.7957,1.723,1.6964,1.695,1.7202,1.7437,1.7781,1.828,1.8762,1.9,1.9,1.9,1.9,1.9,1.9,1.8722,1.8307,1.8802,1.8867,1.8655,1.8776,1.8802,1.8776,1.8934,1.9,1.9,1.9,1.9,1.9,1.9,1.9,1.9155,2.0033,2.0283,2.0464,2.1332,2.0322,1.9,1.9,2.0288,2.1587,2.1587,2.19,2.2197,2.2197,2.2197,2.2197,2.2197,2.2197,2.2197,2.2197,2.2197,2.2197,2.2197,2.2197,2.2197,2.2197,2.2197,2.2197,2.2197,2.2197,2.2197,2.2197,2.2197,2.2197,2.2197,2.2197,2.2197,2.2197,2.2197,2.2197,2.2197,2.2197,2.2197,2.2197,2.2197,2.2197,2.2197,2.2197,2.2197,1.1685,1.1897,1.2205,1.184,1.2001,0.0,0.0,1.0642,1.0783,1.1132,1.1035,1.1151,1.2002,1.2397,1.2603,1.2603,1.3605,1.4664,1.5443,1.6302,1.6991,1.7363,1.7399,1.7508,1.7772,1.7796,1.7816,1.785,1.8045,1.7911,1.738,1.7548,1.7368,1.6768,1.7034,1.7202,1.7202,1.7795,1.8253,1.855,1.8854,1.9,1.9,1.9,1.9,1.9,1.9,1.8655,1.8147,1.8749,1.8827,1.8588,1.8881,1.9,1.9,1.9,1.9,1.9,1.9,1.9,1.9,1.9,1.9,1.9108,1.9636,2.055,2.1512,2.2041,2.1431,2.0601,2.0601,2.1392,2.2197,2.2197,2.2197,2.2197,2.2197,2.2197,2.2197,2.2197,2.2197,2.2197,2.2197,2.2197,2.2197,2.2197,2.2197,2.2197,2.2197,2.2197,2.2197,2.2197,2.2197,2.2197,2.2197,2.2197,2.2197,2.2197,2.2197,2.2197,2.2197,2.2197,2.2197,2.2197,2.2197,2.2197,2.2197,2.2197,2.2197,2.2197,2.2197,2.2197,1.2525,1.2731,1.3083,1.2806,1.2685,1.2422,0.0,0.0,0.0,1.157,1.1376,1.1271,1.1639,1.1766,1.1795,1.1795,1.2947,1.368,1.3208,1.4514,1.5787,1.6503,1.6848,1.7015,1.6967,1.7039,1.6979,1.6725,1.6808,1.6741,1.6441,1.674,1.6714,1.6301,1.7243,1.763,1.7382,1.8348,1.8894,1.9,1.9,1.9,1.9,1.9,1.9,1.9,1.9,1.8722,1.8307,1.8802,1.8709,1.8321,1.8814,1.9,1.9,1.9,1.9,1.9,1.9,1.9,1.9,1.9,1.9,1.9,1.9,2.0504,2.2197,2.2197,2.2197,2.2197,2.2197,2.2197,2.2197,2.2197,2.2197,2.2197,2.2197,2.2197,2.2197,2.2197,2.2197,2.2197,2.2197,2.2197,2.2197,2.2197,2.2197,2.2197,2.2197,2.2197,2.2197,2.2197,2.2197,2.2197,2.2197,2.2197,2.2197,2.2197,2.2197,2.2197,2.2197,2.2197,2.2197,2.2197,2.2197,2.2197,2.2197,2.2197,2.2197,2.2197,2.2197,2.2197,1.4257,1.4379,1.4438,1.3192,1.3514,1.3573,1.1382,0.0,1.1233,1.0473,0.0,1.0256,1.0322,0.0,0.0,1.0341,1.1186,1.1672,1.12,1.2017,1.2917,1.3605,1.4883,1.5622,1.5383,1.5735,1.6183,1.6654,1.5855,1.5477,1.5794,1.5855,1.5995,1.6291,1.6429,1.6992,1.7998,1.8133,1.8469,1.9,1.9,1.9,1.9,1.9,1.9,1.9,1.9,1.896,1.8907,1.8974,1.896,1.8907,1.8974,1.9,1.9,1.9,1.9,1.9,1.9,1.9,1.9,1.9,1.9,1.9,1.9,2.0504,2.2197,2.2197,2.2197,2.2197,2.2197,2.2197,2.2197,2.2197,2.2197,2.2197,2.2197,2.2197,2.2197,2.2197,2.2197,2.2197,2.2197,2.2197,2.2197,2.2197,2.2197,2.2197,2.2197,2.2197,2.2197,2.2197,2.2197,2.2197,2.2197,2.2197,2.2197,2.2197,2.2197,2.2197,2.2197,2.2197,2.2197,2.2197,2.2197,2.2197,2.2197,2.2197,2.2197,2.2197,2.2197,2.2197,1.4474,1.4552,1.4644,1.3899,1.3747,1.345,1.2293,1.1745,1.1469,1.1346,0.0,0.0,0.0,0.0,0.0,0.0,1.0657,1.0931,1.0453,1.1204,1.2009,1.2609,1.3349,1.4112,1.4844,1.4533,1.4478,1.4936,1.4038,1.3647,1.4061,1.5118,1.5787,1.5946,1.6866,1.7589,1.8093,1.8442,1.8749,1.9,1.9,1.9,1.9,1.9,1.9,1.9,1.9,1.8802,1.8496,1.8854,1.8789,1.8509,1.8867,1.9,1.9,1.9,1.9,1.9,1.9,1.9,1.9,1.9,1.9,1.9,1.9,1.9638,2.0601,2.1852,2.2197,2.2197,2.2197,2.2197,2.2197,2.2197,2.2197,2.2197,2.2197,2.2197,2.2197,2.2197,2.2197,2.2197,2.2197,2.2197,2.2197,2.2197,2.2197,2.2197,2.2197,2.2197,2.2197,2.2197,2.2197,2.2197,2.2197,2.2197,2.2197,2.2197,2.2197,2.2197,2.2197,2.2197,2.2197,2.2197,2.2197,2.2197,2.2197,2.2197,2.2197,2.2197,2.2197,2.2197,1.4614,1.4664,1.4687,1.4165,1.3664,1.3157,1.2636,1.2092,1.1797,1.2124,1.1753,0.0,0.0,0.0,1.0587,1.0324,0.0,1.0575,0.9896,1.0415,1.1068,1.1606,1.2132,1.2999,1.4369,1.3352,1.2857,1.3433,1.241,1.2141,1.3034,1.4638,1.5701,1.613,1.7411,1.8174,1.8348,1.8776,1.9,1.9,1.9,1.9,1.9,1.9,1.9,1.9,1.9,1.8749,1.8388,1.8827,1.8735,1.8388,1.8829,1.9,1.9,1.9,1.9,1.9,1.9,1.9,1.9,1.9,1.9,1.9108,1.971,1.9879,2.0203,2.1753,2.2197,2.2197,2.2197,2.2197,2.2197,2.2197,2.2197,2.2197,2.2197,2.2197,2.2197,2.2197,2.2197,2.2197,2.2197,2.2197,2.2197,2.2197,2.2197,2.2197,2.2197,2.2197,2.2197,2.2197,2.2197,2.2197,2.2197,2.2197,2.2197,2.2197,2.2197,2.2197,2.2197,2.2197,2.2197,2.2197,2.2197,2.2197,2.2197,2.2197,2.2197,2.2197,2.2197,2.2197,1.5085,1.5085,1.4799,1.3625,1.3315,1.2986,1.1809,1.1862,1.2179,1.2201,1.254,1.2835,1.2846,1.2452,1.1839,1.0931,1.0788,0.0,0.0,0.9168,0.9475,1.0012,1.128,1.2544,1.3628,1.2177,1.1657,1.284,1.1328,1.1294,1.3464,1.4493,1.5705,1.7208,1.7802,1.8388,1.8974,1.8987,1.9,1.9,1.9,1.9,1.9,1.9,1.9,1.9,1.9,1.8987,1.8974,1.8987,1.8987,1.8974,1.8987,1.9,1.9,1.9,1.9,1.9,1.9,1.9,1.9,1.9,1.9,1.9397,2.1479,2.2105,2.2101,2.2173,2.2197,2.2197,2.2197,2.2197,2.2197,2.2197,2.2197,2.2197,2.2197,2.2197,2.2197,2.2197,2.2197,2.2197,2.2197,2.2197,2.2197,2.2197,2.2197,2.2197,2.2197,2.2197,2.2197,2.2197,2.2197,2.2197,2.2197,2.2197,2.2197,2.2197,2.2197,2.2197,2.2197,2.2197,2.2197,2.2197,2.2197,2.2197,2.2197,2.2197,2.2197,2.2197,2.2197,2.2197,1.5097,1.4971,1.4688,1.4109,1.3489,1.287,1.2299,1.2178,1.2201,1.2201,1.2572,1.29,1.29,1.2518,1.1993,1.1371,1.0745,1.0075,0.0,0.9243,0.9462,1.0001,1.1032,1.1645,1.1472,1.0956,1.0973,1.1775,1.1173,1.1458,1.3054,1.4693,1.6006,1.6879,1.7709,1.843,1.8987,1.9,1.9,1.9,1.9,1.9,1.9,1.9,1.9,1.9,1.9,1.9,1.9,1.9,1.9,1.9,1.9,1.9,1.9,1.9,1.9,1.9,1.9,1.9,1.9,1.9,1.9963,2.1247,2.1969,2.2197,2.2197,2.2197,2.2197,2.2197,2.2197,2.2197,2.2197,2.2197,2.2197,2.2077,2.1628,2.1549,2.1391,2.0914,2.0818,2.1106,2.2046,2.1423,2.0818,2.0818,2.0818,2.1154,2.2077,2.1391,2.0818,2.0818,2.0818,2.1185,2.212,2.2197,2.2197,2.2197,2.2197,2.2197,2.2197,2.2197,2.2197,2.2197,2.2197,2.2197,2.2197,2.2197,2.2197,2.2197,2.2197,2.2197,1.4846,1.472,1.4505,1.416,1.3761,1.3281,1.2757,1.2817,1.2942,1.2767,1.3106,1.3423,1.3423,1.3041,1.2463,1.1635,1.0845,1.0061,0.0,0.9326,0.9521,0.9624,1.0529,1.1083,1.0957,1.0224,1.0265,1.1491,1.0868,1.1236,1.3089,1.4705,1.5998,1.6923,1.7754,1.8458,1.9,1.9,1.9,1.9,1.9,1.9,1.9,1.9,1.9,1.9,1.9,1.9,1.9,1.9,1.9,1.9,1.9,1.9,1.9,1.9,1.9,1.9,1.9,1.9,1.9,1.9,2.0456,2.2197,2.2197,2.2197,2.2197,2.2197,2.2197,2.2197,2.2197,2.2197,2.2197,2.2197,2.1827,2.1328,2.0898,2.0807,2.0674,2.0188,2.0102,2.0383,2.1296,2.0706,2.0102,2.0102,2.0102,2.0432,2.1344,2.0658,2.0102,2.0102,2.0102,2.0464,2.1375,2.1906,2.2197,2.2197,2.2197,2.2197,2.2197,2.2197,2.2197,2.2197,2.2197,2.2197,2.2197,2.2197,2.2197,2.2197,2.2197,2.2197]},{"header":{"parameterUnit":"m.s-1","parameterCategory":1,"la1":30.6,"la2":29.2853,"lo1":-89.7004,"lo2":-87.6739,"dy":0.0162,"dx":0.0183,"nx":112,"ny":82,"refTime":"2025-08-15T12:00:00:Z","depth":0,"parameterNumber":3,"parameterNumberName":"V-component_of_WINDS"},"data":[0.0,0.0,0.0,0.0,0.0,0.0,0.0,0.0,0.0,0.0,0.0,0.0,0.0,0.0,0.0,0.0,0.0,0.0,0.0,0.0,0.0,0.0,0.0,0.0,0.0,0.0,0.0,0.0,0.0,0.0,0.0,0.0,0.0,0.0,0.0,0.0,0.0,0.0,0.0,0.0,0.0,0.0,0.0,0.0,0.0,0.0,0.0,0.0,0.0,0.0,0.0,0.0,0.0,0.0,0.0,0.0,0.0,0.0,0.0,0.0,0.0,0.0,0.0,0.0,0.0,0.0,0.0,0.0,0.0,0.0,0.0,0.0,0.0,0.0,0.0,0.0,0.0,0.0,0.0,0.0,0.0,0.0,0.0,0.0,0.0,0.0,0.0,0.0,0.0,0.0,0.4764,0.5171,0.6023,0.6868,0.7629,0.8156,0.7916,0.6716,0.0,0.0,0.0,0.0,0.0,0.0,0.0,0.0,0.0,0.0,0.0,0.0,0.0,0.0,0.0,0.0,0.0,0.0,0.0,0.0,0.0,0.0,0.0,0.0,0.0,0.0,0.0,0.0,0.0,0.0,0.0,0.0,0.0,0.0,0.0,0.0,0.0,0.0,0.0,0.0,0.0,0.0,0.0,0.0,0.0,0.0,0.0,0.0,0.0,0.0,0.0,0.0,0.0,0.0,0.0,0.0,0.0,0.0,0.0,0.0,0.0,0.0,0.0,0.0,0.0,0.0,0.0,0.0,0.0,0.0,0.0,0.0,0.0,0.0,0.0,0.0,0.0,0.0,0.0,0.0,0.0,0.0,0.0,0.0,0.0,0.0,0.0,0.0,0.0,0.0,0.0,0.0,0.0,0.0,0.0,0.0,0.0,0.0,0.0,0.0,0.0,0.0,0.0,0.0,0.5008,0.6079,0.6826,0.7373,0.7673,0.8242,0.7935,0.646,0.0,0.0,0.0,0.0,0.0,0.0,0.0,0.0,0.0,0.0,0.0,0.0,0.0,0.0,0.0,0.0,0.0,0.0,0.0,0.0,0.0,0.0,0.0,0.0,0.0,0.0,0.0,0.0,0.0,0.0,0.0,0.0,0.0,0.0,0.0,0.0,0.0,0.0,0.0,0.0,0.0,0.0,0.0,0.0,0.0,0.0,0.0,0.0,0.0,0.0,0.0,0.0,0.0,0.0,0.0,0.0,0.0,0.0,0.0,0.0,0.0,0.0,0.0,0.0,0.0,0.0,0.0,0.0,0.0,0.0,0.0,0.0,0.0,0.0,0.0,0.0,0.0,0.0,0.0,0.0,0.0,0.0,0.0,0.0,0.0,0.0,0.0,0.0,0.0,0.0,0.0,0.0,0.0,0.0,0.0,0.0,0.0,0.0,0.0,0.0,0.0,0.0,0.0,0.4768,0.5427,0.6599,0.7132,0.7672,0.8343,0.8797,0.8457,0.7097,0.6895,0.0,0.0,0.0,0.0,0.0,0.0,0.0,0.0,0.0,0.0,0.0,0.0,0.0,0.0,0.0,0.0,0.0,0.0,0.0,0.0,0.0,0.0,0.0,0.0,0.0,0.0,0.0,0.0,0.0,0.0,0.0,0.0,0.0,0.0,0.0,0.0,0.0,0.0,0.0,0.0,0.0,0.0,0.0,0.0,0.0,0.0,0.0,0.0,0.0,0.0,0.0,0.0,0.0,0.0,0.0,0.0,0.0,0.0,0.0,0.0,0.0,0.0,0.0,0.0,0.0,0.0,0.0,0.0,0.0,0.0,0.0,0.0,0.0,0.0,0.0,0.0,0.0,0.0,0.0,0.0,0.0,0.0,0.0,0.0,0.0,0.0,0.0,0.0,0.0,0.0,0.0,0.0,0.0,0.0,0.0,0.0,0.0,0.0,0.0,0.0,0.0,0.0,0.5511,0.6011,0.7014,0.7419,0.7973,0.8876,0.9071,0.8651,0.749,0.699,0.0,0.0,0.0,0.0,0.0,0.0,0.0,0.0,0.0,0.0,0.0,0.0,0.0,0.0,0.0,0.0,0.0,0.0,0.0,0.0,0.0,0.0,0.0,0.0,0.0,0.0,0.0,0.0,0.0,0.0,0.0,0.0,0.0,0.0,0.0,0.0,0.0,0.0,0.0,0.0,0.0,0.0,0.0,0.0,0.0,0.0,0.0,0.0,0.0,0.0,0.0,0.0,0.0,0.0,0.0,0.0,0.0,0.0,0.0,0.0,0.0,0.0,0.0,0.0,0.0,0.0,0.0,0.0,0.0,0.0,0.0,0.0,0.0,0.0,0.0,0.0,0.0,0.0,0.0,0.0,0.0,0.0,0.0,0.0,0.0,0.0,0.0,0.0,0.0,0.0,0.0,0.0,0.0,0.0,0.0,0.0,0.0,0.0,0.0,0.0,0.0,0.0,0.6142,0.6826,0.74,0.793,0.8394,0.8777,0.8554,0.7939,0.6925,0.6134,0.0,0.0,0.0,0.0,0.0,0.0,0.0,0.0,0.0,0.0,0.0,0.0,0.0,0.0,0.0,0.0,0.0,0.0,0.0,0.0,0.0,0.0,0.0,0.0,0.0,0.0,0.0,0.0,0.0,0.0,0.0,0.0,0.0,0.0,0.0,0.0,0.0,0.0,0.0,0.0,0.0,0.0,0.0,0.0,0.0,0.0,0.0,0.0,0.0,0.0,0.0,0.0,0.0,0.0,0.0,0.0,0.0,0.0,0.0,0.0,0.0,0.0,0.0,0.0,0.0,0.0,0.0,0.0,0.0,0.0,0.0,0.0,0.0,0.0,0.0,0.0,0.0,0.0,0.0,0.0,0.0,0.0,0.0,0.0,0.0,0.0,0.0,0.0,0.0,0.0,0.0,0.0,0.0,0.0,0.0,0.0,0.0,0.0,0.0,0.0,0.0,0.0,0.6189,0.7139,0.78,0.851,0.918,0.9799,0.9899,0.9346,0.7999,0.0,0.0,0.0,0.0,0.0,0.0,0.0,0.0,0.0,0.0,0.0,0.0,0.0,0.0,0.0,0.0,0.0,0.0,0.0,0.0,0.0,0.0,0.0,0.0,0.0,0.0,0.0,0.0,0.0,0.0,0.0,0.0,0.0,0.0,0.0,0.0,0.0,0.0,0.0,0.0,0.0,0.0,0.0,0.0,0.0,0.0,0.0,0.0,0.0,0.0,0.0,0.0,0.0,0.0,0.0,0.0,0.0,0.0,0.0,0.0,0.0,0.0,0.0,0.0,0.0,0.0,0.0,0.0,0.0,0.0,0.0,0.0,0.0,0.0,0.0,0.0,0.0,0.0,0.0,0.0,0.0,0.0,0.0,0.0,0.0,0.0,0.0,0.0,0.0,0.0,0.0,0.0,0.0,0.0,0.0,0.0,0.0,0.0,0.0,0.0,0.0,0.0,0.5361,0.66,0.7724,0.8436,0.9084,0.9775,1.0558,1.0644,1.0043,0.8653,0.0,0.0,0.0,0.0,0.0,0.0,0.0,0.0,0.0,0.0,0.0,0.0,0.0,0.0,0.0,0.0,0.0,0.0,0.0,0.0,0.0,0.0,0.0,0.0,0.0,0.0,0.0,0.0,0.0,0.0,0.0,0.0,0.0,0.0,0.0,0.0,0.0,0.0,0.0,0.0,0.0,0.0,0.0,0.0,0.0,0.0,0.0,0.0,0.0,0.0,0.0,0.0,0.0,0.0,0.0,0.0,0.0,0.0,0.0,0.0,0.0,0.0,0.0,0.0,0.0,0.0,0.0,0.0,0.0,0.0,0.0,0.0,0.0,0.0,0.0,0.0,0.0,0.0,0.0,0.0,0.0,0.0,0.0,0.0,0.0,0.0,0.0,0.0,0.0,0.0,0.0,0.0,0.0,0.0,0.0,0.0,0.0,0.0,0.0,0.0,0.0,0.0,0.624,0.7538,0.8656,0.9326,0.9644,1.0098,1.0838,1.0417,0.9655,0.0,0.0,0.0,0.0,0.0,0.0,0.0,0.0,0.0,0.0,0.0,0.0,0.0,0.0,0.0,0.0,0.0,0.0,0.0,0.0,0.0,0.0,0.0,0.0,0.0,0.0,0.0,0.0,0.0,0.0,0.0,0.0,0.0,0.0,0.0,0.0,0.0,0.0,0.0,0.0,0.0,0.0,0.0,0.0,0.0,0.0,0.0,0.0,0.0,0.0,0.0,0.0,0.0,0.0,0.0,0.0,0.0,0.0,0.0,0.0,0.0,0.0,0.0,0.0,0.0,0.0,0.0,0.0,0.0,0.0,0.0,0.0,0.0,0.0,0.0,0.0,0.0,0.0,0.0,0.0,0.0,0.0,0.0,0.0,0.0,0.0,0.0,0.0,0.0,0.0,0.0,0.0,0.0,0.0,0.0,0.0,0.0,0.0,0.0,0.0,0.0,0.0,0.0,0.6298,0.7681,0.8788,0.9276,0.973,1.0329,1.112,1.1046,1.0351,0.894,0.0,0.0,0.0,0.0,0.0,0.0,0.0,0.0,0.0,0.0,0.0,0.0,0.0,0.0,0.0,0.0,0.0,0.0,0.0,0.0,0.0,0.0,0.0,0.0,0.0,0.0,0.0,0.0,0.0,0.0,0.0,0.0,0.0,0.0,0.0,0.0,0.0,0.0,0.0,0.0,0.0,0.0,0.0,0.0,0.0,0.0,0.0,0.0,0.0,0.0,0.0,0.0,0.0,0.0,0.0,0.0,0.0,0.0,0.0,0.0,0.0,0.0,0.0,0.0,0.0,0.0,0.0,0.0,0.0,0.0,0.0,0.0,0.0,0.0,0.0,0.0,0.0,0.0,0.0,0.0,0.0,0.0,0.0,0.0,0.0,0.0,0.0,0.0,0.0,0.0,0.0,0.0,0.0,0.0,0.0,0.0,0.0,0.0,0.0,0.0,0.0,0.0,0.6503,0.7875,0.8969,0.9381,0.9829,1.0362,1.1002,1.1215,1.0637,0.91,0.0,0.0,0.0,0.0,0.0,0.0,0.0,0.0,0.0,0.0,0.0,0.0,0.0,0.0,0.0,0.0,0.0,0.0,0.0,0.0,0.0,0.0,0.0,0.0,0.0,0.0,0.0,0.0,0.0,0.0,0.0,0.0,0.0,0.0,0.0,0.0,0.0,0.0,0.0,0.0,0.0,0.0,0.0,0.0,0.0,0.0,0.0,0.0,0.0,0.0,0.0,0.0,0.0,0.0,0.0,0.0,0.0,0.0,0.0,0.0,0.0,0.0,0.0,0.0,0.0,0.0,0.0,0.0,0.0,0.0,0.0,0.0,0.0,0.0,0.0,0.0,0.0,0.0,0.0,0.0,0.0,0.0,0.0,0.0,0.0,0.0,0.0,0.0,0.0,0.0,0.0,0.0,0.0,0.0,0.0,0.0,0.0,0.0,0.0,0.0,0.0,0.0,0.6851,0.8123,0.9149,0.9553,0.9875,1.0206,1.061,1.1011,1.062,0.9141,0.0,0.0,0.0,0.0,0.0,0.0,0.0,0.0,0.0,0.0,0.0,0.0,0.0,0.0,0.0,0.0,0.0,0.0,0.0,0.0,0.0,0.0,0.0,0.0,0.0,0.0,0.0,0.0,0.0,0.0,0.0,0.0,0.0,0.0,0.0,0.0,0.0,0.0,0.0,0.0,0.0,0.0,0.0,0.0,0.0,0.0,0.0,0.0,0.0,0.0,0.0,0.0,0.0,0.0,0.0,0.0,0.0,0.0,0.0,0.0,0.7939,0.7186,0.0,0.0,0.0,0.0,0.0,0.0,0.0,0.0,0.0,0.0,0.0,0.0,0.0,0.0,0.0,0.0,0.0,0.0,0.0,0.0,0.0,0.0,0.0,0.0,0.0,0.0,0.0,0.0,0.0,0.0,0.0,0.0,0.0,0.0,0.0,0.0,0.0,0.0,0.0,0.0,0.7546,0.8448,0.9149,0.9553,0.9664,0.9841,1.0197,1.0593,1.0442,0.9527,0.8914,0.0,0.0,0.0,0.0,0.0,0.0,0.0,0.0,0.0,0.0,0.0,0.0,0.0,0.0,0.0,0.0,0.0,0.0,0.0,0.0,0.0,0.0,0.0,0.0,0.0,0.0,0.0,0.0,0.0,0.0,0.0,0.0,0.0,0.0,0.0,0.0,0.0,0.0,0.0,0.0,0.0,0.0,0.0,0.0,0.0,0.0,0.0,0.0,0.0,0.0,0.0,0.0,0.0,0.0,0.0,0.0,0.0,0.0,0.0,0.9632,0.9022,0.0,0.0,0.0,0.0,0.0,0.0,0.0,0.0,0.0,0.0,0.0,0.0,0.0,0.0,0.0,0.0,0.0,0.0,0.0,0.0,0.0,0.0,0.0,0.0,0.0,0.0,0.0,0.0,0.0,0.0,0.0,0.0,0.0,0.0,0.0,0.0,0.0,0.0,0.0,0.0,0.758,0.8448,0.9072,0.9296,0.9485,0.9673,0.9841,1.02,1.0209,0.9731,0.9367,0.0,0.0,0.0,0.0,0.0,0.0,0.0,0.0,0.0,0.0,0.0,0.0,0.0,0.0,0.0,0.0,0.0,0.0,0.0,0.0,0.0,0.0,0.0,0.0,0.0,0.0,0.0,0.0,0.0,0.0,0.0,0.0,0.0,0.0,0.0,0.0,0.0,0.0,0.0,0.0,0.0,0.0,0.0,0.0,0.0,0.0,0.0,0.0,0.0,0.0,0.0,0.0,0.0,1.2382,1.2523,1.2523,1.2523,1.2523,1.2437,1.1115,1.1046,1.1769,1.0601,0.0,0.0,0.0,0.0,0.0,0.0,0.0,0.0,0.0,0.0,0.0,0.0,0.0,0.0,0.0,0.0,0.0,0.0,0.0,0.0,0.0,0.0,0.9096,0.9138,0.9376,0.9464,0.9074,0.0,0.0,0.0,0.0,0.0,0.0,0.0,0.0,0.0,0.0,0.0,0.7645,0.8515,0.9124,0.9183,0.9442,0.9606,0.9609,0.9872,0.9973,0.9825,0.9839,0.9262,0.0,0.0,0.0,0.0,0.0,0.0,0.0,0.0,0.0,0.0,0.0,0.0,0.0,0.0,0.0,0.0,0.0,0.0,0.0,0.0,0.0,0.0,0.0,0.0,0.0,0.0,0.0,0.0,0.0,0.0,0.0,0.0,0.5065,0.5065,0.0,0.0,0.0,0.0,0.0,0.0,0.0,0.0,0.0,0.0,0.0,0.0,0.0,1.1199,1.1199,1.1348,1.1649,1.2119,1.3529,1.417,1.417,1.417,1.417,1.4161,1.3965,0.0,1.3965,1.2421,0.0,0.0,0.0,0.0,0.0,0.0,0.0,0.0,0.0,0.0,0.0,0.0,0.0,0.0,0.0,0.0,0.0,0.0,0.0,0.0,0.0,0.0,1.1366,1.1378,1.1412,1.143,1.1366,0.9732,0.8145,0.7709,0.7662,0.734,0.0,0.0,0.0,0.0,0.0,0.0,0.8655,0.9214,0.9628,0.9924,0.9739,0.9628,0.9675,0.9729,0.9783,0.9888,0.9995,0.9767,0.9105,0.8613,0.0,0.0,0.0,0.0,0.0,0.0,0.0,0.0,0.0,0.0,0.0,0.0,0.0,0.0,0.0,0.0,0.0,0.0,0.0,0.0,0.0,0.0,0.0,0.0,0.0,0.0,0.0,0.0,0.0,0.4715,0.5959,0.7577,0.6874,0.5945,0.0,0.0,0.0,0.0,0.0,0.0,0.0,0.0,0.0,0.9841,1.1318,1.2529,1.3433,1.3451,1.3451,1.3451,1.4152,1.45,1.45,1.45,1.4995,1.5808,1.4894,1.45,1.4445,1.3736,1.2501,1.0878,0.0,0.0,0.0,0.0,0.7261,1.0221,1.035,1.177,1.3171,1.1164,0.0,0.0,0.0,0.0,0.0,0.0,0.0,1.0327,0.9709,1.0669,1.1912,1.2367,1.2298,1.2196,1.2432,1.1535,1.0379,0.9342,0.9312,0.898,0.7423,0.7345,0.0,0.0,0.0,0.8547,0.9352,0.9774,1.0088,1.0301,1.019,1.0118,1.0151,0.9939,0.9966,1.0331,1.0186,0.9931,0.9543,0.9192,0.8422,0.0,0.0,0.0,0.0,0.0,0.0,0.0,0.0,0.0,0.0,0.0,0.0,0.0,0.0,0.0,0.0,0.0,0.0,0.0,0.0,0.0,0.0,0.0,0.0,0.0,0.0,0.0,0.0,0.5218,0.6647,0.8922,0.8281,0.7157,0.0,0.0,0.0,0.0,0.0,0.0,0.7439,1.0171,1.2026,1.2687,1.2713,1.3286,1.4491,1.45,1.45,1.45,1.4912,1.5198,1.5389,1.493,1.5519,1.6835,1.5627,1.5105,1.5077,1.4665,1.38,1.2648,1.2055,1.0111,0.765,0.765,0.955,1.228,1.3383,1.3761,1.3554,1.2278,1.2617,1.3496,1.3496,0.0,0.0,0.0,0.0,1.2388,1.1141,1.146,1.229,1.2969,1.2937,1.2837,1.3144,1.3001,1.2357,1.0836,1.0777,1.0448,0.8758,0.8738,0.0,0.8438,0.888,0.9468,1.0066,1.0348,1.0582,1.0791,1.0711,1.0661,1.0695,1.0239,1.0141,1.0562,1.0328,1.0023,0.9721,0.9706,0.9067,0.7708,0.0,0.0,0.0,0.0,0.0,0.0,0.0,0.0,0.0,0.0,0.0,0.0,0.0,0.0,0.0,0.0,0.0,0.0,0.0,0.0,0.0,0.0,0.0,0.0,0.0,0.0,0.0,0.0,0.0,0.7726,0.8787,0.0,0.0,0.0,0.0,0.9348,1.0888,1.0864,0.8815,0.9966,1.1805,1.4298,1.4372,1.4418,1.45,1.45,1.45,1.4519,1.6056,1.714,1.7772,1.6111,1.5923,1.6899,1.6799,1.6789,1.667,1.5123,1.4445,1.4387,1.4326,1.4191,1.4047,1.4047,1.4176,1.4352,1.4419,1.4446,1.4324,1.362,1.3442,1.3496,1.3496,1.3384,0.0,0.0,1.329,1.3427,1.3344,1.3128,1.3029,1.3391,1.3612,1.3747,1.3765,1.3846,1.3485,1.2005,1.1733,1.1366,1.0197,0.0,1.0089,0.9751,0.985,1.0205,1.0942,1.1054,1.1217,1.1605,1.1309,1.1122,1.1252,1.0541,1.0163,1.0308,1.03,1.0116,0.9721,1.0061,0.9869,0.9014,0.819,0.0,0.0,0.0,0.0,0.0,0.0,0.0,0.0,0.0,0.0,0.0,0.0,0.0,0.0,0.0,0.0,0.0,0.0,0.0,0.0,0.0,0.0,0.0,0.0,0.0,0.0,0.0,0.0,0.9418,0.9696,0.0,1.0248,0.9313,0.8799,0.9104,1.0365,1.1528,1.2415,1.2887,1.3543,1.4461,1.45,1.45,1.45,1.4887,1.5084,1.5088,1.5664,1.6075,1.6303,1.5678,1.5388,1.5368,1.5368,1.5368,1.5306,1.4744,1.45,1.4601,1.5636,1.6039,1.6039,1.6039,1.6039,1.6039,1.6039,1.6039,1.5832,1.4561,1.3851,1.3496,1.3496,1.3496,1.3496,1.3496,1.367,1.3821,1.3821,1.3725,1.3678,1.3795,1.3881,1.3935,1.3935,1.3965,1.3841,1.3325,1.3007,1.2478,1.1379,1.1404,1.1467,1.1134,1.1309,1.1694,1.23,1.2384,1.2478,1.2714,1.2373,1.2141,1.2203,1.1225,1.0635,1.0678,1.0209,0.985,0.9712,0.9841,0.9657,0.9106,0.8793,0.817,0.0,0.0,0.0,0.0,0.0,0.0,0.0,0.0,0.0,0.0,0.0,0.0,0.0,0.0,0.0,0.0,0.0,0.0,0.0,0.0,0.0,0.0,0.0,0.0,0.0,0.8261,0.9418,1.0347,1.0817,1.1027,1.0993,1.09,1.0809,1.0737,1.1465,1.2674,1.4402,1.45,1.45,1.45,1.45,1.4595,1.4793,1.5201,1.5396,1.5396,1.5396,1.5396,1.5396,1.5396,1.5172,1.4793,1.4793,1.469,1.45,1.45,1.45,1.4601,1.5663,1.6101,1.6166,1.6707,1.6908,1.6908,1.6908,1.6908,1.6717,1.567,1.5005,1.4655,1.4655,1.4655,1.4533,1.4,1.3995,1.4231,1.4506,1.4461,1.4355,1.4382,1.4462,1.4508,1.4508,1.4425,1.4372,1.4372,1.396,1.3332,1.2489,1.256,1.2618,1.2295,1.2469,1.2775,1.3123,1.3173,1.32,1.3296,1.3052,1.2845,1.2711,1.1718,1.1101,1.1101,1.0217,0.9758,0.9896,0.9776,0.9574,0.9308,0.917,0.8536,0.7406,0.0,0.0,0.0,0.0,0.0,0.0,0.0,0.0,0.0,0.0,0.0,0.0,0.0,0.0,0.0,0.0,0.0,0.0,0.0,0.0,0.0,0.0,0.0,0.8709,0.9945,1.0857,1.0372,1.207,1.2151,0.9257,1.1583,1.362,1.4436,1.45,1.45,1.45,1.45,1.45,1.45,1.453,1.4808,1.5396,1.5396,1.5396,1.5396,1.5396,1.5396,1.5396,1.5396,1.5396,1.5396,1.5396,1.5079,1.453,1.453,1.453,1.453,1.4515,1.45,1.4683,1.6257,1.6835,1.6835,1.6873,1.6908,1.6908,1.6908,1.6908,1.6908,1.6908,1.6908,1.6561,1.5004,1.4573,1.4748,1.5549,1.5396,1.5061,1.5201,1.5375,1.5511,1.5511,1.5282,1.5102,1.5102,1.4514,1.3886,1.3501,1.3539,1.3514,1.3195,1.325,0.0,1.3346,1.3346,1.3346,1.3346,1.3337,1.3153,1.2744,1.1981,1.151,1.1483,1.0383,0.9906,1.0293,0.9933,0.9721,0.9721,0.9327,0.8701,0.7846,0.0,0.0,0.0,0.0,0.0,0.0,0.0,0.0,0.0,0.0,0.0,0.0,0.0,0.0,0.0,0.0,0.0,0.0,0.0,0.0,0.0,0.9084,1.2302,1.0282,1.1036,1.2068,1.2802,1.2958,1.2992,1.2946,1.281,1.3205,1.4407,1.45,1.45,1.45,1.45,1.45,1.45,1.4917,1.523,1.5396,1.5396,1.5396,1.5396,1.5396,1.5396,1.5396,1.5396,1.5396,1.5396,1.5396,1.5318,1.5157,1.5157,1.5157,1.5113,1.4669,1.45,1.4546,1.4995,1.516,1.534,1.6505,1.6908,1.6908,1.6908,1.6908,1.6908,1.6908,1.6908,1.6817,1.636,1.6248,1.6286,1.6514,1.6196,1.5802,1.5842,1.5747,1.5657,1.5657,1.5361,1.5102,1.5102,1.4696,1.4335,1.4217,1.4229,1.4222,1.4136,1.4147,1.4161,1.4161,1.4161,1.4161,1.4161,1.391,1.3575,1.3172,1.2404,1.1711,1.1177,1.0551,1.0297,1.0503,1.0317,1.0178,1.0145,0.9739,0.928,0.0,0.0,0.0,0.0,0.0,0.0,0.0,0.0,0.0,0.0,0.0,0.0,0.0,0.0,0.0,0.0,0.0,0.0,0.0,0.0,0.0,0.0,1.1586,1.3483,1.2611,1.2749,1.3201,1.3899,1.3749,1.3815,1.4443,1.3806,1.367,1.4431,1.45,1.45,1.45,1.4734,1.4882,1.4882,1.5216,1.5396,1.5396,1.5396,1.5396,1.5396,1.5396,1.5776,1.6488,1.6488,1.6488,1.6488,1.6488,1.6069,1.5396,1.5396,1.5396,1.5366,0.0,0.0,0.0,0.0,1.45,1.4628,1.5563,1.5883,1.5883,1.5883,1.5883,1.6012,1.6707,1.6908,1.6908,1.6908,1.6908,1.6908,1.6908,1.6679,1.6441,1.6441,1.6321,1.6193,1.6193,1.5753,1.5349,1.5349,1.49,0.0,1.45,1.45,1.45,1.45,1.45,1.45,1.45,1.45,1.45,1.45,1.4295,1.4012,1.3663,1.2905,0.0,0.0,0.0,1.0809,1.0883,1.0819,0.0,0.0,0.0,0.0,0.0,0.9912,0.0,0.0,0.8885,0.8885,0.0,0.0,0.0,0.0,0.0,0.0,0.0,0.0,0.0,0.0,0.0,0.0,0.0,0.0,0.0,0.0,1.4594,1.4247,1.5022,1.461,1.4213,1.4161,1.4403,1.4545,1.45,1.45,1.45,1.45,1.4551,1.4595,1.4595,1.5113,0.0,0.0,0.0,1.5396,1.5396,1.5396,1.5396,1.5396,1.5396,1.6303,1.8018,1.8203,1.8193,1.7991,1.7991,1.7113,1.5688,1.5688,1.5571,1.5396,1.5396,1.5396,1.5337,1.4793,1.4595,1.4595,1.4595,0.0,0.0,1.453,1.45,1.4766,1.6202,1.6633,1.667,1.6853,1.6908,1.6908,1.6908,1.6926,1.696,1.6908,1.6926,1.6925,1.693,1.633,1.5815,1.5833,1.5225,1.4719,1.4719,1.4654,1.4595,1.4595,1.4669,1.4704,1.4719,1.4719,1.4719,1.4749,1.4749,0.0,1.435,1.3672,1.3275,1.3317,1.233,1.1709,1.1631,1.1669,1.1578,1.1339,1.1451,1.1376,1.1084,1.1243,1.1283,1.114,1.0293,1.0116,0.0,0.0,0.0,0.0,0.0,0.0,0.0,0.0,0.0,0.0,0.0,0.0,0.0,0.0,0.0,1.5181,1.523,1.5153,1.5318,1.5143,1.4891,1.4624,1.4767,1.4803,1.453,1.45,1.45,1.45,1.4946,1.523,1.523,1.5337,1.5396,1.5396,1.5396,1.5396,1.5396,1.5396,1.5396,1.5396,1.5396,0.0,1.8057,1.9462,1.9335,1.7991,1.7991,1.7805,1.7493,1.7493,1.6664,1.5396,1.5396,1.5396,1.5381,1.5274,1.523,1.523,1.523,1.523,1.5142,1.4669,1.45,1.4555,1.4867,1.4958,0.0,1.6525,1.6908,1.6908,1.6908,1.7133,1.7298,1.6978,1.702,1.7142,1.714,1.6753,1.6466,1.6638,1.6377,1.6108,1.6108,1.5613,1.523,1.523,1.5633,1.5983,1.6093,1.6108,1.614,1.6262,1.6262,1.6129,1.5752,1.5571,1.5258,1.4749,1.4606,1.4253,1.3659,1.3944,1.3698,1.2817,1.282,1.2615,1.2184,1.2602,1.2783,1.2739,1.1658,1.1375,0.0,0.0,0.0,0.0,0.0,0.0,0.0,0.0,0.0,0.0,0.0,0.9333,0.9089,0.0,1.3563,1.5138,1.5396,1.5396,1.5396,1.5332,1.521,1.4976,1.4985,1.4911,1.4669,1.4714,1.4684,1.4506,1.5064,1.5396,1.5396,1.5396,1.5396,1.5396,1.5396,1.5396,1.5396,1.5396,1.5396,1.541,1.6627,1.8217,2.0161,2.2091,2.2484,2.1568,1.9991,1.8799,1.7991,1.7991,1.75,1.6693,1.6693,1.6166,1.5396,1.5396,1.5396,1.5396,1.5396,1.5396,1.5352,1.5049,1.4946,1.4887,1.4595,1.4704,1.5296,1.6987,1.7176,1.7304,1.9079,1.8526,1.7691,1.8472,1.8237,1.7944,1.8273,1.8025,1.7702,1.7524,1.7238,1.6916,1.6655,1.6581,1.6439,1.6102,1.6315,1.6528,1.6599,1.6599,1.6627,1.6687,1.6701,1.6658,1.6559,1.6431,1.6107,1.554,1.5558,1.5434,1.5071,1.5246,1.4919,1.4017,1.4069,1.3792,1.3154,1.3448,1.3576,1.3487,1.3017,1.2807,0.0,0.0,0.0,0.0,0.0,0.0,0.0,0.9077,0.9296,1.054,1.102,1.1382,1.1921,1.2286,1.3143,1.508,1.5396,1.5396,1.5396,1.5396,1.5362,1.5249,1.5147,1.5029,1.4872,1.5,1.497,1.4699,1.5128,1.5396,1.5396,1.5396,1.5512,1.5748,1.5748,1.5633,1.5396,1.5878,1.6097,1.6126,1.8495,2.054,2.2258,2.4362,2.5312,2.5158,2.263,2.0708,1.9428,1.9428,1.9172,1.8814,1.8814,1.7701,1.604,1.5575,1.5968,1.6722,1.6722,1.6418,1.6022,1.5823,1.5748,1.5661,1.5172,1.5366,1.6088,1.7695,1.8054,1.859,2.1463,2.0177,1.8519,2.0047,1.9557,1.8903,1.944,1.9297,1.8962,1.8573,1.826,1.789,1.7364,1.7734,1.7837,1.7017,1.6996,1.7079,1.7093,1.7107,1.7121,1.7149,1.7149,1.7216,1.7376,1.7189,1.6894,1.6529,1.6506,1.6455,1.6326,1.6326,1.5992,1.5284,1.5373,1.5108,1.4456,1.4575,1.4575,1.4466,1.4597,1.4288,0.844,0.9104,0.9743,1.0027,1.0322,1.0961,0.0,1.2212,1.1968,1.3349,1.3908,1.4148,1.4227,1.4286,1.4558,1.5288,1.5396,1.5396,1.5396,1.5396,1.5381,1.5391,1.5352,1.5289,1.5093,1.5245,1.5337,1.5303,1.5352,1.5396,1.5396,1.5396,1.5882,1.6964,1.7006,1.6472,1.541,1.7534,1.8602,1.8625,2.0794,2.1972,2.2258,2.4362,2.5312,2.5282,2.4933,2.4661,2.4484,2.4484,2.3393,2.1737,2.1737,2.0452,1.8348,1.6197,1.7967,2.1445,2.1445,2.011,1.8255,1.7316,1.7006,1.6992,1.6922,1.695,1.7233,1.8388,2.0107,2.1694,2.2092,2.1321,2.0425,2.0403,2.002,1.9684,1.9749,1.9725,1.9747,1.9923,2.0021,1.9908,1.9375,1.9448,1.9118,1.7792,1.8036,1.8427,1.8558,1.8572,1.86,1.8722,1.8735,1.8749,1.8774,1.8741,1.8708,1.8662,1.8649,1.8412,1.7878,1.7853,1.7558,1.6941,1.6955,1.6914,1.6817,1.6831,1.6831,1.6828,1.6725,1.5731,1.0262,1.0864,1.1286,1.1738,1.2281,1.2857,1.3488,1.3382,1.3442,1.4408,1.4743,1.4887,1.5038,1.5073,1.5137,1.5357,1.5396,1.5396,1.5396,1.5396,1.5396,1.5396,1.5396,1.5366,1.5289,1.5352,1.5396,1.5396,1.5396,1.5396,1.5396,1.6069,1.6684,1.7188,1.7888,1.8311,1.8431,2.0861,2.1056,1.9024,2.1163,2.3089,2.4715,2.5123,2.5312,2.5312,2.5312,2.5312,2.5312,2.5312,2.4085,2.2197,2.2197,2.1644,2.0749,1.9726,2.0565,2.2063,2.1177,2.0247,1.9239,1.8045,1.7674,1.7647,1.7582,1.7548,1.7871,1.9414,2.0981,2.2197,2.2197,2.1494,2.0917,2.1341,2.0985,2.0662,2.1105,2.121,2.1135,2.0938,2.0935,2.0811,2.027,2.0221,2.0067,1.9472,1.9345,1.9212,1.8942,1.9183,1.9282,1.9023,1.9,1.9,1.9,1.9,1.9,1.9,1.9,1.8894,1.863,1.8629,1.8348,1.774,1.7713,1.7707,1.7674,1.7674,1.7827,1.8127,1.7981,1.7503,1.1367,1.2033,1.252,1.3067,1.3786,1.4313,1.418,1.4336,1.466,1.5151,1.5249,1.53,1.5453,1.5439,1.5396,1.5396,1.5396,1.5396,1.5396,1.5565,1.5638,1.5551,1.5551,1.5565,1.5536,1.5449,1.5468,1.5633,1.5676,1.5777,1.5935,1.6782,1.7327,1.7493,1.8321,1.9224,2.0236,2.2415,2.2512,2.0618,2.1869,2.3872,2.6469,2.5903,2.5629,2.5629,2.5629,2.5629,2.5611,2.54,2.4422,2.3051,2.3051,2.2766,2.2361,2.2449,2.2354,2.2036,2.0911,2.0526,2.0331,1.91,1.8727,1.8631,1.8247,1.8133,1.8475,2.0127,2.1163,2.1828,2.2113,2.1694,2.1368,2.2046,2.1788,2.1541,2.2077,2.2197,2.2089,2.1692,2.162,2.1452,2.0908,2.0815,2.0769,2.062,2.0394,2.0047,1.9505,1.9782,1.9865,1.948,1.9444,1.9372,1.9229,1.9229,1.9229,1.9229,1.9229,1.9289,1.9432,1.9444,1.9241,1.8792,1.8792,1.8771,1.873,1.873,1.8918,1.9291,1.9201,1.9093,1.143,1.2357,1.3455,1.3859,1.4625,1.5258,1.5245,1.556,1.5849,1.5879,1.5865,1.5836,1.5705,1.5531,1.5396,1.5396,1.5396,1.5396,1.5396,1.5951,1.6245,1.5914,1.5933,1.5961,1.5885,1.558,1.5633,1.6226,1.6383,1.6722,1.731,1.7365,1.7655,1.8251,1.8186,1.852,1.9337,2.0777,2.2539,2.4609,2.3566,2.4274,2.6499,2.6469,2.6452,2.6452,2.6452,2.6452,2.6401,2.5611,2.5246,2.5216,2.5216,2.4177,2.2718,2.3059,2.2763,2.2185,2.2158,2.213,2.195,2.087,2.0519,2.0325,1.9271,1.896,1.9188,2.0295,2.061,2.0892,2.1936,2.217,2.2154,2.2185,2.217,2.217,2.2197,2.2197,2.2201,2.2189,2.2189,2.2005,2.1476,2.138,2.1211,2.068,2.1031,2.1151,2.0615,2.0576,2.0572,2.0548,2.0548,2.0331,1.9818,1.9784,1.9784,1.9784,1.9784,2.0011,2.0536,2.0548,2.0533,2.0519,2.0519,2.0519,2.0509,2.0509,2.0533,2.055,2.0538,2.0379,1.3119,1.3952,1.453,1.4796,1.5447,1.5995,1.5861,1.6036,1.6187,1.6052,1.6005,1.5933,1.586,1.513,1.4732,1.5308,1.559,1.573,1.573,1.5961,1.6091,1.5976,1.5947,1.6081,1.646,1.6393,1.6411,1.6624,1.7006,1.7316,1.7509,1.7904,1.8215,1.8429,1.8789,1.9431,2.0421,2.1381,2.2644,2.4217,2.4993,2.5753,2.6499,2.6499,2.6499,2.6499,2.6499,2.6499,2.6482,2.6211,2.6094,2.6094,2.6094,2.5317,2.4242,2.4345,2.3822,2.2997,2.2508,2.2417,2.2326,2.1124,2.0787,2.0649,1.9472,1.9184,1.9396,2.0029,2.0195,2.0437,2.1407,2.1668,2.1765,2.2129,2.2197,2.2101,2.174,2.1945,2.2089,2.174,2.1668,2.1608,2.144,2.1177,2.1083,2.1355,2.1102,2.0925,2.1118,2.0902,2.0727,2.0727,2.0854,2.0866,2.0683,2.0534,2.0463,2.0463,2.039,2.0404,2.0596,2.0596,2.0596,2.0596,2.0596,2.0791,2.1127,2.0757,2.0976,2.1644,2.092,2.0726,1.4247,1.4844,1.5102,1.557,1.6047,1.6374,1.6239,1.6378,1.645,1.6125,1.5914,1.5639,1.5168,1.4436,1.4179,1.4982,1.5564,1.5943,1.6058,1.6116,1.6239,1.6503,1.6428,1.6602,1.7213,1.7462,1.7545,1.7421,1.777,1.8097,1.83,1.8673,1.8885,1.8885,1.9225,1.9864,2.0818,2.1673,2.2911,2.4519,2.5586,2.6235,2.6499,2.6499,2.6499,2.6499,2.6499,2.6499,2.6499,2.6499,2.6499,2.6499,2.6499,2.5919,2.5099,2.5049,2.4583,2.3878,2.3271,2.2904,2.253,2.1528,2.1103,2.0778,1.9619,1.9341,1.9492,1.9935,2.008,2.0247,2.1049,2.125,2.1335,2.1686,2.1759,2.1689,2.1323,2.1529,2.1677,2.1323,2.125,2.125,2.125,2.1032,2.1023,2.1454,2.1065,2.1013,2.1765,2.1633,2.1472,2.1472,2.1403,2.1365,2.1377,2.1066,2.0929,2.108,2.0822,2.0738,2.0872,2.0704,2.0596,2.0596,2.0596,2.0764,2.11,2.0767,2.0947,2.1608,2.092,2.0776,1.4842,1.5101,1.533,1.6213,1.6431,1.6431,1.64,1.6602,1.6626,1.6051,1.5603,1.4938,1.373,1.3516,1.3743,1.4449,1.5278,1.5964,1.6331,1.6388,1.6666,1.7407,1.7327,1.7451,1.8079,1.8669,1.8882,1.8592,1.8687,1.9005,1.9578,1.9617,1.9617,1.9617,1.9523,1.9821,2.0539,2.167,2.3377,2.5598,2.5489,2.582,2.6499,2.6499,2.6499,2.6499,2.6499,2.6424,2.6336,2.6449,2.6461,2.6411,2.6491,2.6011,2.5306,2.522,2.5037,2.4806,2.4521,2.368,2.2659,2.2093,2.1512,2.082,1.9776,1.9445,1.9531,2.0034,2.0169,2.0292,2.0818,2.0965,2.0978,2.099,2.1002,2.099,2.0951,2.099,2.099,2.0951,2.098,2.0996,2.1001,2.1026,2.1052,2.1052,2.1077,2.1469,2.2484,2.2619,2.2619,2.2619,2.2112,2.1805,2.1874,2.1338,2.1166,2.156,2.1078,2.0957,2.1359,2.086,2.0596,2.0596,2.0596,2.0596,2.0596,2.0572,2.0572,2.0596,2.0548,2.0536,1.6151,1.652,1.6692,1.694,1.7004,1.6893,1.6552,1.6534,1.6323,1.5437,1.4571,1.3682,1.2669,1.2393,1.2669,1.3679,1.4545,1.5331,1.6075,1.6306,1.6609,1.7213,1.723,1.7617,1.8669,1.8907,1.9172,1.9591,1.9553,1.9592,1.9746,1.9759,1.9759,1.9759,2.0146,2.0647,2.1238,2.3153,2.4609,2.5598,2.6021,2.6328,2.6499,2.6499,2.6499,2.6499,2.6499,2.5527,2.4101,2.5791,2.5992,2.5322,2.6172,2.6113,2.5565,2.5986,2.5837,2.5444,2.5803,2.4932,2.3489,2.2397,2.173,2.123,2.0461,1.9978,1.9719,1.9739,1.9749,1.9859,2.0293,2.0401,2.0499,2.0904,2.1002,2.0892,2.0487,2.072,2.0879,2.0487,2.0732,2.1037,2.1132,2.1484,2.1773,2.1877,2.2234,2.2236,2.1514,2.1521,2.158,2.158,2.1583,2.1581,2.1594,2.123,2.1106,2.1366,2.0927,2.0742,2.0935,2.0726,2.0596,2.0596,2.0596,2.0596,2.0596,2.0201,2.0201,2.0584,1.978,1.9612,1.6794,1.7134,1.7242,1.7204,1.7204,1.7018,1.6308,1.607,1.5664,1.4464,1.3431,1.2525,1.176,1.1574,1.1891,1.2955,1.4059,1.5099,1.5988,1.6599,1.7165,1.7713,1.7902,1.8363,1.9343,1.9434,1.9617,2.0067,1.9914,1.9837,1.9875,1.9824,1.9798,1.9798,2.0125,2.0917,2.2182,2.3926,2.5193,2.5992,2.6336,2.6499,2.6487,2.616,2.5921,2.5791,2.6285,2.5766,2.4695,2.5971,2.6118,2.5498,2.5146,2.5414,2.6005,2.6067,2.6055,2.6005,2.6067,2.5339,2.4148,2.293,2.2074,2.1343,2.0459,2.001,1.9773,1.9708,1.9695,1.9744,1.9963,2.0023,2.0097,2.0407,2.0469,2.0462,2.0391,2.0607,2.08,2.0732,2.0978,2.1189,2.1265,2.1543,2.1759,2.1846,2.2118,2.1939,2.0942,2.1331,2.1677,2.1677,2.1364,2.1243,2.1482,2.1115,2.098,2.1244,2.082,2.0529,2.0447,2.0145,1.9954,1.9901,1.9901,1.9901,1.9901,1.9602,1.9602,1.9875,1.9275,1.9157,1.7136,1.7354,1.7393,1.7329,1.7271,1.6964,1.5961,1.5486,1.4842,1.3355,1.2297,1.1482,1.0934,1.0986,1.1395,1.233,1.3747,1.508,1.609,1.7026,1.785,1.8513,1.8869,1.9303,1.9939,2.0016,2.0093,2.0233,2.0003,1.9901,1.999,1.9964,2.0039,2.0242,2.0205,2.127,2.36,2.462,2.5643,2.6658,2.6658,2.6607,2.6491,2.5833,2.5317,2.4978,2.6034,2.6533,2.6568,2.6568,2.6573,2.638,2.4359,2.4787,2.6459,2.5912,2.6042,2.6428,2.5921,2.5345,2.4644,2.3574,2.2433,2.1319,2.0326,1.9924,1.9798,1.9798,1.9798,1.9798,1.9798,1.985,1.9901,1.9901,1.9965,2.0131,2.061,2.0709,2.0857,2.1393,2.1515,2.1539,2.1585,2.1597,2.1597,2.1597,2.1597,2.1429,2.0969,2.1589,2.2058,2.1991,2.115,2.0767,2.123,2.0828,2.0698,2.0996,2.061,2.0228,1.9956,1.9478,1.9143,1.9025,1.9012,1.9012,1.9025,1.9012,1.9012,1.9025,1.9012,1.9012,1.7856,1.7947,1.7961,1.7947,1.7643,1.71,1.6097,1.5199,0.0,1.2615,1.1497,1.0643,1.0106,1.0562,1.132,1.2258,1.3532,1.4974,1.6699,1.7089,1.7663,1.8928,1.9226,1.9513,1.9965,2.0093,2.0233,2.0423,2.0245,2.0093,2.0003,2.0446,2.1293,2.2564,2.2283,2.3467,2.6299,2.6634,2.7015,2.7501,2.7501,2.7145,2.6504,2.6361,2.6034,2.5576,2.6232,2.6671,2.6909,2.6909,2.6943,2.6935,2.6389,2.6378,2.6635,2.6418,2.6411,2.6514,2.6511,2.5826,2.4839,2.4098,2.2774,2.1469,2.1268,2.0539,1.9798,1.9798,1.9798,1.9798,1.9798,2.0131,2.0459,2.0459,2.0808,2.1151,2.1236,2.126,2.1419,2.1957,2.2065,2.2182,2.2578,2.2635,2.2635,2.2635,2.2635,2.2612,2.252,2.156,2.0733,2.0282,2.0077,1.9987,2.0087,1.9907,1.9856,2.0035,1.9763,1.9608,1.9674,1.9377,1.9195,1.917,1.9065,1.9052,1.917,1.9052,1.9065,1.9157,1.9052,1.9065,1.834,1.83,1.8098,1.8098,1.7746,1.6992,1.5475,0.0,0.0,1.127,1.0328,0.9735,0.949,1.0062,1.082,1.1544,1.2977,1.4586,1.6336,1.7185,1.8099,1.9363,1.9682,1.9927,2.0233,2.0322,2.0423,2.0587,2.0511,2.0527,2.0681,2.0884,2.134,2.2023,2.2141,2.346,2.614,2.6154,2.6898,2.8363,2.802,2.779,2.7683,2.7482,2.7358,2.7305,2.7072,2.7187,2.7604,2.8097,2.837,2.8469,2.7978,2.7838,2.7832,2.7385,2.7255,2.728,2.7279,2.6552,2.5565,2.5257,2.3808,2.2074,2.1464,2.0905,2.041,2.0092,2.0016,2.0054,2.027,2.0509,2.0758,2.0968,2.1431,2.1815,2.1815,2.2016,2.2249,2.2509,2.2555,2.2649,2.2854,2.2888,2.2888,2.2888,2.2888,2.2809,2.2566,2.1886,2.1335,2.1079,2.0795,2.0509,2.0245,2.0156,2.0029,1.9811,1.9682,1.9734,2.0003,1.9617,1.9512,1.9721,1.9382,1.9237,1.9302,1.9237,1.9237,1.9302,1.9237,1.9237,1.8615,1.853,1.822,1.8125,1.7732,1.6839,1.4854,1.3551,1.2187,1.0214,0.9425,0.9106,0.9106,0.9649,1.0319,0.0,1.2504,1.4254,1.6055,1.7382,1.8617,1.9813,2.0169,2.036,2.0486,2.0524,2.0587,2.0699,2.0917,2.1117,2.1289,2.1173,2.1223,2.1553,2.1875,2.3262,2.5796,2.5755,2.6763,2.8849,2.847,2.8329,2.841,2.8379,2.8491,2.8665,2.8021,2.8003,2.8451,2.9146,2.9628,2.9835,2.9105,2.8989,2.9136,2.8402,2.8174,2.8179,2.7979,2.7275,2.6433,2.6342,2.4796,2.2843,2.2072,2.1576,2.1199,2.0834,2.0626,2.0597,2.0906,2.1077,2.1273,2.167,2.2063,2.2347,2.2347,2.2649,2.2888,2.2888,2.2888,2.2888,2.2888,2.2888,2.2888,2.2888,2.2888,2.2775,2.2394,2.2347,2.2347,2.2347,2.1777,2.1224,2.0808,2.0758,2.0584,2.0169,2.0144,2.0283,2.0597,2.0182,2.008,2.0408,1.9965,1.9822,1.9974,1.9961,1.9896,1.983,1.979,1.979,1.8654,1.8771,1.8637,1.8207,1.765,1.6715,1.4829,0.0,1.2078,1.0186,0.9425,0.9106,0.9106,0.9503,1.0148,0.0,0.0,1.4269,1.6677,1.7792,1.8894,2.0268,2.0561,2.0599,2.0511,2.0612,2.0699,2.0699,2.1601,2.1896,2.1328,2.1128,2.1727,2.3306,2.3001,2.4218,2.7192,2.7318,2.7712,2.8369,2.8913,2.8459,2.7209,2.839,2.8706,2.8369,2.87,2.9059,2.9364,2.9329,2.97,3.0191,2.9508,2.9508,2.9828,2.9152,2.8904,2.8846,2.8406,2.7837,2.7208,2.6781,2.5283,2.3686,2.4067,2.308,2.1924,2.2359,2.2031,2.158,2.1615,2.1986,2.2443,2.2854,2.2888,2.2831,2.2831,2.2865,2.2888,2.2888,2.2888,2.2888,2.2888,2.2888,2.2888,2.2888,2.2888,2.2877,2.2831,2.2831,2.2831,2.2831,2.1966,2.1381,2.1333,2.1333,2.1308,2.126,2.1248,2.1272,2.1308,2.1138,2.1065,2.1102,2.0944,2.1171,2.1842,2.1726,2.1509,2.1199,2.1094,2.1094,1.8819,1.9097,1.9052,1.8637,1.7898,1.6681,1.4435,1.3076,1.1742,0.9783,0.9225,0.9135,0.9259,0.9327,0.9744,0.0,0.0,0.0,1.5329,1.6536,1.7782,1.9351,1.9906,2.0283,2.0585,2.0674,2.0823,2.1094,2.1823,2.228,2.2376,2.2269,2.2491,2.3162,2.3,2.4007,2.6281,2.6769,2.7495,2.8482,2.9157,2.93,2.9016,2.9624,2.9972,3.0132,3.0393,3.0584,3.0688,3.0643,3.0777,3.0999,3.0732,3.0747,3.0851,3.0509,2.9957,2.9319,2.9009,2.8308,2.7495,2.7301,2.6441,2.5429,2.4943,2.4036,2.3135,2.2982,2.246,2.2009,2.2242,2.2569,2.2896,2.306,2.3004,2.2888,2.2888,2.2888,2.2888,2.2888,2.2888,2.2888,2.2888,2.2888,2.2888,2.2888,2.2888,2.2888,2.2888,2.2888,2.2888,2.2888,2.254,2.2191,2.191,2.1874,2.173,2.1417,2.1393,2.1715,2.2389,2.206,2.2199,2.2931,2.2582,2.2525,2.2821,2.2768,2.2678,2.2535,2.2483,2.2483,1.8376,1.887,1.8954,1.8451,1.7699,1.6437,1.3966,1.2752,1.1581,0.9528,0.9106,0.9162,0.9361,0.9286,0.9557,0.0,0.0,1.2498,1.4637,1.5917,1.7199,1.8728,1.9433,1.9969,2.0386,2.0595,2.0946,2.1553,2.1957,2.2576,2.3495,2.3314,2.3181,2.3202,2.3002,2.3766,2.5588,2.6063,2.6976,2.8321,2.8979,2.948,2.9803,3.0287,3.0705,3.1082,3.1168,3.1316,3.1466,3.1092,3.1032,3.1182,3.1017,3.1046,3.1167,3.0902,3.0393,2.9804,2.928,2.8575,2.7857,2.766,2.7306,2.6818,2.6002,2.5183,2.4403,2.3958,2.3208,2.26,2.2867,2.3053,2.3149,2.3105,2.3004,2.2888,2.2888,2.2888,2.2888,2.2888,2.2888,2.2888,2.2888,2.2888,2.2888,2.2888,2.2888,2.2888,2.2888,2.2888,2.2888,2.2888,2.3073,2.306,2.2721,2.2883,2.284,2.2438,2.2413,2.2766,2.3571,2.3252,2.3448,2.4287,2.3935,2.384,2.4033,2.4033,2.3956,2.38,2.38,2.3708,1.7071,1.7867,1.8143,1.7399,1.6907,1.5958,1.347,1.2594,1.1688,0.9538,0.9106,0.9162,0.9361,0.9389,0.9721,1.0734,1.185,0.0,1.5222,1.6468,1.7617,1.8756,1.9433,1.9799,1.9812,2.0347,2.1094,2.2023,2.2105,2.283,2.4507,2.3962,2.3674,2.3874,2.3246,2.3766,2.5588,2.5603,2.6273,2.7615,2.8291,2.8607,2.8667,2.991,3.0507,3.0507,3.0507,3.0897,3.1406,3.0133,2.9982,3.0447,2.9847,2.9982,3.0447,2.9832,2.9997,3.0313,2.9056,2.8607,2.8472,2.7824,2.76,2.76,2.7572,2.6691,2.5664,2.5586,2.4605,2.3577,2.3505,2.34,2.3264,2.3138,2.3004,2.2888,2.2888,2.2888,2.2888,2.2888,2.2888,2.2888,2.2888,2.2888,2.2888,2.2888,2.2888,2.2888,2.2888,2.2888,2.2888,2.2888,2.3487,2.3888,2.3876,2.4486,2.4837,2.4771,2.4771,2.4771,2.4771,2.4771,2.4785,2.4785,2.4785,2.5102,2.5778,2.5778,2.5509,2.4989,2.4989,2.4659,1.5,1.5878,1.6509,1.5587,1.5327,1.474,1.257,1.2022,1.1407,0.9494,0.9106,0.9203,0.9546,0.9494,1.01,1.2258,1.2947,1.3816,1.5527,1.6942,1.7944,1.831,1.9563,2.0412,2.0412,2.089,2.1434,2.2046,2.2443,2.3211,2.4529,2.3958,2.3843,2.4356,2.4167,2.4338,2.4903,2.6273,2.6944,2.6929,2.8053,2.8607,2.8607,2.9026,2.9684,3.0507,3.0507,3.0613,3.0822,3.0882,3.0507,2.9907,3.0118,3.0073,2.9862,2.9668,2.9443,2.9146,2.8742,2.8306,2.7884,2.766,2.76,2.76,2.76,2.6996,2.6115,2.5171,2.4287,2.361,2.3577,2.3505,2.3433,2.3378,2.3279,2.3157,2.306,2.3037,2.3015,2.2925,2.2888,2.2888,2.2888,2.2888,2.2888,2.2888,2.2888,2.2888,2.2888,2.2888,2.2888,2.2888,2.3882,2.4343,2.3946,2.4459,2.4824,2.4798,2.4798,2.5013,2.5458,2.5487,2.5705,2.6155,2.617,2.6271,2.6487,2.6487,2.6395,2.6238,2.6238,2.6118,1.3256,1.4188,1.4853,1.3993,1.3847,1.347,1.1773,1.1371,1.0942,0.9512,0.9149,0.9223,0.9625,0.9605,1.022,1.237,1.304,1.3887,1.5656,1.6969,1.7996,1.8662,1.9859,2.0707,2.0945,2.1385,2.1874,2.2348,2.2706,2.3395,2.4541,2.3958,2.3913,2.459,2.435,2.447,2.4963,2.6213,2.6884,2.6988,2.7827,2.8366,2.8607,2.8861,2.9535,3.0507,3.0507,3.0643,0.0,3.0538,3.0088,2.9578,2.9458,2.9338,2.9189,2.8948,2.874,2.8562,2.8321,2.7959,2.76,2.76,2.76,2.76,2.76,2.7123,2.6435,2.5588,2.4691,2.3962,2.3944,2.3721,2.3487,2.3444,2.3352,2.3275,2.319,2.3183,2.3146,2.3068,2.3056,2.3056,2.3056,2.3012,2.2981,2.2981,2.2936,2.2888,2.2888,2.2888,2.3001,2.3244,2.4201,2.4752,2.4629,2.5197,2.5548,2.5548,2.5548,2.5736,2.6153,2.6183,2.6371,2.6792,2.6792,2.6792,2.6792,2.6792,2.6792,2.6792,2.6792,2.6792,0.0,1.267,1.312,1.2534,1.2436,1.2167,1.1067,1.0702,0.0,0.9569,0.9252,0.9267,0.9729,0.9803,1.0261,1.1706,1.2626,1.3834,1.5823,1.685,1.7996,1.9669,2.0289,2.0785,2.1357,2.186,2.2348,2.2856,2.2934,2.3414,2.4477,2.3928,2.3883,2.4515,2.3973,2.4298,2.5588,2.5693,2.6375,2.76,2.76,2.7946,2.8622,2.9249,2.9862,3.0432,3.0432,3.0762,3.1152,2.9342,2.8949,2.9324,2.8079,2.7976,2.8442,2.7839,2.7991,2.8442,2.7824,2.76,2.76,2.76,2.76,2.76,2.76,2.7123,2.6584,2.6539,2.5615,2.4608,2.4462,2.3974,2.3487,2.3352,2.333,2.333,2.3319,2.3308,2.3308,2.3297,2.3297,2.3297,2.3297,2.319,2.3093,2.3093,2.2992,2.2888,2.2888,2.2888,2.3171,2.383,2.4445,2.5071,2.5732,2.6415,2.6792,2.6792,2.6792,2.6792,2.6792,2.6792,2.6792,2.6792,2.6792,2.6792,2.6792,2.6792,2.6792,2.6792,2.6792,2.6792,0.9989,0.0,1.0887,1.0473,1.0739,1.0885,0.0,1.0293,1.037,0.9569,0.0,0.9679,1.0787,1.0792,1.1643,1.4759,1.5436,1.6186,1.7961,1.8774,1.9512,2.0373,2.0893,2.1248,2.1397,2.2203,2.2765,2.2889,2.3235,2.3561,2.3823,2.3684,2.367,2.3823,2.4182,2.4765,2.5588,2.6614,2.7285,2.76,2.76,2.7946,2.8607,2.8757,2.919,2.9817,2.9817,2.9609,2.9252,2.8786,2.8395,2.8034,2.772,2.7705,2.7824,2.766,2.7705,2.7809,2.7645,2.76,2.76,2.76,2.76,2.76,2.76,2.7123,2.6494,2.5974,2.5392,2.4736,2.4003,2.3697,2.3577,2.3545,2.3519,2.3523,2.3462,2.3455,2.3433,2.3319,2.3297,2.3297,2.3297,2.319,2.3093,2.3093,2.2992,2.2888,2.2888,2.2888,2.3171,2.383,2.4445,2.5071,2.5732,2.6415,2.6792,2.6792,2.6792,2.6792,2.6792,2.6792,2.6792,2.6792,2.6792,2.6792,2.6792,2.6792,2.6792,2.6792,2.6792,2.6792,0.9487,1.013,1.0673,1.0324,1.0606,1.0869,1.0486,0.0,0.0,0.0,0.0,0.9735,1.0835,1.1157,1.2244,1.5266,1.6113,1.7081,1.9041,1.9838,2.0334,2.066,2.13,2.172,2.172,2.2637,2.3224,2.3224,2.3454,2.3595,2.3595,2.3595,2.3595,2.3595,2.4556,2.5232,2.5603,2.6629,2.73,2.76,2.76,2.7946,2.8607,2.8607,2.8979,2.9593,2.9593,2.9398,2.9026,2.8727,2.8382,2.8021,2.772,2.76,2.76,2.76,2.76,2.76,2.76,2.76,2.76,2.76,2.76,2.76,2.76,2.7345,2.6983,2.6624,2.5923,2.5156,2.4649,2.4056,2.3595,2.3595,2.3595,2.3599,2.3545,2.3549,2.3512,2.3447,2.3436,2.3436,2.3436,2.3341,2.3397,2.3695,2.3637,2.352,2.3463,2.3497,2.378,2.4387,2.4776,2.5384,2.636,2.6769,2.6937,2.6806,2.6792,2.6792,2.6792,2.6792,2.6792,2.6792,2.6792,2.6792,2.6792,2.6792,2.6792,2.6792,2.6792,2.6792,0.9812,1.0822,1.1582,1.0991,1.1183,1.1465,1.1307,0.0,0.0,0.0,0.0,0.0,1.0931,1.1711,1.2917,1.5119,1.6286,1.763,1.9643,2.0373,2.0724,2.0799,2.1563,2.2128,2.221,2.3065,2.3606,2.3627,2.3627,2.3627,2.3627,2.3627,2.3676,2.3744,2.4945,2.5648,2.5737,2.642,2.7046,2.76,2.76,2.7946,2.8607,2.8607,2.8906,2.9443,2.9443,2.9383,2.9234,2.8562,2.8293,2.8233,2.7557,2.736,2.745,2.745,2.751,2.76,2.76,2.76,2.76,2.76,2.76,2.76,2.76,2.76,2.7603,2.7606,2.6784,2.5813,2.5395,2.4446,2.36,2.3599,2.3595,2.3595,2.3595,2.3595,2.3595,2.3595,2.3595,2.3595,2.3595,2.3638,2.3855,2.4413,2.4473,2.4402,2.4297,2.4378,2.4652,2.5216,2.532,2.584,2.7089,2.7207,2.7091,2.6859,2.6819,2.6819,2.6792,2.6792,2.6792,2.6792,2.6792,2.6792,2.6792,2.6792,2.6792,2.6792,2.6792,2.6806,1.0778,1.2146,1.2756,1.0998,1.1275,1.1905,1.1613,0.0,0.0,0.0,0.0,0.0,0.0,1.3994,1.5176,1.7282,1.8554,1.9589,2.0438,2.0634,2.0848,2.1253,2.1766,2.2279,2.2728,2.3279,2.3653,2.376,2.376,2.376,2.376,2.376,2.3977,2.4425,2.5199,2.5857,2.645,2.7121,2.7495,2.76,2.76,2.7946,2.8607,2.8607,2.8652,2.8742,2.8742,2.8425,2.7854,2.7183,2.6914,2.6841,2.6168,2.6243,2.6749,2.6749,2.7121,2.76,2.76,2.76,2.76,2.76,2.76,2.76,2.76,2.76,2.7603,2.7606,2.7458,2.678,2.4499,2.3755,2.36,2.36,2.3595,2.3595,2.3595,2.3595,2.3595,2.3595,2.3595,2.3595,2.3595,2.4015,2.4368,2.4487,2.4869,2.5139,2.5115,2.5127,2.5377,2.5977,2.6049,2.6356,2.712,2.7207,2.713,2.6977,2.6964,2.6925,2.6792,2.6792,2.6792,2.6792,2.6792,2.6792,2.6792,2.6792,2.6792,2.6792,2.6792,2.6859,1.0229,1.1181,1.183,1.1412,1.2626,1.3858,1.3517,1.2881,0.0,0.0,0.0,0.0,0.0,1.5014,1.6474,1.8661,1.9828,2.0508,2.0685,2.0699,2.0873,2.1338,2.1801,2.2302,2.2856,2.3323,2.3664,2.3797,2.3728,2.3717,2.3807,2.3728,2.3799,2.4048,2.4709,2.5379,2.6048,2.6719,2.724,2.76,2.76,2.7946,2.8592,2.8216,2.8261,2.8577,2.8216,2.7872,2.757,2.727,2.7151,2.7063,2.6393,2.633,2.6599,2.6599,2.7018,2.76,2.76,2.76,2.76,2.76,2.76,2.7595,2.761,2.7593,2.7598,2.7594,2.6549,2.549,2.5709,2.4687,2.3602,2.3604,2.3595,2.3595,2.3595,2.3595,2.3595,2.3595,2.3595,2.3595,2.3595,2.3822,2.4356,2.5335,2.567,2.585,2.5883,2.5961,2.6077,2.6288,2.6367,2.6698,2.735,2.741,2.7297,2.7016,2.6938,2.6859,2.6792,2.6792,2.6792,2.6792,2.6792,2.6846,2.6912,2.6912,2.6951,2.7028,2.7028,2.7054,0.9916,1.0447,1.1077,1.2189,0.0,1.5,1.513,1.437,0.0,0.0,0.0,0.0,1.5155,1.6379,1.7918,1.9848,2.0595,2.0885,2.0711,2.0786,2.1033,2.1506,2.199,2.2498,2.3057,2.3432,2.3717,2.3882,2.3807,2.376,2.3839,2.375,2.3739,2.3834,2.4335,2.4993,2.5839,2.6333,2.6929,2.76,2.76,2.7869,2.8351,2.7839,2.7884,2.8336,2.7824,2.76,2.76,2.76,2.751,2.73,2.6629,2.6375,2.6393,2.6719,2.7165,2.76,2.76,2.76,2.76,2.76,2.76,2.759,2.7606,2.7165,2.6793,2.7413,2.6123,2.4999,2.7069,2.6087,2.4387,2.3743,2.3603,2.3602,2.3602,2.3611,2.3595,2.3595,2.3595,2.3595,2.3595,2.3596,2.4189,2.589,2.6396,2.6621,2.6673,2.6762,2.6787,2.6701,2.6762,2.7046,2.7555,2.7575,2.7425,2.712,2.6963,2.6884,2.6859,2.6871,2.6897,2.6897,2.6897,2.6937,2.7055,2.7055,2.7106,2.7207,2.7207,2.722,1.0883,1.1345,1.1816,1.3446,1.3607,0.0,1.5299,1.5482,0.0,1.688,0.0,1.7244,1.797,1.9103,2.0224,2.1138,2.097,2.0711,2.0699,2.107,2.153,2.1988,2.2523,2.3079,2.3674,2.3775,2.3882,2.4145,2.4156,2.4114,2.3993,2.3982,2.4152,2.4515,2.4563,2.5217,2.6524,2.6584,2.6929,2.76,2.76,2.7642,2.766,2.7615,2.7642,2.766,2.7615,2.76,2.76,2.76,2.724,2.6614,2.5917,2.5663,2.5812,2.7063,2.7555,2.76,2.76,2.76,2.76,2.76,2.76,2.759,2.7606,2.5854,2.4416,2.6901,2.7457,2.7369,2.7545,2.7452,2.6669,2.4186,2.3588,2.3591,2.3591,2.3592,2.3595,2.3595,2.3595,2.3595,2.3595,2.3601,2.4069,2.544,2.6704,2.7512,2.7512,2.7525,2.7525,2.7512,2.7525,2.754,2.76,2.7488,2.7401,2.7376,2.7246,2.7119,2.699,2.7106,2.7168,2.7168,2.7168,2.7181,2.7194,2.7194,2.7194,2.7207,2.7207,2.7271,1.0244,1.0937,1.1829,1.3469,1.3852,0.0,0.0,1.6769,1.7549,1.8405,1.8567,1.8797,1.9618,1.9999,2.0414,2.1049,2.1204,2.1131,2.0749,2.1434,2.199,2.2093,2.2649,2.3227,2.3754,2.3882,2.4003,2.4192,2.4124,2.4092,2.4124,2.3972,2.395,2.4108,2.4021,2.4421,2.5349,2.5767,2.6303,2.6973,2.7405,2.76,2.76,2.76,2.76,2.76,2.76,2.765,2.7728,2.7625,2.75,2.7264,2.6519,2.6213,2.6273,2.6794,2.724,2.76,2.76,2.76,2.76,2.76,2.76,2.7603,2.7604,2.573,2.3808,2.4823,2.6319,2.7599,2.76,2.7599,2.7345,2.6337,2.609,2.5626,2.3952,2.3589,2.3604,2.3604,2.3604,2.3604,2.3604,2.3604,2.4338,2.6527,2.7285,2.76,2.76,2.76,2.76,2.76,2.76,2.76,2.76,2.7549,2.7511,2.7511,2.7323,2.7181,2.7131,2.7168,2.7207,2.7207,2.7207,2.7246,2.731,2.731,2.7374,2.7448,2.7448,2.7473,1.0014,1.0807,1.1938,0.0,0.0,0.0,1.668,1.7734,1.8721,1.9865,2.0158,2.0372,2.0871,2.0754,2.0698,2.1077,2.1399,2.1496,2.1155,2.1931,2.2523,2.2432,2.2957,2.3458,2.3829,2.3982,2.4114,2.4218,2.4151,2.4109,2.4135,2.3961,2.3829,2.3739,2.3653,2.3913,2.459,2.5064,2.5618,2.6288,2.6749,2.7195,2.76,2.76,2.76,2.76,2.7638,2.7728,2.7803,2.7753,2.767,2.7505,2.7129,2.6855,2.6678,2.6851,2.7063,2.7285,2.7285,2.7427,2.7593,2.7593,2.7602,2.7596,2.7595,2.5722,2.3601,2.36,2.5534,2.7595,2.7598,2.76,2.76,2.76,2.7604,2.7088,2.5262,2.4197,2.3591,2.3603,2.4276,2.4855,2.4855,2.4159,2.4514,2.7197,2.7601,2.76,2.76,2.76,2.76,2.76,2.76,2.76,2.76,2.76,2.76,2.76,2.7423,2.731,2.7258,2.731,2.7321,2.7321,2.7321,2.7374,2.7463,2.7463,2.7514,2.76,2.76,2.76,1.048,1.1196,1.2301,0.0,0.0,0.0,1.785,1.8285,1.9067,2.1327,2.202,2.2126,2.1841,2.158,2.1399,2.1411,2.152,2.1698,2.1973,2.2643,2.3105,2.3105,2.3523,2.3861,2.3993,2.4124,2.4229,2.4307,2.4292,2.4213,2.4014,2.4003,2.3882,2.3606,2.3595,2.3913,2.4578,2.4593,2.4933,2.5588,2.5603,2.6303,2.7585,2.7585,2.7585,2.7612,2.774,2.7803,2.7815,2.7943,2.761,2.706,2.7581,2.7384,2.6862,2.741,2.718,2.6599,2.6599,2.7028,2.7573,2.7573,2.7563,2.7565,2.7562,2.5711,2.3604,2.3625,2.5552,2.7598,2.76,2.76,2.76,2.76,2.76,2.7595,2.7604,2.5485,2.3603,2.36,2.5736,2.756,2.756,2.5357,2.4511,2.7202,2.7601,2.76,2.76,2.76,2.76,2.76,2.76,2.76,2.76,2.76,2.76,2.76,2.76,2.7537,2.7414,2.7539,2.76,2.76,2.76,2.76,2.76,2.76,2.76,2.76,2.76,2.76,1.1175,1.2374,0.0,1.5441,0.0,0.0,0.0,2.0252,0.0,0.0,2.1853,2.1902,2.1805,2.158,2.1496,2.1769,2.2203,2.248,2.2377,2.3238,2.37,2.3231,2.3707,2.4103,2.4135,2.4229,2.4286,2.4292,2.4292,2.4255,2.4145,2.4046,2.3914,2.375,2.3653,2.3699,2.3898,2.4365,2.4709,2.4903,2.546,2.6147,2.6899,2.6899,2.7215,2.774,2.7778,2.7903,2.8076,2.8113,2.7969,2.7704,2.7765,2.7682,2.7507,2.7575,2.718,2.6599,2.6599,2.6426,2.6195,2.6195,2.5563,2.4792,2.4796,2.4223,2.3997,2.587,2.6992,2.7601,2.7598,2.76,2.76,2.76,2.76,2.7608,2.7602,2.5482,2.3593,2.3602,2.4233,2.4785,2.4798,2.4127,2.4514,2.7204,2.7601,2.76,2.76,2.76,2.76,2.76,2.76,2.76,2.76,2.76,2.76,2.76,2.76,2.7575,2.7537,2.7575,2.76,2.76,2.76,2.76,2.76,2.76,2.76,2.76,2.76,2.76,1.2286,1.3633,0.0,1.6997,1.8116,1.9299,2.1218,2.1531,2.1528,2.1878,2.1864,2.1793,2.1793,2.158,2.1554,2.2039,2.2561,2.2934,2.2998,2.37,2.4046,2.3653,2.395,2.4202,2.4202,2.4255,2.4292,2.4292,2.4276,2.4229,2.4124,2.3993,2.3882,2.3807,2.3674,2.3653,2.376,2.4116,2.4316,2.436,2.4844,2.5398,2.5977,2.6519,2.7022,2.7503,2.7819,2.8076,2.8287,2.8287,2.8238,2.814,2.8002,2.7965,2.794,2.7738,2.7092,2.6258,2.6222,2.5635,2.4916,2.4833,2.4258,2.3609,2.361,2.4338,2.5539,2.7142,2.76,2.76,2.76,2.76,2.76,2.76,2.76,2.76,2.76,2.5497,2.3603,2.3606,2.3599,2.3947,2.5013,2.5193,2.5751,2.7367,2.7601,2.76,2.76,2.76,2.76,2.76,2.76,2.76,2.76,2.76,2.76,2.76,2.76,2.76,2.76,2.76,2.76,2.76,2.76,2.76,2.76,2.76,2.76,2.76,2.76,2.76,1.3515,1.4765,1.6151,1.8105,1.9129,2.0098,2.1816,2.2208,2.2208,2.2208,2.1996,2.1793,2.1793,2.164,2.166,2.227,2.2706,2.3179,2.376,2.4071,2.4208,2.4208,2.4208,2.4208,2.4208,2.4266,2.4292,2.4292,2.4234,2.4156,2.4024,2.3893,2.3829,2.3829,2.3707,2.375,2.4003,2.3882,2.3882,2.4003,2.4003,2.4333,2.4971,2.6229,2.6885,2.706,2.7871,2.8299,2.8411,2.8411,2.8411,2.8399,2.8247,2.8198,2.8174,2.7915,2.7004,2.588,2.57,2.4867,2.3851,2.3679,2.3646,2.3661,2.3661,2.5503,2.76,2.76,2.76,2.76,2.76,2.76,2.76,2.76,2.76,2.76,2.76,2.5489,2.3603,2.3602,2.3595,2.4438,2.7152,2.7595,2.7595,2.7595,2.7609,2.76,2.76,2.76,2.76,2.76,2.76,2.76,2.76,2.76,2.76,2.76,2.76,2.76,2.76,2.76,2.76,2.76,2.76,2.76,2.76,2.76,2.76,2.76,2.76,2.76,1.3529,1.4694,0.0,1.8595,2.0403,2.1704,2.2109,2.2208,2.2208,2.2208,2.1996,2.1793,2.1793,2.1969,2.2258,2.2694,2.3246,2.3739,2.4146,2.4229,2.4286,2.4286,2.4286,2.4286,2.4286,2.4297,2.4292,2.4292,2.4297,2.4234,2.4156,2.4124,2.4071,2.3961,2.394,2.395,2.4003,2.3972,2.3972,2.4003,2.4114,2.4232,2.44,2.51,2.607,2.7199,2.8008,2.836,2.8411,2.8411,2.8411,2.8399,2.8247,2.8198,2.8174,2.8017,2.7437,2.666,2.6106,2.4935,2.3685,2.3853,2.4021,2.4152,2.4152,2.5758,2.76,2.76,2.76,2.76,2.76,2.76,2.76,2.76,2.76,2.76,2.76,2.5488,2.3602,2.3603,2.3595,2.4447,2.7133,2.761,2.761,2.761,2.76,2.76,2.76,2.76,2.76,2.76,2.76,2.76,2.76,2.76,2.76,2.76,2.76,2.76,2.76,2.76,2.76,2.76,2.76,2.76,2.76,2.76,2.76,2.76,2.76,2.76,1.3382,0.0,0.0,1.9161,0.0,2.2208,2.2208,2.2208,2.2254,2.2414,2.21,2.1947,2.2437,2.2397,2.2535,2.3224,2.3588,2.3925,2.425,2.4292,2.4292,2.4292,2.4292,2.4292,2.4292,2.4292,2.4292,2.4292,2.4266,2.4239,2.4202,2.4135,2.4103,2.4103,2.4024,2.4046,2.4151,2.4109,2.4109,2.4151,2.4203,2.4245,2.4275,2.486,2.5759,2.6853,2.7603,2.7919,2.795,2.8273,2.8411,2.8399,2.8323,2.8299,2.8287,2.8152,2.7674,2.7034,2.6625,2.5587,2.441,2.4098,2.4146,2.4551,2.586,2.7071,2.794,2.7675,2.76,2.76,2.76,2.76,2.76,2.76,2.76,2.76,2.76,2.6507,2.5132,2.3849,2.3595,2.4459,2.7136,2.76,2.76,2.76,2.76,2.76,2.76,2.76,2.76,2.76,2.76,2.76,2.76,2.76,2.76,2.76,2.76,2.76,2.76,2.76,2.76,2.76,2.76,2.76,2.76,2.76,2.76,2.76,2.76,2.76,1.282,0.0,1.6598,1.9641,2.1226,2.209,2.2249,2.2301,2.2402,2.2811,2.24,2.2226,2.3127,2.2889,2.2827,2.3664,2.3861,2.3988,2.4261,2.4292,2.4292,2.4292,2.4292,2.4292,2.4292,2.4292,2.4292,2.4292,2.4245,2.4208,2.4208,2.4109,2.4098,2.4208,2.4109,2.4125,2.4292,2.4234,2.425,2.4292,2.4292,2.4292,2.4322,2.4876,2.5507,2.6252,2.6919,2.7288,2.7442,2.7996,2.8304,2.8411,2.8411,2.8411,2.8399,2.8287,2.7883,2.7366,2.7088,2.6523,2.5714,2.4458,2.4156,2.4815,2.758,2.8411,2.8311,2.7863,2.7738,2.7713,2.7625,2.76,2.76,2.76,2.76,2.76,2.76,2.76,2.6941,2.4728,2.4294,2.4998,2.721,2.76,2.76,2.76,2.76,2.76,2.76,2.76,2.76,2.76,2.76,2.76,2.76,2.76,2.76,2.76,2.76,2.76,2.76,2.76,2.76,2.76,2.76,2.76,2.76,2.7625,2.7625,2.7638,2.7663,2.7663,1.119,0.0,1.7178,0.0,2.0903,2.1637,2.2443,2.264,2.2833,2.3512,2.3079,2.2731,2.3205,2.3458,2.3642,2.3771,2.4041,2.425,2.4281,2.4292,2.4292,2.4292,2.4292,2.4292,2.4292,2.4292,2.4292,2.4292,2.4297,2.4297,2.4297,2.4261,2.4276,2.4297,2.4261,2.4261,2.4292,2.4297,2.4297,2.4292,2.4292,2.4292,2.4292,2.4384,2.4799,2.5492,2.6222,2.6868,2.7411,2.7503,2.7873,2.8411,2.8411,2.8411,2.8411,2.8372,2.8326,2.8126,2.7287,2.7437,2.7591,2.5075,2.4271,2.4815,2.758,2.8411,2.8387,2.8311,2.8287,2.8189,2.7725,2.76,2.76,2.76,2.76,2.76,2.76,2.76,2.748,2.7136,2.7061,2.718,2.754,2.76,2.76,2.76,2.76,2.76,2.76,2.76,2.76,2.76,2.76,2.76,2.76,2.76,2.76,2.76,2.76,2.76,2.76,2.76,2.76,2.76,2.76,2.76,2.76,2.7728,2.7778,2.7778,2.7893,2.7943,1.2,1.4633,1.7251,0.0,2.0855,2.1735,2.2291,2.2739,2.3183,2.3685,2.3545,2.3432,2.3792,2.3829,2.3861,2.4051,2.4198,2.4292,2.4292,2.4292,2.4292,2.4292,2.4292,2.4292,2.4292,2.4292,2.4292,2.4292,2.4292,2.4292,2.4292,2.4292,2.4292,2.4292,2.4292,2.4416,2.4629,2.44,2.4292,2.4292,2.4292,2.4292,2.4292,2.4292,2.4461,2.4784,2.5476,2.5953,2.6276,2.7072,2.7565,2.7873,2.8258,2.8411,2.8411,2.8411,2.8411,2.835,2.7934,2.8045,2.8211,2.6984,2.6611,2.6815,2.8042,2.8411,2.8088,2.6538,2.7211,2.8348,2.81,2.784,2.76,2.76,2.6447,2.5357,2.5357,2.6537,2.76,2.76,2.76,2.76,2.76,2.76,2.76,2.76,2.76,2.76,2.76,2.76,2.76,2.76,2.76,2.76,2.76,2.76,2.76,2.76,2.76,2.76,2.76,2.774,2.7788,2.7723,2.7635,2.76,2.76,2.7663,2.774,2.7803,2.7868,2.793,0.0,0.0,1.5945,1.8721,2.0131,2.1063,2.1904,2.2655,2.3274,2.3604,2.3814,2.3999,2.425,2.4094,2.4009,2.4261,2.4292,2.4292,2.4292,2.4292,2.4292,2.4292,2.4292,2.4292,2.4292,2.4292,2.4292,2.4292,2.4292,2.4292,2.4292,2.4292,2.4292,2.4292,2.4292,2.4441,2.4734,2.4441,2.4292,2.4292,2.4292,2.4292,2.4292,2.4292,2.4292,2.4322,2.483,2.5138,2.5384,2.6441,2.7072,2.7442,2.795,2.8258,2.8411,2.8411,2.8411,2.8411,2.8411,2.8411,2.8276,2.7596,2.7353,2.7353,2.7353,2.7857,2.7969,2.5918,2.6815,2.8411,2.8411,2.81,2.7777,2.7637,2.6077,2.4623,2.4623,2.618,2.76,2.76,2.76,2.76,2.76,2.76,2.76,2.76,2.76,2.76,2.76,2.76,2.76,2.76,2.76,2.76,2.76,2.76,2.76,2.76,2.76,2.7663,2.7788,2.793,2.7952,2.787,2.7763,2.7675,2.765,2.7688,2.7753,2.784,2.7915,2.8005,0.0,1.1752,0.0,1.6978,1.8158,1.8829,2.1266,2.234,2.2909,2.3258,2.3825,2.4281,2.4292,2.4297,2.4281,2.4292,2.4292,2.4292,2.4292,2.4292,2.4292,2.4292,2.4292,2.4292,2.4292,2.4292,2.4292,2.4292,2.4292,2.4292,2.4292,2.4292,2.4292,2.4292,2.4292,2.4312,2.4333,2.4312,2.4292,2.4292,2.4292,2.4292,2.4292,2.4292,2.4292,2.4292,2.4338,2.4707,2.5307,2.5384,2.6211,2.7396,2.7442,2.7842,2.8411,2.8411,2.8411,2.8411,2.8411,2.8411,2.798,2.5353,2.4507,2.4507,2.4507,2.6322,2.8369,2.8227,2.8288,2.8411,2.8411,2.8372,2.823,2.7721,2.7492,2.739,2.739,2.7495,2.76,2.76,2.76,2.76,2.76,2.76,2.76,2.76,2.76,2.76,2.76,2.76,2.76,2.76,2.76,2.76,2.76,2.76,2.76,2.76,2.76,2.7825,2.8335,2.8131,2.8029,2.8085,2.8029,2.7918,2.779,2.7918,2.798,2.8007,2.825,2.836,0.0,0.0,0.0,1.5256,1.7186,1.8819,1.9943,2.1375,2.2642,2.319,2.3586,2.3945,2.4246,2.4292,2.4292,2.4292,2.4292,2.4292,2.4292,2.4292,2.4292,2.4292,2.4292,2.4292,2.4292,2.4292,2.4292,2.4292,2.4292,2.4292,2.4292,2.4292,2.4292,2.4292,2.4292,2.4292,2.4292,2.4563,2.4563,2.4292,2.4292,2.4292,2.4292,2.4292,2.4292,2.4292,2.4292,2.4581,2.5055,2.524,2.5747,2.6456,2.6635,2.703,2.7503,2.7503,2.7888,2.8411,2.8411,2.723,2.5599,2.4615,2.5492,2.6934,2.6934,2.7626,2.8411,2.8411,2.8411,2.8411,2.8411,2.8411,2.7834,2.5573,2.6356,2.7603,2.7608,2.7602,2.76,2.76,2.76,2.76,2.76,2.76,2.76,2.76,2.76,2.76,2.76,2.76,2.76,2.76,2.76,2.76,2.76,2.76,2.76,2.76,2.7927,2.8201,2.8399,2.8314,2.8226,2.8174,2.8137,2.8051,2.793,2.798,2.8042,2.8125,2.8223,2.8323,0.9447,0.0,0.0,1.4245,1.589,1.7474,1.8952,2.0326,2.1488,2.2141,2.2755,2.3268,2.3578,2.3625,2.3779,2.4241,2.4292,2.4292,2.4292,2.4292,2.4292,2.4292,2.4292,2.4292,2.4292,2.4292,2.4292,2.4292,2.4292,2.4292,2.4292,2.4292,2.4364,2.4502,2.4374,2.4364,2.4502,2.4629,2.4558,2.4292,2.4292,2.4292,2.4292,2.4292,2.4292,2.4292,2.4292,2.4451,2.471,2.5036,2.5467,2.592,2.6095,2.6426,2.678,2.6615,2.6753,2.7015,2.7015,2.5841,2.4292,2.4292,2.5549,2.7015,2.7015,2.7015,2.7215,2.8138,2.8411,2.8411,2.8411,2.8411,2.7621,2.4557,2.5895,2.7871,2.7881,2.774,2.76,2.76,2.76,2.76,2.76,2.76,2.76,2.76,2.76,2.76,2.76,2.76,2.76,2.76,2.76,2.7675,2.7838,2.7878,2.7878,2.7878,2.8201,2.8411,2.8411,2.8411,2.836,2.8259,2.8259,2.8226,2.8128,2.8091,2.81,2.8198,2.8247,2.8311,0.0,0.0,0.0,1.3944,1.4204,1.4666,1.8322,1.9187,1.9418,2.0119,2.1313,2.2243,2.228,2.2305,2.2726,2.4025,2.4261,2.4287,2.4292,2.4292,2.4292,2.4292,2.4292,2.4292,2.4292,2.4292,2.4292,2.4292,2.4292,2.4292,2.4292,2.4292,2.4482,2.4863,2.4513,2.4513,2.4893,2.4513,2.4312,2.4312,2.4302,2.4292,2.4292,2.4292,2.4292,2.4292,2.4292,2.4302,2.4343,2.4729,2.5267,2.5873,2.5862,2.6055,2.6283,2.5841,2.5076,2.4292,2.4292,2.4292,2.4292,2.4292,2.4292,2.4292,2.4292,2.4292,2.4856,2.7534,2.835,2.8411,2.8411,2.8411,2.7722,2.5072,2.6466,2.8394,2.8403,2.7986,2.7625,2.7625,2.7597,2.7612,2.7625,2.7625,2.7625,2.7625,2.7625,2.7625,2.7625,2.7612,2.7612,2.7625,2.7625,2.7825,2.8363,2.8411,2.8411,2.8411,2.8411,2.8411,2.8411,2.8411,2.8411,2.8411,2.8411,2.8411,2.8411,2.8259,2.821,2.821,2.8335,2.8411,0.9501,0.0,0.0,0.0,0.0,0.0,1.5447,1.6478,1.7672,1.9307,2.005,2.0793,2.2065,2.2418,2.2589,2.2823,2.3255,2.3748,2.423,2.4292,2.4292,2.4292,2.4292,2.4292,2.4292,2.4292,2.4292,2.4292,2.4292,2.4292,2.4292,2.4292,2.4354,2.4451,2.4639,2.4799,2.4902,2.4799,2.4739,2.4739,2.4431,2.4292,2.4292,2.4292,2.4292,2.4292,2.4292,2.4462,2.4719,2.4543,2.4754,2.5147,2.4864,2.4797,2.4872,2.4738,2.4522,2.4292,2.4292,2.4292,2.4292,2.4292,2.4292,2.4292,2.4292,2.4292,2.4471,2.5215,2.6872,2.8411,2.8411,2.8411,2.8211,2.7445,2.7852,2.8404,2.8397,2.8287,2.8189,2.8189,2.7861,2.7717,2.811,2.8189,2.8189,2.8189,2.8189,2.8189,2.8189,2.7838,2.775,2.814,2.8189,2.8238,2.8399,2.8411,2.8411,2.8411,2.8411,2.8411,2.8411,2.8411,2.8411,2.8411,2.8411,2.8411,2.8411,2.836,2.8335,2.8348,2.8372,2.8411,0.0,0.0,0.0,1.2243,0.0,0.0,1.4538,1.5347,1.6382,1.7789,1.8602,1.9379,2.0403,2.0945,2.1277,2.143,2.2028,2.2803,2.3748,2.3876,2.3994,2.4271,2.4292,2.4292,2.4292,2.4292,2.4292,2.4292,2.4292,2.4292,2.4292,2.4292,2.4451,2.4784,2.4699,2.4803,2.5141,2.4813,2.4649,2.4649,2.44,2.4292,2.4292,2.4292,2.4292,2.4292,2.4292,2.4421,2.4629,2.4405,2.4644,2.5102,2.4709,2.4578,2.4614,2.4385,2.4292,2.4292,2.4292,2.4292,2.4292,2.4292,2.4292,2.4292,2.4292,2.4292,2.4292,2.4292,2.5446,2.6688,2.6688,2.6688,2.6688,2.6688,2.758,2.8411,2.8411,2.8411,2.8411,2.8411,2.8152,2.8033,2.836,2.8411,2.8411,2.8411,2.8411,2.8411,2.8411,2.814,2.8051,2.8375,2.8411,2.8411,2.8411,2.8411,2.8411,2.8411,2.8411,2.8411,2.8411,2.8411,2.8411,2.8411,2.8411,2.8411,2.8411,2.8411,2.8411,2.8411,2.8411,2.8411,0.0,0.0,0.0,1.3843,1.3763,0.0,1.4797,1.5186,1.5473,1.5935,1.6974,1.7853,1.7984,1.8616,1.9312,1.9906,2.0632,2.1618,2.2988,2.3179,2.3409,2.3999,2.4087,2.4107,2.4184,2.4184,2.4215,2.4292,2.4292,2.4312,2.4364,2.4374,2.4709,2.5474,2.4843,2.4813,2.5493,2.4784,2.44,2.4374,2.4312,2.4292,2.4292,2.4292,2.4292,2.4292,2.4292,2.4323,2.4364,2.4312,2.4719,2.5332,2.4971,2.4902,2.4952,2.4472,2.4292,2.4292,2.4292,2.4292,2.4292,2.4292,2.4292,2.4322,2.4487,2.4522,2.4553,2.4707,2.4548,2.4292,2.4292,2.4522,2.4753,2.4753,2.6615,2.8411,2.8411,2.8411,2.8411,2.8411,2.8411,2.8411,2.8411,2.8411,2.8411,2.8411,2.8411,2.8411,2.8411,2.8411,2.8411,2.8411,2.8411,2.8411,2.8411,2.8411,2.8411,2.8411,2.8411,2.8411,2.8411,2.8411,2.8411,2.8411,2.8411,2.8411,2.8411,2.8411,2.8411,2.8411,2.8411,2.8411,1.3666,1.4099,1.4629,1.4379,1.509,0.0,1.4264,1.447,1.4926,1.4983,1.5197,1.5675,1.6651,1.7435,1.7966,1.8106,1.9186,2.06,2.2256,2.2496,2.2542,2.268,2.2696,2.2911,2.344,2.3502,2.3717,2.4261,2.4292,2.4431,2.4769,2.4789,2.5001,2.5484,2.5661,2.567,2.5503,2.5342,2.5102,2.4789,2.4451,2.4292,2.4292,2.4292,2.4292,2.4292,2.4292,2.4482,2.4769,2.4421,2.4395,2.4533,2.4441,2.4421,2.4441,2.4343,2.4292,2.4292,2.4292,2.4292,2.4292,2.4292,2.4292,2.4518,2.5641,2.5991,2.6222,2.7303,2.601,2.4292,2.4292,2.5938,2.7599,2.7599,2.7999,2.8411,2.8411,2.8411,2.8411,2.8411,2.8411,2.8411,2.8411,2.8411,2.8411,2.8411,2.8411,2.8411,2.8411,2.8411,2.8411,2.8411,2.8411,2.8411,2.8411,2.8411,2.8411,2.8411,2.8411,2.8411,2.8411,2.8411,2.8411,2.8411,2.8411,2.8411,2.8411,2.8411,2.8411,2.8411,2.8411,2.8411,1.4838,1.5193,1.5622,1.5361,1.5926,0.0,0.0,1.4937,1.5363,1.5642,1.54,1.5437,1.6387,1.6849,1.7109,1.7109,1.8554,1.9885,2.0424,2.1317,2.1994,2.2274,2.2295,2.2434,2.2773,2.2803,2.301,2.3501,2.3893,2.4261,2.462,2.5003,2.5389,2.579,2.5615,2.5503,2.5503,2.5092,2.4809,2.4588,2.4405,2.4292,2.4292,2.4292,2.4292,2.4292,2.4292,2.4533,2.4863,2.4462,2.4426,2.4584,2.4385,2.4292,2.4292,2.4292,2.4292,2.4292,2.4292,2.4292,2.4292,2.4292,2.4292,2.443,2.5133,2.6303,2.7534,2.8211,2.7399,2.6338,2.6338,2.738,2.8411,2.8411,2.8411,2.8411,2.8411,2.8411,2.8411,2.8411,2.8411,2.8411,2.8411,2.8411,2.8411,2.8411,2.8411,2.8411,2.8411,2.8411,2.8411,2.8411,2.8411,2.8411,2.8411,2.8411,2.8411,2.8411,2.8411,2.8411,2.8411,2.8411,2.8411,2.8411,2.8411,2.8411,2.8411,2.8411,2.8411,2.8411,2.8411,2.8411,1.5942,1.6277,1.6745,1.654,1.6853,1.6903,0.0,0.0,0.0,1.6314,1.5876,1.5639,1.6168,1.6269,1.6272,1.6272,1.7922,1.8959,1.8263,1.9704,2.1045,2.1581,2.1833,2.1976,2.2013,2.1957,2.2152,2.2757,2.3108,2.3661,2.4461,2.5083,2.5615,2.6087,2.5474,2.5208,2.538,2.4739,2.4374,2.4292,2.4292,2.4292,2.4292,2.4292,2.4292,2.4292,2.4292,2.4482,2.4769,2.4421,2.4492,2.4759,2.4436,2.4292,2.4292,2.4292,2.4292,2.4292,2.4292,2.4292,2.4292,2.4292,2.4292,2.4292,2.4292,2.6215,2.8411,2.8411,2.8411,2.8411,2.8411,2.8411,2.8411,2.8411,2.8411,2.8411,2.8411,2.8411,2.8411,2.8411,2.8411,2.8411,2.8411,2.8411,2.8411,2.8411,2.8411,2.8411,2.8411,2.8411,2.8411,2.8411,2.8411,2.8411,2.8411,2.8411,2.8411,2.8411,2.8411,2.8411,2.8411,2.8411,2.8411,2.8411,2.8411,2.8411,2.8411,2.8411,2.8411,2.8411,2.8411,2.8411,1.7984,1.8384,1.871,1.7767,1.8452,1.8747,1.6445,0.0,1.6595,1.5364,0.0,1.4992,1.5089,0.0,0.0,1.5099,1.639,1.7123,1.6334,1.7526,1.8685,1.9228,2.0136,2.0778,2.0956,2.0693,2.1162,2.2688,2.1772,2.2257,2.4791,2.5007,2.5381,2.6071,2.6007,2.5642,2.4971,2.4873,2.4649,2.4292,2.4292,2.4292,2.4292,2.4292,2.4292,2.4292,2.4292,2.4323,2.4364,2.4312,2.4323,2.4364,2.4312,2.4292,2.4292,2.4292,2.4292,2.4292,2.4292,2.4292,2.4292,2.4292,2.4292,2.4292,2.4292,2.6215,2.8411,2.8411,2.8411,2.8411,2.8411,2.8411,2.8411,2.8411,2.8411,2.8411,2.8411,2.8411,2.8411,2.8411,2.8411,2.8411,2.8411,2.8411,2.8411,2.8411,2.8411,2.8411,2.8411,2.8411,2.8411,2.8411,2.8411,2.8411,2.8411,2.8411,2.8411,2.8411,2.8411,2.8411,2.8411,2.8411,2.8411,2.8411,2.8411,2.8411,2.8411,2.8411,2.8411,2.8411,2.8411,2.8411,1.836,1.8794,1.9192,1.8237,1.862,1.8835,1.7334,1.7049,1.7024,1.6801,0.0,0.0,0.0,0.0,0.0,0.0,1.5781,1.6186,1.5424,1.6591,1.772,1.8304,1.8715,1.9224,1.997,1.9178,1.9366,2.1158,2.0521,2.104,2.3315,2.4431,2.5142,2.5457,2.5422,2.5237,2.4902,2.4669,2.4462,2.4292,2.4292,2.4292,2.4292,2.4292,2.4292,2.4292,2.4292,2.4421,2.4629,2.4405,2.4431,2.4619,2.4395,2.4292,2.4292,2.4292,2.4292,2.4292,2.4292,2.4292,2.4292,2.4292,2.4292,2.4292,2.4292,2.5107,2.6338,2.7938,2.8411,2.8411,2.8411,2.8411,2.8411,2.8411,2.8411,2.8411,2.8411,2.8411,2.8411,2.8411,2.8411,2.8411,2.8411,2.8411,2.8411,2.8411,2.8411,2.8411,2.8411,2.8411,2.8411,2.8411,2.8411,2.8411,2.8411,2.8411,2.8411,2.8411,2.8411,2.8411,2.8411,2.8411,2.8411,2.8411,2.8411,2.8411,2.8411,2.8411,2.8411,2.8411,2.8411,2.8411,1.9067,1.9372,1.9624,1.8648,1.8656,1.866,1.7736,1.7451,1.751,1.7996,1.7445,0.0,0.0,0.0,1.564,1.5252,0.0,1.5696,1.4811,1.5568,1.6564,1.7473,1.7755,1.8245,1.9155,1.7598,1.7455,1.9728,1.8838,1.9359,2.2017,2.3511,2.441,2.469,2.4837,2.4843,2.4739,2.4441,2.4292,2.4292,2.4292,2.4292,2.4292,2.4292,2.4292,2.4292,2.4292,2.4462,2.4709,2.4426,2.4472,2.4709,2.44,2.4292,2.4292,2.4292,2.4292,2.4292,2.4292,2.4292,2.4292,2.4292,2.4292,2.443,2.5199,2.5415,2.583,2.7842,2.8411,2.8411,2.8411,2.8411,2.8411,2.8411,2.8411,2.8411,2.8411,2.8411,2.8411,2.8411,2.8411,2.8411,2.8411,2.8411,2.8411,2.8411,2.8411,2.8411,2.8411,2.8411,2.8411,2.8411,2.8411,2.8411,2.8411,2.8411,2.8411,2.8411,2.8411,2.8411,2.8411,2.8411,2.8411,2.8411,2.8411,2.8411,2.8411,2.8411,2.8411,2.8411,2.8411,2.8411,2.0715,2.0739,2.0463,1.919,1.8883,1.8589,1.7384,1.7607,1.8077,1.8109,1.8635,1.9095,1.9135,1.8505,1.7552,1.6186,1.5976,0.0,0.0,1.4051,1.4643,1.6359,1.7453,1.823,1.8586,1.6013,1.5647,1.888,1.6482,1.6883,2.1573,2.2237,2.2931,2.3903,2.4559,2.4709,2.4312,2.4302,2.4292,2.4292,2.4292,2.4292,2.4292,2.4292,2.4292,2.4292,2.4292,2.4302,2.4312,2.4302,2.4302,2.4312,2.4302,2.4292,2.4292,2.4292,2.4292,2.4292,2.4292,2.4292,2.4292,2.4292,2.4292,2.4799,2.7461,2.8261,2.8288,2.8381,2.8411,2.8411,2.8411,2.8411,2.8411,2.8411,2.8411,2.8411,2.8411,2.8411,2.8411,2.8411,2.8411,2.8411,2.8411,2.8411,2.8411,2.8411,2.8411,2.8411,2.8411,2.8411,2.8411,2.8411,2.8411,2.8411,2.8411,2.8411,2.8411,2.8411,2.8411,2.8411,2.8411,2.8411,2.8411,2.8411,2.8411,2.8411,2.8411,2.8411,2.8411,2.8411,2.8411,2.8411,2.0802,2.0893,2.0759,1.9757,1.931,1.8836,1.7853,1.7865,1.8109,1.8109,1.8683,1.9193,1.9193,1.8602,1.7802,1.6878,1.5911,1.4973,0.0,1.3931,1.4278,1.5327,1.6589,1.7023,1.612,1.5719,1.5873,1.6719,1.6565,1.7477,1.9887,2.1279,2.2362,2.3153,2.3608,2.3992,2.4302,2.4292,2.4292,2.4292,2.4292,2.4292,2.4292,2.4292,2.4292,2.4292,2.4292,2.4292,2.4292,2.4292,2.4292,2.4292,2.4292,2.4292,2.4292,2.4292,2.4292,2.4292,2.4292,2.4292,2.4292,2.4292,2.5522,2.7196,2.8119,2.8411,2.8411,2.8411,2.8411,2.8411,2.8411,2.8411,2.8411,2.8411,2.8411,2.8481,2.8799,2.8858,2.8975,2.9321,2.9389,2.9183,2.8505,2.8951,2.9389,2.9389,2.9389,2.9149,2.8481,2.8975,2.9389,2.9389,2.9389,2.9126,2.8472,2.8411,2.8411,2.8411,2.8411,2.8411,2.8411,2.8411,2.8411,2.8411,2.8411,2.8411,2.8411,2.8411,2.8411,2.8411,2.8411,2.8411,2.0982,2.1071,2.0982,2.0175,1.9953,1.9666,1.8605,1.8824,1.9164,1.8929,1.9454,1.9947,1.9947,1.9357,1.8498,1.729,1.6079,1.4864,0.0,1.3617,1.3838,1.4052,1.5302,1.5939,1.5432,1.4824,1.4867,1.5889,1.5685,1.6522,1.8803,2.0194,2.1448,2.2586,2.3059,2.3625,2.4292,2.4292,2.4292,2.4292,2.4292,2.4292,2.4292,2.4292,2.4292,2.4292,2.4292,2.4292,2.4292,2.4292,2.4292,2.4292,2.4292,2.4292,2.4292,2.4292,2.4292,2.4292,2.4292,2.4292,2.4292,2.4292,2.6153,2.8411,2.8411,2.8411,2.8411,2.8411,2.8411,2.8411,2.8411,2.8411,2.8411,2.8411,2.8672,2.9021,2.9332,2.9373,2.9491,2.9825,2.9907,2.9692,2.9045,2.9468,2.9907,2.9907,2.9907,2.9659,2.901,2.9502,2.9907,2.9907,2.9907,2.9637,2.8986,2.8612,2.8411,2.8411,2.8411,2.8411,2.8411,2.8411,2.8411,2.8411,2.8411,2.8411,2.8411,2.8411,2.8411,2.8411,2.8411,2.8411]}]]